Wetterdaten: Donnerstag, 15.09.2016
Datum Zeit Temp. A. Feuchte A. Luftdruck Regen Wind Richtung Richtung Sonnenschein ET UV Solar Taupunkt Windchill Windben Empfang
15.09.2016 00:00 18,3 C 78 % 1011,9 hPa 0,0 l/m 7,8 km/h (2 Bft) O-NO 62 0 min 0,000 mm 0,0 UV-I 0 W/m 14,4 C 17,7 C 14,5 km/h (3 Bft) 97,87 %
15.09.2016 00:02 18,3 C 78 % 1012,0 hPa 0,0 l/m 7,8 km/h (2 Bft) O-NO 63 0 min 0,000 mm 0,0 UV-I 0 W/m 14,4 C 17,7 C 11,3 km/h (2 Bft) 97,22 %
15.09.2016 00:04 18,3 C 78 % 1011,9 hPa 0,0 l/m 7,6 km/h (2 Bft) O-NO 57 0 min 0,000 mm 0,0 UV-I 0 W/m 14,4 C 17,7 C 14,5 km/h (3 Bft) 95,74 %
15.09.2016 00:06 18,2 C 78 % 1011,9 hPa 0,0 l/m 7,8 km/h (2 Bft) NO 50 0 min 0,000 mm 0,0 UV-I 0 W/m 14,3 C 17,6 C 14,5 km/h (3 Bft) 95,74 %
15.09.2016 00:08 18,2 C 78 % 1011,9 hPa 0,0 l/m 9,0 km/h (2 Bft) O-NO 61 0 min 0,000 mm 0,0 UV-I 0 W/m 14,3 C 17,0 C 14,5 km/h (3 Bft) 93,62 %
15.09.2016 00:10 18,2 C 78 % 1011,9 hPa 0,0 l/m 8,1 km/h (2 Bft) O-NO 59 0 min 0,000 mm 0,0 UV-I 0 W/m 14,3 C 17,4 C 12,9 km/h (3 Bft) 95,74 %
15.09.2016 00:12 18,2 C 78 % 1011,9 hPa 0,0 l/m 8,6 km/h (2 Bft) O-NO 66 0 min 0,000 mm 0,0 UV-I 0 W/m 14,3 C 17,2 C 14,5 km/h (3 Bft) 97,87 %
15.09.2016 00:14 18,2 C 78 % 1011,8 hPa 0,0 l/m 9,4 km/h (2 Bft) O-NO 64 0 min 0,000 mm 0,0 UV-I 0 W/m 14,3 C 16,9 C 14,5 km/h (3 Bft) 96,00 %
15.09.2016 00:16 18,2 C 78 % 1011,8 hPa 0,0 l/m 9,2 km/h (2 Bft) O-NO 66 0 min 0,000 mm 0,0 UV-I 0 W/m 14,3 C 17,0 C 14,5 km/h (3 Bft) 97,87 %
15.09.2016 00:18 18,2 C 78 % 1011,9 hPa 0,0 l/m 9,7 km/h (2 Bft) NO 51 0 min 0,000 mm 0,0 UV-I 0 W/m 14,3 C 16,8 C 14,5 km/h (3 Bft) 97,87 %
15.09.2016 00:20 18,2 C 78 % 1011,8 hPa 0,0 l/m 8,0 km/h (2 Bft) O-NO 67 0 min 0,000 mm 0,0 UV-I 0 W/m 14,3 C 17,5 C 12,9 km/h (3 Bft) 91,49 %
15.09.2016 00:22 18,2 C 78 % 1011,8 hPa 0,0 l/m 9,0 km/h (2 Bft) O-NO 63 0 min 0,000 mm 0,0 UV-I 0 W/m 14,3 C 17,0 C 14,5 km/h (3 Bft) 98,00 %
15.09.2016 00:24 18,1 C 78 % 1011,8 hPa 0,0 l/m 10,3 km/h (2 Bft) O-NO 67 0 min 0,000 mm 0,0 UV-I 0 W/m 14,2 C 16,4 C 16,1 km/h (3 Bft) 97,87 %
15.09.2016 00:26 18,1 C 79 % 1011,7 hPa 0,0 l/m 9,0 km/h (2 Bft) NO 50 0 min 0,000 mm 0,0 UV-I 0 W/m 14,4 C 16,9 C 14,5 km/h (3 Bft) 96,00 %
15.09.2016 00:28 18,1 C 79 % 1011,7 hPa 0,0 l/m 10,4 km/h (2 Bft) O-NO 59 0 min 0,000 mm 0,0 UV-I 0 W/m 14,4 C 16,4 C 16,1 km/h (3 Bft) 94,44 %
15.09.2016 00:30 18,1 C 79 % 1011,8 hPa 0,0 l/m 9,7 km/h (2 Bft) O-NO 78 0 min 0,000 mm 0,0 UV-I 0 W/m 14,4 C 16,7 C 14,5 km/h (3 Bft) 98,00 %
15.09.2016 00:32 18,1 C 79 % 1011,7 hPa 0,0 l/m 7,6 km/h (2 Bft) O-NO 60 0 min 0,000 mm 0,0 UV-I 0 W/m 14,4 C 17,5 C 12,9 km/h (3 Bft) 100,00 %
15.09.2016 00:34 18,0 C 79 % 1011,6 hPa 0,0 l/m 7,6 km/h (2 Bft) NO 43 0 min 0,000 mm 0,0 UV-I 0 W/m 14,3 C 17,4 C 12,9 km/h (3 Bft) 95,74 %
15.09.2016 00:36 18,0 C 79 % 1011,7 hPa 0,0 l/m 7,6 km/h (2 Bft) NO 55 0 min 0,000 mm 0,0 UV-I 0 W/m 14,3 C 17,4 C 11,3 km/h (2 Bft) 100,00 %
15.09.2016 00:38 17,9 C 79 % 1011,7 hPa 0,0 l/m 7,0 km/h (2 Bft) O 79 0 min 0,000 mm 0,0 UV-I 0 W/m 14,2 C 17,6 C 9,7 km/h (2 Bft) 98,00 %
15.09.2016 00:40 17,9 C 79 % 1011,6 hPa 0,0 l/m 9,4 km/h (2 Bft) NO 49 0 min 0,000 mm 0,0 UV-I 0 W/m 14,2 C 16,6 C 14,5 km/h (3 Bft) 100,00 %
15.09.2016 00:42 17,9 C 79 % 1011,6 hPa 0,0 l/m 9,4 km/h (2 Bft) NO 38 0 min 0,000 mm 0,0 UV-I 0 W/m 14,2 C 16,6 C 19,3 km/h (3 Bft) 100,00 %
15.09.2016 00:44 17,9 C 79 % 1011,6 hPa 0,0 l/m 8,9 km/h (2 Bft) NO 52 0 min 0,000 mm 0,0 UV-I 0 W/m 14,2 C 16,8 C 14,5 km/h (3 Bft) 100,00 %
15.09.2016 00:46 17,8 C 79 % 1011,7 hPa 0,0 l/m 7,1 km/h (2 Bft) O-NO 67 0 min 0,000 mm 0,0 UV-I 0 W/m 14,1 C 17,5 C 12,9 km/h (3 Bft) 97,92 %
15.09.2016 00:48 17,8 C 79 % 1011,7 hPa 0,0 l/m 7,4 km/h (2 Bft) NO 55 0 min 0,000 mm 0,0 UV-I 0 W/m 14,1 C 17,3 C 11,3 km/h (2 Bft) 100,00 %
15.09.2016 00:50 17,8 C 79 % 1011,7 hPa 0,0 l/m 6,9 km/h (2 Bft) NO 56 0 min 0,000 mm 0,0 UV-I 0 W/m 14,1 C 17,6 C 14,5 km/h (3 Bft) 100,00 %
15.09.2016 00:52 17,8 C 80 % 1011,7 hPa 0,0 l/m 7,2 km/h (2 Bft) O-NO 70 0 min 0,000 mm 0,0 UV-I 0 W/m 14,3 C 17,4 C 9,7 km/h (2 Bft) 100,00 %
15.09.2016 00:54 17,7 C 80 % 1011,7 hPa 0,0 l/m 10,8 km/h (2 Bft) O-NO 60 0 min 0,000 mm 0,0 UV-I 0 W/m 14,2 C 15,8 C 16,1 km/h (3 Bft) 97,87 %
15.09.2016 00:56 17,7 C 80 % 1011,7 hPa 0,0 l/m 10,1 km/h (2 Bft) O-NO 66 0 min 0,000 mm 0,0 UV-I 0 W/m 14,2 C 16,1 C 14,5 km/h (3 Bft) 98,00 %
15.09.2016 00:58 17,7 C 80 % 1011,6 hPa 0,0 l/m 8,6 km/h (2 Bft) NO 56 0 min 0,000 mm 0,0 UV-I 0 W/m 14,2 C 16,7 C 12,9 km/h (3 Bft) 100,00 %
15.09.2016 01:00 17,7 C 80 % 1011,6 hPa 0,0 l/m 9,1 km/h (2 Bft) O-NO 57 0 min 0,025 mm 0,0 UV-I 0 W/m 14,2 C 16,5 C 16,1 km/h (3 Bft) 100,00 %
15.09.2016 01:02 17,7 C 80 % 1011,6 hPa 0,0 l/m 9,3 km/h (2 Bft) NO 51 0 min 0,000 mm 0,0 UV-I 0 W/m 14,2 C 16,4 C 14,5 km/h (3 Bft) 100,00 %
15.09.2016 01:04 17,7 C 80 % 1011,6 hPa 0,0 l/m 8,1 km/h (2 Bft) NO 42 0 min 0,000 mm 0,0 UV-I 0 W/m 14,2 C 16,9 C 12,9 km/h (3 Bft) 100,00 %
15.09.2016 01:06 17,6 C 80 % 1011,6 hPa 0,0 l/m 7,0 km/h (2 Bft) O-NO 65 0 min 0,000 mm 0,0 UV-I 0 W/m 14,1 C 17,3 C 11,3 km/h (2 Bft) 100,00 %
15.09.2016 01:08 17,6 C 80 % 1011,6 hPa 0,0 l/m 6,5 km/h (2 Bft) O-NO 63 0 min 0,000 mm 0,0 UV-I 0 W/m 14,1 C 17,6 C 12,9 km/h (3 Bft) 95,74 %
15.09.2016 01:10 17,6 C 80 % 1011,5 hPa 0,0 l/m 6,9 km/h (2 Bft) O-NO 73 0 min 0,000 mm 0,0 UV-I 0 W/m 14,1 C 17,4 C 9,7 km/h (2 Bft) 100,00 %
15.09.2016 01:12 17,5 C 80 % 1011,6 hPa 0,0 l/m 6,9 km/h (2 Bft) O-NO 65 0 min 0,000 mm 0,0 UV-I 0 W/m 14,0 C 17,3 C 9,7 km/h (2 Bft) 95,74 %
15.09.2016 01:14 17,4 C 81 % 1011,6 hPa 0,0 l/m 7,8 km/h (2 Bft) NO 46 0 min 0,000 mm 0,0 UV-I 0 W/m 14,1 C 16,7 C 12,9 km/h (3 Bft) 97,87 %
15.09.2016 01:16 17,4 C 81 % 1011,6 hPa 0,0 l/m 7,2 km/h (2 Bft) NO 55 0 min 0,000 mm 0,0 UV-I 0 W/m 14,1 C 17,0 C 11,3 km/h (2 Bft) 100,00 %
15.09.2016 01:18 17,4 C 81 % 1011,6 hPa 0,0 l/m 7,2 km/h (2 Bft) O-NO 58 0 min 0,000 mm 0,0 UV-I 0 W/m 14,1 C 17,0 C 11,3 km/h (2 Bft) 100,00 %
15.09.2016 01:20 17,5 C 81 % 1011,6 hPa 0,0 l/m 6,3 km/h (2 Bft) O-NO 69 0 min 0,000 mm 0,0 UV-I 0 W/m 14,2 C 17,5 C 9,7 km/h (2 Bft) 100,00 %
15.09.2016 01:22 17,4 C 81 % 1011,6 hPa 0,0 l/m 6,8 km/h (2 Bft) O-NO 63 0 min 0,000 mm 0,0 UV-I 0 W/m 14,1 C 17,2 C 12,9 km/h (3 Bft) 97,87 %
15.09.2016 01:24 17,4 C 81 % 1011,6 hPa 0,0 l/m 6,9 km/h (2 Bft) O-NO 69 0 min 0,000 mm 0,0 UV-I 0 W/m 14,1 C 17,2 C 12,9 km/h (3 Bft) 100,00 %
15.09.2016 01:26 17,4 C 81 % 1011,6 hPa 0,0 l/m 7,4 km/h (2 Bft) O-NO 77 0 min 0,000 mm 0,0 UV-I 0 W/m 14,1 C 16,9 C 11,3 km/h (2 Bft) 98,00 %
15.09.2016 01:28 17,4 C 81 % 1011,6 hPa 0,0 l/m 10,5 km/h (2 Bft) O-NO 72 0 min 0,000 mm 0,0 UV-I 0 W/m 14,1 C 15,6 C 19,3 km/h (3 Bft) 97,87 %
15.09.2016 01:30 17,4 C 81 % 1011,6 hPa 0,0 l/m 8,4 km/h (2 Bft) NO 40 0 min 0,000 mm 0,0 UV-I 0 W/m 14,1 C 16,4 C 16,1 km/h (3 Bft) 100,00 %
15.09.2016 01:32 17,4 C 81 % 1011,5 hPa 0,0 l/m 10,7 km/h (2 Bft) O-NO 59 0 min 0,000 mm 0,0 UV-I 0 W/m 14,1 C 15,5 C 17,7 km/h (3 Bft) 93,62 %
15.09.2016 01:34 17,5 C 81 % 1011,6 hPa 0,0 l/m 9,8 km/h (2 Bft) O-NO 70 0 min 0,000 mm 0,0 UV-I 0 W/m 14,2 C 16,0 C 14,5 km/h (3 Bft) 98,00 %
15.09.2016 01:36 17,5 C 81 % 1011,5 hPa 0,0 l/m 10,3 km/h (2 Bft) NO 53 0 min 0,000 mm 0,0 UV-I 0 W/m 14,2 C 15,8 C 16,1 km/h (3 Bft) 100,00 %
15.09.2016 01:38 17,6 C 80 % 1011,6 hPa 0,0 l/m 9,5 km/h (2 Bft) O-NO 75 0 min 0,000 mm 0,0 UV-I 0 W/m 14,1 C 16,2 C 14,5 km/h (3 Bft) 100,00 %
15.09.2016 01:40 17,5 C 80 % 1011,6 hPa 0,0 l/m 8,5 km/h (2 Bft) O-NO 64 0 min 0,000 mm 0,0 UV-I 0 W/m 14,0 C 16,5 C 14,5 km/h (3 Bft) 100,00 %
15.09.2016 01:42 17,5 C 81 % 1011,5 hPa 0,0 l/m 10,0 km/h (2 Bft) NO 53 0 min 0,000 mm 0,0 UV-I 0 W/m 14,2 C 15,9 C 16,1 km/h (3 Bft) 97,87 %
15.09.2016 01:44 17,5 C 81 % 1011,5 hPa 0,0 l/m 10,4 km/h (2 Bft) O-NO 68 0 min 0,000 mm 0,0 UV-I 0 W/m 14,2 C 15,7 C 14,5 km/h (3 Bft) 100,00 %
15.09.2016 01:46 17,5 C 81 % 1011,6 hPa 0,0 l/m 11,1 km/h (2 Bft) O-NO 71 0 min 0,000 mm 0,0 UV-I 0 W/m 14,2 C 15,5 C 17,7 km/h (3 Bft) 94,74 %
15.09.2016 01:48 17,5 C 80 % 1011,5 hPa 0,0 l/m 10,7 km/h (2 Bft) O-NO 74 0 min 0,000 mm 0,0 UV-I 0 W/m 14,0 C 15,6 C 16,1 km/h (3 Bft) 97,87 %
15.09.2016 01:50 17,5 C 80 % 1011,5 hPa 0,0 l/m 11,5 km/h (2 Bft) O 84 0 min 0,000 mm 0,0 UV-I 0 W/m 14,0 C 15,3 C 17,7 km/h (3 Bft) 100,00 %
15.09.2016 01:52 17,5 C 80 % 1011,5 hPa 0,0 l/m 12,3 km/h (3 Bft) O-NO 63 0 min 0,000 mm 0,0 UV-I 0 W/m 14,0 C 15,0 C 17,7 km/h (3 Bft) 100,00 %
15.09.2016 01:54 17,5 C 80 % 1011,5 hPa 0,0 l/m 12,1 km/h (2 Bft) O-NO 70 0 min 0,000 mm 0,0 UV-I 0 W/m 14,0 C 15,1 C 19,3 km/h (3 Bft) 97,87 %
15.09.2016 01:56 17,5 C 80 % 1011,5 hPa 0,0 l/m 13,0 km/h (3 Bft) O-NO 58 0 min 0,000 mm 0,0 UV-I 0 W/m 14,0 C 14,8 C 17,7 km/h (3 Bft) 97,87 %
15.09.2016 01:58 17,5 C 80 % 1011,5 hPa 0,0 l/m 12,6 km/h (3 Bft) O-NO 66 0 min 0,000 mm 0,0 UV-I 0 W/m 14,0 C 15,0 C 17,7 km/h (3 Bft) 97,87 %
15.09.2016 02:00 17,5 C 80 % 1011,4 hPa 0,0 l/m 10,8 km/h (2 Bft) O-NO 59 0 min 0,026 mm 0,0 UV-I 0 W/m 14,0 C 15,6 C 16,1 km/h (3 Bft) 95,74 %
15.09.2016 02:02 17,5 C 80 % 1011,4 hPa 0,0 l/m 10,1 km/h (2 Bft) O-NO 69 0 min 0,000 mm 0,0 UV-I 0 W/m 14,0 C 15,8 C 19,3 km/h (3 Bft) 97,87 %
15.09.2016 02:04 17,5 C 80 % 1011,5 hPa 0,0 l/m 11,7 km/h (2 Bft) O-NO 65 0 min 0,000 mm 0,0 UV-I 0 W/m 14,0 C 15,3 C 16,1 km/h (3 Bft) 96,00 %
15.09.2016 02:06 17,5 C 80 % 1011,4 hPa 0,0 l/m 10,6 km/h (2 Bft) O-NO 59 0 min 0,000 mm 0,0 UV-I 0 W/m 14,0 C 15,6 C 16,1 km/h (3 Bft) 94,44 %
15.09.2016 02:08 17,5 C 80 % 1011,4 hPa 0,0 l/m 11,3 km/h (2 Bft) NO 36 0 min 0,000 mm 0,0 UV-I 0 W/m 14,0 C 15,4 C 16,1 km/h (3 Bft) 100,00 %
15.09.2016 02:10 17,5 C 80 % 1011,4 hPa 0,0 l/m 13,7 km/h (3 Bft) O-NO 65 0 min 0,000 mm 0,0 UV-I 0 W/m 14,0 C 14,6 C 20,9 km/h (4 Bft) 96,92 %
15.09.2016 02:12 17,6 C 80 % 1011,4 hPa 0,0 l/m 14,5 km/h (3 Bft) O-NO 69 0 min 0,000 mm 0,0 UV-I 0 W/m 14,1 C 14,5 C 20,9 km/h (4 Bft) 97,87 %
15.09.2016 02:14 17,6 C 80 % 1011,3 hPa 0,0 l/m 12,4 km/h (3 Bft) NO 50 0 min 0,000 mm 0,0 UV-I 0 W/m 14,1 C 15,1 C 19,3 km/h (3 Bft) 97,87 %
15.09.2016 02:16 17,6 C 80 % 1011,3 hPa 0,0 l/m 10,6 km/h (2 Bft) O-NO 65 0 min 0,000 mm 0,0 UV-I 0 W/m 14,1 C 15,8 C 16,1 km/h (3 Bft) 95,74 %
15.09.2016 02:18 17,6 C 80 % 1011,3 hPa 0,0 l/m 11,7 km/h (2 Bft) NO 51 0 min 0,000 mm 0,0 UV-I 0 W/m 14,1 C 15,4 C 20,9 km/h (4 Bft) 97,37 %
15.09.2016 02:20 17,6 C 79 % 1011,3 hPa 0,0 l/m 15,3 km/h (3 Bft) NO 46 0 min 0,000 mm 0,0 UV-I 0 W/m 13,9 C 14,3 C 24,1 km/h (4 Bft) 97,87 %
15.09.2016 02:22 17,6 C 79 % 1011,3 hPa 0,0 l/m 12,9 km/h (3 Bft) NO 36 0 min 0,000 mm 0,0 UV-I 0 W/m 13,9 C 15,0 C 17,7 km/h (3 Bft) 97,87 %
15.09.2016 02:24 17,6 C 79 % 1011,3 hPa 0,0 l/m 13,4 km/h (3 Bft) O-NO 58 0 min 0,000 mm 0,0 UV-I 0 W/m 13,9 C 14,8 C 17,7 km/h (3 Bft) 95,74 %
15.09.2016 02:26 17,5 C 79 % 1011,2 hPa 0,0 l/m 13,3 km/h (3 Bft) O-NO 59 0 min 0,000 mm 0,0 UV-I 0 W/m 13,8 C 14,7 C 20,9 km/h (4 Bft) 98,08 %
15.09.2016 02:28 17,5 C 79 % 1011,2 hPa 0,0 l/m 14,1 km/h (3 Bft) NO 54 0 min 0,000 mm 0,0 UV-I 0 W/m 13,8 C 14,5 C 19,3 km/h (3 Bft) 97,87 %
15.09.2016 02:30 17,5 C 79 % 1011,2 hPa 0,0 l/m 15,7 km/h (3 Bft) O-NO 70 0 min 0,000 mm 0,0 UV-I 0 W/m 13,8 C 14,0 C 20,9 km/h (4 Bft) 100,00 %
15.09.2016 02:32 17,5 C 79 % 1011,1 hPa 0,0 l/m 17,8 km/h (3 Bft) NO 53 0 min 0,000 mm 0,0 UV-I 0 W/m 13,8 C 13,5 C 27,4 km/h (4 Bft) 100,00 %
15.09.2016 02:34 17,5 C 79 % 1011,2 hPa 0,0 l/m 16,8 km/h (3 Bft) NO 49 0 min 0,000 mm 0,0 UV-I 0 W/m 13,8 C 13,7 C 22,5 km/h (4 Bft) 100,00 %
15.09.2016 02:36 17,5 C 79 % 1011,2 hPa 0,0 l/m 15,8 km/h (3 Bft) O 80 0 min 0,000 mm 0,0 UV-I 0 W/m 13,8 C 14,0 C 20,9 km/h (4 Bft) 97,87 %
15.09.2016 02:38 17,6 C 79 % 1011,2 hPa 0,0 l/m 17,1 km/h (3 Bft) O-NO 65 0 min 0,000 mm 0,0 UV-I 0 W/m 13,9 C 13,8 C 25,7 km/h (4 Bft) 95,74 %
15.09.2016 02:40 17,6 C 79 % 1011,2 hPa 0,0 l/m 19,1 km/h (3 Bft) O-NO 78 0 min 0,000 mm 0,0 UV-I 0 W/m 13,9 C 13,3 C 24,1 km/h (4 Bft) 98,00 %
15.09.2016 02:42 17,6 C 79 % 1011,2 hPa 0,0 l/m 17,1 km/h (3 Bft) NO 53 0 min 0,000 mm 0,0 UV-I 0 W/m 13,9 C 13,8 C 24,1 km/h (4 Bft) 100,00 %
15.09.2016 02:44 17,6 C 79 % 1011,2 hPa 0,0 l/m 14,2 km/h (3 Bft) O-NO 71 0 min 0,000 mm 0,0 UV-I 0 W/m 13,9 C 14,6 C 19,3 km/h (3 Bft) 97,87 %
15.09.2016 02:46 17,6 C 79 % 1011,2 hPa 0,0 l/m 15,1 km/h (3 Bft) O-NO 57 0 min 0,000 mm 0,0 UV-I 0 W/m 13,9 C 14,3 C 22,5 km/h (4 Bft) 97,92 %
15.09.2016 02:48 17,6 C 79 % 1011,2 hPa 0,0 l/m 16,3 km/h (3 Bft) O-NO 70 0 min 0,000 mm 0,0 UV-I 0 W/m 13,9 C 14,0 C 24,1 km/h (4 Bft) 97,87 %
15.09.2016 02:50 17,6 C 78 % 1011,2 hPa 0,0 l/m 16,6 km/h (3 Bft) NO 48 0 min 0,000 mm 0,0 UV-I 0 W/m 13,7 C 13,9 C 24,1 km/h (4 Bft) 97,87 %
15.09.2016 02:52 17,6 C 78 % 1011,2 hPa 0,0 l/m 15,2 km/h (3 Bft) O-NO 74 0 min 0,000 mm 0,0 UV-I 0 W/m 13,7 C 14,3 C 20,9 km/h (4 Bft) 100,00 %
15.09.2016 02:54 17,6 C 78 % 1011,2 hPa 0,0 l/m 16,9 km/h (3 Bft) O-NO 68 0 min 0,000 mm 0,0 UV-I 0 W/m 13,7 C 13,8 C 24,1 km/h (4 Bft) 100,00 %
15.09.2016 02:56 17,6 C 78 % 1011,2 hPa 0,0 l/m 17,4 km/h (3 Bft) O-NO 74 0 min 0,000 mm 0,0 UV-I 0 W/m 13,7 C 13,7 C 24,1 km/h (4 Bft) 98,00 %
15.09.2016 02:58 17,6 C 78 % 1011,2 hPa 0,0 l/m 16,8 km/h (3 Bft) NO 46 0 min 0,000 mm 0,0 UV-I 0 W/m 13,7 C 13,9 C 22,5 km/h (4 Bft) 100,00 %
15.09.2016 03:00 17,6 C 78 % 1011,2 hPa 0,0 l/m 16,9 km/h (3 Bft) O-NO 57 0 min 0,051 mm 0,0 UV-I 0 W/m 13,7 C 13,8 C 22,5 km/h (4 Bft) 97,87 %
15.09.2016 03:02 17,6 C 78 % 1011,1 hPa 0,0 l/m 16,3 km/h (3 Bft) NO 55 0 min 0,000 mm 0,0 UV-I 0 W/m 13,7 C 14,0 C 20,9 km/h (4 Bft) 100,00 %
15.09.2016 03:04 17,6 C 78 % 1011,1 hPa 0,0 l/m 16,9 km/h (3 Bft) NO 44 0 min 0,000 mm 0,0 UV-I 0 W/m 13,7 C 13,8 C 22,5 km/h (4 Bft) 100,00 %
15.09.2016 03:06 17,5 C 79 % 1011,1 hPa 0,0 l/m 15,9 km/h (3 Bft) O-NO 57 0 min 0,000 mm 0,0 UV-I 0 W/m 13,8 C 14,0 C 20,9 km/h (4 Bft) 100,00 %
15.09.2016 03:08 17,5 C 79 % 1011,1 hPa 0,0 l/m 18,2 km/h (3 Bft) O-NO 67 0 min 0,000 mm 0,0 UV-I 0 W/m 13,8 C 13,4 C 27,4 km/h (4 Bft) 98,00 %
15.09.2016 03:10 17,5 C 79 % 1011,1 hPa 0,0 l/m 15,8 km/h (3 Bft) NO 55 0 min 0,000 mm 0,0 UV-I 0 W/m 13,8 C 14,0 C 25,7 km/h (4 Bft) 97,87 %
15.09.2016 03:12 17,5 C 79 % 1011,1 hPa 0,0 l/m 18,2 km/h (3 Bft) O-NO 68 0 min 0,000 mm 0,0 UV-I 0 W/m 13,8 C 13,4 C 24,1 km/h (4 Bft) 100,00 %
15.09.2016 03:14 17,5 C 79 % 1011,1 hPa 0,0 l/m 17,0 km/h (3 Bft) NO 48 0 min 0,000 mm 0,0 UV-I 0 W/m 13,8 C 13,7 C 22,5 km/h (4 Bft) 100,00 %
15.09.2016 03:16 17,4 C 79 % 1011,1 hPa 0,0 l/m 15,9 km/h (3 Bft) O-NO 64 0 min 0,000 mm 0,0 UV-I 0 W/m 13,7 C 13,8 C 25,7 km/h (4 Bft) 100,00 %
15.09.2016 03:18 17,5 C 79 % 1011,0 hPa 0,0 l/m 18,0 km/h (3 Bft) NO 47 0 min 0,000 mm 0,0 UV-I 0 W/m 13,8 C 13,4 C 24,1 km/h (4 Bft) 100,00 %
15.09.2016 03:20 17,5 C 79 % 1011,0 hPa 0,0 l/m 16,5 km/h (3 Bft) NO 53 0 min 0,000 mm 0,0 UV-I 0 W/m 13,8 C 13,8 C 24,1 km/h (4 Bft) 100,00 %
15.09.2016 03:22 17,4 C 79 % 1011,0 hPa 0,0 l/m 18,7 km/h (3 Bft) O-NO 66 0 min 0,000 mm 0,0 UV-I 0 W/m 13,7 C 13,1 C 27,4 km/h (4 Bft) 98,00 %
15.09.2016 03:24 17,4 C 79 % 1011,0 hPa 0,0 l/m 17,5 km/h (3 Bft) O-NO 57 0 min 0,000 mm 0,0 UV-I 0 W/m 13,7 C 13,4 C 22,5 km/h (4 Bft) 100,00 %
15.09.2016 03:26 17,4 C 79 % 1010,9 hPa 0,0 l/m 19,1 km/h (3 Bft) NO 36 0 min 0,000 mm 0,0 UV-I 0 W/m 13,7 C 13,0 C 25,7 km/h (4 Bft) 100,00 %
15.09.2016 03:28 17,4 C 79 % 1010,9 hPa 0,0 l/m 18,3 km/h (3 Bft) O-NO 59 0 min 0,000 mm 0,0 UV-I 0 W/m 13,7 C 13,2 C 29,0 km/h (5 Bft) 100,00 %
15.09.2016 03:30 17,4 C 79 % 1010,9 hPa 0,0 l/m 17,9 km/h (3 Bft) O-NO 62 0 min 0,000 mm 0,0 UV-I 0 W/m 13,7 C 13,3 C 24,1 km/h (4 Bft) 100,00 %
15.09.2016 03:32 17,4 C 79 % 1010,7 hPa 0,0 l/m 20,7 km/h (4 Bft) O-NO 62 0 min 0,000 mm 0,0 UV-I 0 W/m 13,7 C 12,7 C 33,8 km/h (5 Bft) 100,00 %
15.09.2016 03:34 17,4 C 79 % 1010,8 hPa 0,0 l/m 17,5 km/h (3 Bft) O-NO 59 0 min 0,000 mm 0,0 UV-I 0 W/m 13,7 C 13,4 C 27,4 km/h (4 Bft) 100,00 %
15.09.2016 03:36 17,4 C 79 % 1010,8 hPa 0,0 l/m 19,3 km/h (3 Bft) O-NO 67 0 min 0,000 mm 0,0 UV-I 0 W/m 13,7 C 13,0 C 32,2 km/h (5 Bft) 100,00 %
15.09.2016 03:38 17,4 C 79 % 1010,8 hPa 0,0 l/m 19,3 km/h (3 Bft) O-NO 57 0 min 0,000 mm 0,0 UV-I 0 W/m 13,7 C 13,0 C 25,7 km/h (4 Bft) 97,87 %
15.09.2016 03:40 17,4 C 79 % 1010,8 hPa 0,0 l/m 17,6 km/h (3 Bft) O-NO 62 0 min 0,000 mm 0,0 UV-I 0 W/m 13,7 C 13,4 C 25,7 km/h (4 Bft) 100,00 %
15.09.2016 03:42 17,3 C 80 % 1010,9 hPa 0,0 l/m 17,7 km/h (3 Bft) NO 49 0 min 0,000 mm 0,0 UV-I 0 W/m 13,8 C 13,3 C 24,1 km/h (4 Bft) 100,00 %
15.09.2016 03:44 17,3 C 80 % 1010,8 hPa 0,0 l/m 19,5 km/h (3 Bft) NO 51 0 min 0,000 mm 0,0 UV-I 0 W/m 13,8 C 12,8 C 29,0 km/h (5 Bft) 100,00 %
15.09.2016 03:46 17,3 C 80 % 1010,8 hPa 0,0 l/m 15,1 km/h (3 Bft) O-NO 63 0 min 0,000 mm 0,0 UV-I 0 W/m 13,8 C 13,9 C 20,9 km/h (4 Bft) 100,00 %
15.09.2016 03:48 17,3 C 80 % 1010,8 hPa 0,0 l/m 17,7 km/h (3 Bft) O-NO 69 0 min 0,000 mm 0,0 UV-I 0 W/m 13,8 C 13,3 C 25,7 km/h (4 Bft) 100,00 %
15.09.2016 03:50 17,3 C 80 % 1010,8 hPa 0,0 l/m 18,0 km/h (3 Bft) O-NO 77 0 min 0,000 mm 0,0 UV-I 0 W/m 13,8 C 13,2 C 29,0 km/h (5 Bft) 97,14 %
15.09.2016 03:52 17,3 C 80 % 1010,8 hPa 0,0 l/m 15,1 km/h (3 Bft) O-NO 77 0 min 0,000 mm 0,0 UV-I 0 W/m 13,8 C 13,9 C 22,5 km/h (4 Bft) 97,87 %
15.09.2016 03:54 17,2 C 81 % 1010,8 hPa 0,0 l/m 15,1 km/h (3 Bft) O-NO 63 0 min 0,000 mm 0,0 UV-I 0 W/m 13,9 C 13,8 C 24,1 km/h (4 Bft) 100,00 %
15.09.2016 03:56 17,2 C 81 % 1010,8 hPa 0,0 l/m 15,7 km/h (3 Bft) NO 34 0 min 0,000 mm 0,0 UV-I 0 W/m 13,9 C 13,7 C 20,9 km/h (4 Bft) 97,92 %
15.09.2016 03:58 17,2 C 81 % 1010,8 hPa 0,0 l/m 15,0 km/h (3 Bft) O 86 0 min 0,000 mm 0,0 UV-I 0 W/m 13,9 C 13,9 C 20,9 km/h (4 Bft) 95,74 %
15.09.2016 04:00 17,2 C 81 % 1010,8 hPa 0,0 l/m 14,4 km/h (3 Bft) O-NO 62 0 min 0,000 mm 0,0 UV-I 0 W/m 13,9 C 14,0 C 24,1 km/h (4 Bft) 97,87 %
15.09.2016 04:02 17,2 C 81 % 1010,8 hPa 0,0 l/m 17,6 km/h (3 Bft) O-NO 78 0 min 0,050 mm 0,0 UV-I 0 W/m 13,9 C 13,2 C 25,7 km/h (4 Bft) 100,00 %
15.09.2016 04:04 17,2 C 81 % 1010,8 hPa 0,0 l/m 12,0 km/h (2 Bft) O 92 0 min 0,000 mm 0,0 UV-I 0 W/m 13,9 C 14,8 C 19,3 km/h (3 Bft) 97,87 %
15.09.2016 04:06 17,2 C 81 % 1010,8 hPa 0,0 l/m 16,4 km/h (3 Bft) O-NO 70 0 min 0,000 mm 0,0 UV-I 0 W/m 13,9 C 13,5 C 22,5 km/h (4 Bft) 96,00 %
15.09.2016 04:08 17,2 C 81 % 1010,8 hPa 0,0 l/m 18,4 km/h (3 Bft) NO 44 0 min 0,000 mm 0,0 UV-I 0 W/m 13,9 C 13,0 C 25,7 km/h (4 Bft) 95,74 %
15.09.2016 04:10 17,2 C 81 % 1010,8 hPa 0,0 l/m 18,2 km/h (3 Bft) O-NO 66 0 min 0,000 mm 0,0 UV-I 0 W/m 13,9 C 13,0 C 25,7 km/h (4 Bft) 97,87 %
15.09.2016 04:12 17,2 C 81 % 1010,8 hPa 0,0 l/m 17,3 km/h (3 Bft) O-NO 73 0 min 0,000 mm 0,0 UV-I 0 W/m 13,9 C 13,2 C 24,1 km/h (4 Bft) 95,74 %
15.09.2016 04:14 17,2 C 81 % 1010,8 hPa 0,0 l/m 14,6 km/h (3 Bft) O-NO 63 0 min 0,000 mm 0,0 UV-I 0 W/m 13,9 C 14,0 C 22,5 km/h (4 Bft) 95,74 %
15.09.2016 04:16 17,1 C 81 % 1010,8 hPa 0,0 l/m 15,9 km/h (3 Bft) O-NO 64 0 min 0,000 mm 0,0 UV-I 0 W/m 13,8 C 13,5 C 22,5 km/h (4 Bft) 97,87 %
15.09.2016 04:18 17,1 C 82 % 1010,7 hPa 0,0 l/m 17,3 km/h (3 Bft) O-NO 76 0 min 0,000 mm 0,0 UV-I 0 W/m 14,0 C 13,1 C 22,5 km/h (4 Bft) 97,87 %
15.09.2016 04:20 17,1 C 82 % 1010,7 hPa 0,0 l/m 14,8 km/h (3 Bft) O-NO 64 0 min 0,000 mm 0,0 UV-I 0 W/m 14,0 C 13,8 C 22,5 km/h (4 Bft) 97,37 %
15.09.2016 04:22 17,0 C 82 % 1010,7 hPa 0,0 l/m 13,3 km/h (3 Bft) O-NO 57 0 min 0,000 mm 0,0 UV-I 0 W/m 13,9 C 14,1 C 19,3 km/h (3 Bft) 98,00 %
15.09.2016 04:24 17,0 C 82 % 1010,7 hPa 0,0 l/m 15,0 km/h (3 Bft) O 92 0 min 0,000 mm 0,0 UV-I 0 W/m 13,9 C 13,6 C 24,1 km/h (4 Bft) 93,62 %
15.09.2016 04:26 16,9 C 82 % 1010,6 hPa 0,0 l/m 14,1 km/h (3 Bft) O-NO 70 0 min 0,000 mm 0,0 UV-I 0 W/m 13,8 C 13,8 C 19,3 km/h (3 Bft) 98,00 %
15.09.2016 04:28 16,9 C 82 % 1010,6 hPa 0,0 l/m 16,9 km/h (3 Bft) O-NO 64 0 min 0,000 mm 0,0 UV-I 0 W/m 13,8 C 13,0 C 25,7 km/h (4 Bft) 97,87 %
15.09.2016 04:30 16,9 C 82 % 1010,6 hPa 0,0 l/m 14,1 km/h (3 Bft) NO 53 0 min 0,000 mm 0,0 UV-I 0 W/m 13,8 C 13,8 C 17,7 km/h (3 Bft) 97,87 %
15.09.2016 04:32 16,9 C 82 % 1010,5 hPa 0,0 l/m 12,7 km/h (3 Bft) O-NO 61 0 min 0,000 mm 0,0 UV-I 0 W/m 13,8 C 14,2 C 17,7 km/h (3 Bft) 100,00 %
15.09.2016 04:34 16,9 C 82 % 1010,5 hPa 0,0 l/m 13,2 km/h (3 Bft) O-NO 75 0 min 0,000 mm 0,0 UV-I 0 W/m 13,8 C 14,1 C 17,7 km/h (3 Bft) 100,00 %
15.09.2016 04:36 16,9 C 83 % 1010,5 hPa 0,0 l/m 14,5 km/h (3 Bft) NO 56 0 min 0,000 mm 0,0 UV-I 0 W/m 14,0 C 13,6 C 22,5 km/h (4 Bft) 100,00 %
15.09.2016 04:38 16,9 C 83 % 1010,5 hPa 0,0 l/m 12,9 km/h (3 Bft) O 85 0 min 0,000 mm 0,0 UV-I 0 W/m 14,0 C 14,2 C 20,9 km/h (4 Bft) 100,00 %
15.09.2016 04:40 16,9 C 83 % 1010,5 hPa 0,0 l/m 13,2 km/h (3 Bft) O-NO 75 0 min 0,000 mm 0,0 UV-I 0 W/m 14,0 C 14,1 C 17,7 km/h (3 Bft) 100,00 %
15.09.2016 04:42 16,8 C 83 % 1010,5 hPa 0,0 l/m 13,3 km/h (3 Bft) NO 56 0 min 0,000 mm 0,0 UV-I 0 W/m 13,9 C 13,9 C 17,7 km/h (3 Bft) 95,74 %
15.09.2016 04:44 16,8 C 83 % 1010,5 hPa 0,0 l/m 15,3 km/h (3 Bft) NO 51 0 min 0,000 mm 0,0 UV-I 0 W/m 13,9 C 13,3 C 19,3 km/h (3 Bft) 100,00 %
15.09.2016 04:46 16,8 C 83 % 1010,4 hPa 0,0 l/m 14,7 km/h (3 Bft) NO 41 0 min 0,000 mm 0,0 UV-I 0 W/m 13,9 C 13,5 C 19,3 km/h (3 Bft) 100,00 %
15.09.2016 04:48 16,8 C 83 % 1010,4 hPa 0,0 l/m 12,0 km/h (2 Bft) O-NO 58 0 min 0,000 mm 0,0 UV-I 0 W/m 13,9 C 14,3 C 16,1 km/h (3 Bft) 97,87 %
15.09.2016 04:50 16,8 C 83 % 1010,4 hPa 0,0 l/m 14,0 km/h (3 Bft) NO 44 0 min 0,000 mm 0,0 UV-I 0 W/m 13,9 C 13,7 C 19,3 km/h (3 Bft) 100,00 %
15.09.2016 04:52 16,7 C 84 % 1010,5 hPa 0,0 l/m 13,5 km/h (3 Bft) O 88 0 min 0,000 mm 0,0 UV-I 0 W/m 14,0 C 13,7 C 17,7 km/h (3 Bft) 100,00 %
15.09.2016 04:54 16,7 C 84 % 1010,5 hPa 0,0 l/m 13,7 km/h (3 Bft) NO 42 0 min 0,000 mm 0,0 UV-I 0 W/m 14,0 C 13,7 C 22,5 km/h (4 Bft) 100,00 %
15.09.2016 04:56 16,7 C 84 % 1010,5 hPa 0,0 l/m 16,1 km/h (3 Bft) O-NO 58 0 min 0,000 mm 0,0 UV-I 0 W/m 14,0 C 12,9 C 22,5 km/h (4 Bft) 98,00 %
15.09.2016 04:58 16,7 C 84 % 1010,4 hPa 0,0 l/m 16,0 km/h (3 Bft) O 80 0 min 0,000 mm 0,0 UV-I 0 W/m 14,0 C 13,0 C 22,5 km/h (4 Bft) 98,00 %
15.09.2016 05:00 16,7 C 84 % 1010,4 hPa 0,0 l/m 15,9 km/h (3 Bft) O-NO 67 0 min 0,026 mm 0,0 UV-I 0 W/m 14,0 C 13,0 C 20,9 km/h (4 Bft) 100,00 %
15.09.2016 05:02 16,7 C 84 % 1010,4 hPa 0,0 l/m 15,4 km/h (3 Bft) O 82 0 min 0,000 mm 0,0 UV-I 0 W/m 14,0 C 13,1 C 19,3 km/h (3 Bft) 100,00 %
15.09.2016 05:04 16,7 C 84 % 1010,3 hPa 0,0 l/m 15,2 km/h (3 Bft) O-NO 58 0 min 0,000 mm 0,0 UV-I 0 W/m 14,0 C 13,2 C 24,1 km/h (4 Bft) 100,00 %
15.09.2016 05:06 16,7 C 84 % 1010,3 hPa 0,0 l/m 14,5 km/h (3 Bft) NO 45 0 min 0,000 mm 0,0 UV-I 0 W/m 14,0 C 13,4 C 22,5 km/h (4 Bft) 97,87 %
15.09.2016 05:08 16,7 C 84 % 1010,3 hPa 0,0 l/m 15,9 km/h (3 Bft) O-NO 60 0 min 0,000 mm 0,0 UV-I 0 W/m 14,0 C 13,0 C 22,5 km/h (4 Bft) 100,00 %
15.09.2016 05:10 16,7 C 84 % 1010,3 hPa 0,0 l/m 17,3 km/h (3 Bft) NO 53 0 min 0,000 mm 0,0 UV-I 0 W/m 14,0 C 12,6 C 24,1 km/h (4 Bft) 100,00 %
15.09.2016 05:12 16,7 C 84 % 1010,3 hPa 0,0 l/m 14,6 km/h (3 Bft) NO 38 0 min 0,000 mm 0,0 UV-I 0 W/m 14,0 C 13,4 C 22,5 km/h (4 Bft) 95,74 %
15.09.2016 05:14 16,7 C 84 % 1010,2 hPa 0,0 l/m 16,6 km/h (3 Bft) O-NO 71 0 min 0,000 mm 0,0 UV-I 0 W/m 14,0 C 12,8 C 22,5 km/h (4 Bft) 100,00 %
15.09.2016 05:16 16,7 C 84 % 1010,2 hPa 0,0 l/m 21,2 km/h (4 Bft) O-NO 71 0 min 0,000 mm 0,0 UV-I 0 W/m 14,0 C 11,7 C 25,7 km/h (4 Bft) 93,62 %
15.09.2016 05:18 16,8 C 84 % 1010,2 hPa 0,0 l/m 17,8 km/h (3 Bft) O-NO 71 0 min 0,000 mm 0,0 UV-I 0 W/m 14,1 C 12,6 C 25,7 km/h (4 Bft) 97,56 %
15.09.2016 05:20 16,8 C 84 % 1010,2 hPa 0,0 l/m 13,8 km/h (3 Bft) O-NO 63 0 min 0,000 mm 0,0 UV-I 0 W/m 14,1 C 13,7 C 20,9 km/h (4 Bft) 95,74 %
15.09.2016 05:22 16,7 C 84 % 1010,2 hPa 0,0 l/m 11,1 km/h (2 Bft) O-NO 74 0 min 0,000 mm 0,0 UV-I 0 W/m 14,0 C 14,6 C 16,1 km/h (3 Bft) 100,00 %
15.09.2016 05:24 16,7 C 84 % 1010,2 hPa 0,0 l/m 15,5 km/h (3 Bft) O-NO 67 0 min 0,000 mm 0,0 UV-I 0 W/m 14,0 C 13,1 C 22,5 km/h (4 Bft) 100,00 %
15.09.2016 05:26 16,7 C 84 % 1010,2 hPa 0,0 l/m 16,3 km/h (3 Bft) NO 56 0 min 0,000 mm 0,0 UV-I 0 W/m 14,0 C 12,9 C 22,5 km/h (4 Bft) 100,00 %
15.09.2016 05:28 16,7 C 84 % 1010,3 hPa 0,0 l/m 14,7 km/h (3 Bft) O-NO 69 0 min 0,000 mm 0,0 UV-I 0 W/m 14,0 C 13,3 C 22,5 km/h (4 Bft) 100,00 %
15.09.2016 05:30 16,6 C 84 % 1010,3 hPa 0,0 l/m 17,6 km/h (3 Bft) O 84 0 min 0,000 mm 0,0 UV-I 0 W/m 13,9 C 12,4 C 29,0 km/h (5 Bft) 100,00 %
15.09.2016 05:32 16,6 C 84 % 1010,3 hPa 0,0 l/m 18,3 km/h (3 Bft) O-NO 57 0 min 0,000 mm 0,0 UV-I 0 W/m 13,9 C 12,2 C 25,7 km/h (4 Bft) 100,00 %
15.09.2016 05:34 16,6 C 84 % 1010,2 hPa 0,0 l/m 15,8 km/h (3 Bft) NO 56 0 min 0,000 mm 0,0 UV-I 0 W/m 13,9 C 12,9 C 24,1 km/h (4 Bft) 100,00 %
15.09.2016 05:36 16,6 C 84 % 1010,3 hPa 0,0 l/m 16,3 km/h (3 Bft) O-NO 59 0 min 0,000 mm 0,0 UV-I 0 W/m 13,9 C 12,8 C 24,1 km/h (4 Bft) 100,00 %
15.09.2016 05:38 16,6 C 84 % 1010,1 hPa 0,0 l/m 12,3 km/h (3 Bft) O-NO 57 0 min 0,000 mm 0,0 UV-I 0 W/m 13,9 C 14,0 C 17,7 km/h (3 Bft) 100,00 %
15.09.2016 05:40 16,6 C 84 % 1010,2 hPa 0,0 l/m 16,4 km/h (3 Bft) NO 55 0 min 0,000 mm 0,0 UV-I 0 W/m 13,9 C 12,7 C 24,1 km/h (4 Bft) 100,00 %
15.09.2016 05:42 16,6 C 84 % 1010,2 hPa 0,0 l/m 14,8 km/h (3 Bft) O-NO 65 0 min 0,000 mm 0,0 UV-I 0 W/m 13,9 C 13,2 C 19,3 km/h (3 Bft) 100,00 %
15.09.2016 05:44 16,6 C 84 % 1010,1 hPa 0,0 l/m 11,3 km/h (2 Bft) NO 47 0 min 0,000 mm 0,0 UV-I 0 W/m 13,9 C 14,4 C 17,7 km/h (3 Bft) 100,00 %
15.09.2016 05:46 16,6 C 85 % 1010,2 hPa 0,0 l/m 15,3 km/h (3 Bft) O 86 0 min 0,000 mm 0,0 UV-I 0 W/m 14,1 C 13,0 C 24,1 km/h (4 Bft) 100,00 %
15.09.2016 05:48 16,5 C 85 % 1010,1 hPa 0,0 l/m 13,1 km/h (3 Bft) O-NO 70 0 min 0,000 mm 0,0 UV-I 0 W/m 14,0 C 13,6 C 17,7 km/h (3 Bft) 100,00 %
15.09.2016 05:50 16,4 C 85 % 1010,2 hPa 0,0 l/m 14,4 km/h (3 Bft) O-NO 66 0 min 0,000 mm 0,0 UV-I 0 W/m 13,9 C 13,1 C 22,5 km/h (4 Bft) 98,00 %
15.09.2016 05:52 16,4 C 85 % 1010,2 hPa 0,0 l/m 16,1 km/h (3 Bft) O-NO 66 0 min 0,000 mm 0,0 UV-I 0 W/m 13,9 C 12,6 C 20,9 km/h (4 Bft) 100,00 %
15.09.2016 05:54 16,4 C 85 % 1010,2 hPa 0,0 l/m 14,9 km/h (3 Bft) N-NO 25 0 min 0,000 mm 0,0 UV-I 0 W/m 13,9 C 12,9 C 19,3 km/h (3 Bft) 97,87 %
15.09.2016 05:56 16,4 C 85 % 1010,2 hPa 0,0 l/m 17,4 km/h (3 Bft) O-NO 77 0 min 0,000 mm 0,0 UV-I 0 W/m 13,9 C 12,2 C 27,4 km/h (4 Bft) 97,87 %
15.09.2016 05:58 16,4 C 85 % 1010,2 hPa 0,0 l/m 16,6 km/h (3 Bft) NO 55 0 min 0,000 mm 0,0 UV-I 0 W/m 13,9 C 12,4 C 22,5 km/h (4 Bft) 97,92 %
15.09.2016 06:00 16,4 C 85 % 1010,2 hPa 0,0 l/m 16,3 km/h (3 Bft) O-NO 65 0 min 0,025 mm 0,0 UV-I 0 W/m 13,9 C 12,5 C 22,5 km/h (4 Bft) 97,87 %
15.09.2016 06:02 16,4 C 85 % 1010,2 hPa 0,0 l/m 14,4 km/h (3 Bft) NO 45 0 min 0,000 mm 0,0 UV-I 0 W/m 13,9 C 13,1 C 20,9 km/h (4 Bft) 97,37 %
15.09.2016 06:04 16,4 C 85 % 1010,2 hPa 0,0 l/m 16,6 km/h (3 Bft) O 88 0 min 0,000 mm 0,0 UV-I 0 W/m 13,9 C 12,4 C 24,1 km/h (4 Bft) 97,87 %
15.09.2016 06:06 16,4 C 85 % 1010,2 hPa 0,0 l/m 17,5 km/h (3 Bft) O 80 0 min 0,000 mm 0,0 UV-I 0 W/m 13,9 C 12,2 C 25,7 km/h (4 Bft) 97,87 %
15.09.2016 06:08 16,4 C 85 % 1010,2 hPa 0,0 l/m 16,0 km/h (3 Bft) O-NO 63 0 min 0,000 mm 0,0 UV-I 0 W/m 13,9 C 12,6 C 22,5 km/h (4 Bft) 95,74 %
15.09.2016 06:10 16,4 C 85 % 1010,3 hPa 0,0 l/m 15,4 km/h (3 Bft) O-NO 69 0 min 0,000 mm 0,0 UV-I 0 W/m 13,9 C 12,8 C 24,1 km/h (4 Bft) 97,87 %
15.09.2016 06:12 16,3 C 85 % 1010,3 hPa 0,0 l/m 16,0 km/h (3 Bft) O 84 0 min 0,000 mm 0,0 UV-I 0 W/m 13,8 C 12,5 C 20,9 km/h (4 Bft) 97,87 %
15.09.2016 06:14 16,3 C 85 % 1010,3 hPa 0,0 l/m 12,3 km/h (3 Bft) O-NO 64 0 min 0,000 mm 0,0 UV-I 0 W/m 13,8 C 13,7 C 19,3 km/h (3 Bft) 93,62 %
15.09.2016 06:16 16,3 C 86 % 1010,4 hPa 0,0 l/m 14,7 km/h (3 Bft) O-NO 73 0 min 0,000 mm 0,0 UV-I 0 W/m 14,0 C 12,9 C 20,9 km/h (4 Bft) 93,62 %
15.09.2016 06:18 16,3 C 86 % 1010,3 hPa 0,0 l/m 13,4 km/h (3 Bft) O-NO 74 0 min 0,000 mm 0,0 UV-I 0 W/m 14,0 C 13,3 C 17,7 km/h (3 Bft) 93,62 %
15.09.2016 06:20 16,3 C 86 % 1010,3 hPa 0,0 l/m 17,2 km/h (3 Bft) O-NO 57 0 min 0,000 mm 0,0 UV-I 0 W/m 14,0 C 12,1 C 22,5 km/h (4 Bft) 98,00 %
15.09.2016 06:22 16,2 C 86 % 1010,3 hPa 0,0 l/m 15,5 km/h (3 Bft) O-NO 67 0 min 0,000 mm 0,0 UV-I 0 W/m 13,9 C 12,5 C 20,9 km/h (4 Bft) 97,87 %
15.09.2016 06:24 16,2 C 86 % 1010,4 hPa 0,0 l/m 13,1 km/h (3 Bft) O-NO 58 0 min 0,000 mm 0,0 UV-I 0 W/m 13,9 C 13,3 C 17,7 km/h (3 Bft) 93,62 %
15.09.2016 06:26 16,2 C 86 % 1010,4 hPa 0,0 l/m 14,2 km/h (3 Bft) NO 46 0 min 0,000 mm 0,0 UV-I 0 W/m 13,9 C 12,9 C 19,3 km/h (3 Bft) 91,49 %
15.09.2016 06:28 16,2 C 86 % 1010,4 hPa 0,0 l/m 13,4 km/h (3 Bft) O-NO 67 0 min 0,000 mm 0,0 UV-I 0 W/m 13,9 C 13,2 C 17,7 km/h (3 Bft) 95,74 %
15.09.2016 06:30 16,2 C 86 % 1010,5 hPa 0,0 l/m 14,5 km/h (3 Bft) NO 44 0 min 0,000 mm 0,0 UV-I 0 W/m 13,9 C 12,8 C 19,3 km/h (3 Bft) 100,00 %
15.09.2016 06:32 16,2 C 86 % 1010,5 hPa 0,0 l/m 11,8 km/h (2 Bft) O-NO 59 0 min 0,000 mm 0,0 UV-I 0 W/m 13,9 C 13,7 C 17,7 km/h (3 Bft) 97,87 %
15.09.2016 06:34 16,1 C 86 % 1010,5 hPa 0,0 l/m 13,8 km/h (3 Bft) O-NO 57 0 min 0,000 mm 0,0 UV-I 0 W/m 13,8 C 12,9 C 17,7 km/h (3 Bft) 100,00 %
15.09.2016 06:36 16,1 C 86 % 1010,5 hPa 0,0 l/m 11,3 km/h (2 Bft) O-NO 71 0 min 0,000 mm 0,0 UV-I 0 W/m 13,8 C 13,8 C 16,1 km/h (3 Bft) 100,00 %
15.09.2016 06:38 16,1 C 86 % 1010,5 hPa 0,0 l/m 10,6 km/h (2 Bft) NO 49 0 min 0,000 mm 0,0 UV-I 0 W/m 13,8 C 14,1 C 17,7 km/h (3 Bft) 100,00 %
15.09.2016 06:40 16,1 C 87 % 1010,5 hPa 0,0 l/m 11,2 km/h (2 Bft) O-NO 65 0 min 0,000 mm 0,0 UV-I 4 W/m 13,9 C 13,8 C 16,1 km/h (3 Bft) 100,00 %
15.09.2016 06:42 16,0 C 87 % 1010,6 hPa 0,0 l/m 11,2 km/h (2 Bft) O-NO 58 0 min 0,000 mm 0,0 UV-I 5 W/m 13,8 C 13,7 C 17,7 km/h (3 Bft) 97,87 %
15.09.2016 06:44 16,0 C 87 % 1010,6 hPa 0,0 l/m 12,2 km/h (2 Bft) O-NO 59 0 min 0,000 mm 0,0 UV-I 6 W/m 13,8 C 13,3 C 17,7 km/h (3 Bft) 100,00 %
15.09.2016 06:46 15,9 C 87 % 1010,6 hPa 0,0 l/m 10,3 km/h (2 Bft) O 79 0 min 0,000 mm 0,0 UV-I 7 W/m 13,7 C 14,0 C 14,5 km/h (3 Bft) 100,00 %
15.09.2016 06:48 15,9 C 87 % 1010,6 hPa 0,0 l/m 8,6 km/h (2 Bft) O-NO 61 0 min 0,000 mm 0,0 UV-I 7 W/m 13,7 C 14,8 C 14,5 km/h (3 Bft) 100,00 %
15.09.2016 06:50 15,9 C 87 % 1010,6 hPa 0,0 l/m 9,1 km/h (2 Bft) NO 36 0 min 0,000 mm 0,0 UV-I 9 W/m 13,7 C 14,5 C 16,1 km/h (3 Bft) 100,00 %
15.09.2016 06:52 15,9 C 87 % 1010,6 hPa 0,0 l/m 9,2 km/h (2 Bft) NO 51 2 min 0,000 mm 0,0 UV-I 11 W/m 13,7 C 14,5 C 14,5 km/h (3 Bft) 100,00 %
15.09.2016 06:54 15,8 C 87 % 1010,6 hPa 0,0 l/m 7,9 km/h (2 Bft) O-NO 58 0 min 0,000 mm 0,0 UV-I 12 W/m 13,6 C 15,0 C 12,9 km/h (3 Bft) 100,00 %
15.09.2016 06:56 15,8 C 87 % 1010,6 hPa 0,0 l/m 10,2 km/h (2 Bft) O-NO 63 0 min 0,000 mm 0,0 UV-I 12 W/m 13,6 C 13,9 C 16,1 km/h (3 Bft) 100,00 %
15.09.2016 06:58 15,8 C 87 % 1010,6 hPa 0,0 l/m 7,9 km/h (2 Bft) NO 45 0 min 0,000 mm 0,0 UV-I 14 W/m 13,6 C 15,0 C 14,5 km/h (3 Bft) 100,00 %
15.09.2016 07:00 15,7 C 88 % 1010,5 hPa 0,0 l/m 11,3 km/h (2 Bft) NO 49 0 min 0,026 mm 0,0 UV-I 15 W/m 13,7 C 13,3 C 17,7 km/h (3 Bft) 100,00 %
15.09.2016 07:02 15,7 C 88 % 1010,5 hPa 0,0 l/m 10,9 km/h (2 Bft) O-NO 57 0 min 0,000 mm 0,0 UV-I 17 W/m 13,7 C 13,5 C 17,7 km/h (3 Bft) 100,00 %
15.09.2016 07:04 15,7 C 88 % 1010,5 hPa 0,0 l/m 11,7 km/h (2 Bft) NO 49 0 min 0,000 mm 0,0 UV-I 18 W/m 13,7 C 13,2 C 17,7 km/h (3 Bft) 100,00 %
15.09.2016 07:06 15,7 C 88 % 1010,5 hPa 0,0 l/m 12,2 km/h (2 Bft) NO 53 0 min 0,000 mm 0,0 UV-I 19 W/m 13,7 C 13,0 C 16,1 km/h (3 Bft) 100,00 %
15.09.2016 07:08 15,7 C 88 % 1010,6 hPa 0,0 l/m 13,3 km/h (3 Bft) NO 54 0 min 0,000 mm 0,0 UV-I 20 W/m 13,7 C 12,6 C 19,3 km/h (3 Bft) 100,00 %
15.09.2016 07:10 15,7 C 88 % 1010,6 hPa 0,0 l/m 11,6 km/h (2 Bft) O-NO 65 0 min 0,000 mm 0,0 UV-I 21 W/m 13,7 C 13,2 C 17,7 km/h (3 Bft) 100,00 %
15.09.2016 07:12 15,7 C 88 % 1010,6 hPa 0,0 l/m 13,7 km/h (3 Bft) O-NO 61 0 min 0,000 mm 0,0 UV-I 23 W/m 13,7 C 12,5 C 20,9 km/h (4 Bft) 97,92 %
15.09.2016 07:14 15,7 C 88 % 1010,6 hPa 0,0 l/m 13,3 km/h (3 Bft) O-NO 57 0 min 0,000 mm 0,0 UV-I 25 W/m 13,7 C 12,6 C 20,9 km/h (4 Bft) 100,00 %
15.09.2016 07:16 15,8 C 88 % 1010,6 hPa 0,0 l/m 11,2 km/h (2 Bft) NO 48 0 min 0,000 mm 0,0 UV-I 26 W/m 13,8 C 13,5 C 17,7 km/h (3 Bft) 100,00 %
15.09.2016 07:18 15,8 C 88 % 1010,6 hPa 0,0 l/m 15,0 km/h (3 Bft) O-NO 69 0 min 0,000 mm 0,0 UV-I 26 W/m 13,8 C 12,2 C 19,3 km/h (3 Bft) 100,00 %
15.09.2016 07:20 15,8 C 88 % 1010,6 hPa 0,0 l/m 13,2 km/h (3 Bft) O-NO 73 0 min 0,000 mm 0,0 UV-I 28 W/m 13,8 C 12,8 C 19,3 km/h (3 Bft) 100,00 %
15.09.2016 07:22 15,8 C 88 % 1010,6 hPa 0,0 l/m 11,5 km/h (2 Bft) O-NO 67 0 min 0,000 mm 0,0 UV-I 28 W/m 13,8 C 13,4 C 17,7 km/h (3 Bft) 100,00 %
15.09.2016 07:24 15,8 C 88 % 1010,6 hPa 0,0 l/m 14,8 km/h (3 Bft) O 92 0 min 0,000 mm 0,0 UV-I 30 W/m 13,8 C 12,2 C 24,1 km/h (4 Bft) 95,74 %
15.09.2016 07:26 15,8 C 88 % 1010,8 hPa 0,0 l/m 10,1 km/h (2 Bft) O-NO 73 0 min 0,000 mm 0,0 UV-I 32 W/m 13,8 C 14,0 C 16,1 km/h (3 Bft) 97,87 %
15.09.2016 07:28 15,8 C 88 % 1010,7 hPa 0,0 l/m 10,9 km/h (2 Bft) O 84 0 min 0,000 mm 0,0 UV-I 33 W/m 13,8 C 13,6 C 16,1 km/h (3 Bft) 100,00 %
15.09.2016 07:30 15,8 C 88 % 1010,7 hPa 0,0 l/m 13,4 km/h (3 Bft) O 83 0 min 0,000 mm 0,0 UV-I 46 W/m 13,8 C 12,7 C 19,3 km/h (3 Bft) 97,87 %
15.09.2016 07:32 15,8 C 88 % 1010,6 hPa 0,0 l/m 13,7 km/h (3 Bft) O-NO 63 0 min 0,000 mm 0,0 UV-I 55 W/m 13,8 C 12,6 C 19,3 km/h (3 Bft) 97,87 %
15.09.2016 07:34 15,8 C 88 % 1010,6 hPa 0,0 l/m 14,5 km/h (3 Bft) O-NO 58 0 min 0,000 mm 0,0 UV-I 59 W/m 13,8 C 12,3 C 22,5 km/h (4 Bft) 95,74 %
15.09.2016 07:36 15,9 C 87 % 1010,6 hPa 0,0 l/m 17,2 km/h (3 Bft) NO 47 0 min 0,000 mm 0,0 UV-I 62 W/m 13,7 C 11,6 C 25,7 km/h (4 Bft) 97,87 %
15.09.2016 07:38 15,9 C 87 % 1010,6 hPa 0,0 l/m 15,8 km/h (3 Bft) O-NO 61 0 min 0,000 mm 0,0 UV-I 65 W/m 13,7 C 12,0 C 22,5 km/h (4 Bft) 97,87 %
15.09.2016 07:40 15,9 C 87 % 1010,6 hPa 0,0 l/m 16,2 km/h (3 Bft) O-NO 58 0 min 0,000 mm 0,0 UV-I 68 W/m 13,7 C 11,9 C 22,5 km/h (4 Bft) 95,74 %
15.09.2016 07:42 16,0 C 87 % 1010,6 hPa 0,0 l/m 16,2 km/h (3 Bft) O-NO 60 0 min 0,000 mm 0,0 UV-I 71 W/m 13,8 C 12,0 C 20,9 km/h (4 Bft) 100,00 %
15.09.2016 07:44 16,1 C 87 % 1010,6 hPa 0,0 l/m 15,9 km/h (3 Bft) NO 51 0 min 0,000 mm 0,0 UV-I 75 W/m 13,9 C 12,3 C 20,9 km/h (4 Bft) 97,37 %
15.09.2016 07:46 16,1 C 87 % 1010,6 hPa 0,0 l/m 13,6 km/h (3 Bft) NO 56 0 min 0,000 mm 0,0 UV-I 79 W/m 13,9 C 13,0 C 22,5 km/h (4 Bft) 100,00 %
15.09.2016 07:48 16,1 C 86 % 1010,5 hPa 0,0 l/m 16,1 km/h (3 Bft) O-NO 65 0 min 0,000 mm 0,0 UV-I 83 W/m 13,8 C 12,2 C 22,5 km/h (4 Bft) 100,00 %
15.09.2016 07:50 16,2 C 86 % 1010,5 hPa 0,0 l/m 14,8 km/h (3 Bft) O-NO 63 0 min 0,000 mm 0,0 UV-I 84 W/m 13,9 C 12,7 C 20,9 km/h (4 Bft) 100,00 %
15.09.2016 07:52 16,2 C 86 % 1010,5 hPa 0,0 l/m 15,2 km/h (3 Bft) O-NO 68 0 min 0,000 mm 0,0 UV-I 86 W/m 13,9 C 12,6 C 20,9 km/h (4 Bft) 100,00 %
15.09.2016 07:54 16,2 C 86 % 1010,5 hPa 0,0 l/m 14,9 km/h (3 Bft) NO 51 0 min 0,000 mm 0,0 UV-I 88 W/m 13,9 C 12,7 C 22,5 km/h (4 Bft) 97,87 %
15.09.2016 07:56 16,3 C 86 % 1010,5 hPa 0,0 l/m 15,4 km/h (3 Bft) O-NO 63 0 min 0,000 mm 0,0 UV-I 88 W/m 14,0 C 12,6 C 20,9 km/h (4 Bft) 97,87 %
15.09.2016 07:58 16,3 C 86 % 1010,5 hPa 0,0 l/m 15,8 km/h (3 Bft) O-NO 65 0 min 0,000 mm 0,0 UV-I 90 W/m 14,0 C 12,5 C 22,5 km/h (4 Bft) 97,87 %
15.09.2016 08:00 16,3 C 86 % 1010,5 hPa 0,0 l/m 16,2 km/h (3 Bft) NO 52 0 min 0,050 mm 0,0 UV-I 92 W/m 14,0 C 12,4 C 20,9 km/h (4 Bft) 95,74 %
15.09.2016 08:02 16,4 C 85 % 1010,5 hPa 0,0 l/m 15,0 km/h (3 Bft) O-NO 63 0 min 0,000 mm 0,0 UV-I 99 W/m 13,9 C 12,9 C 22,5 km/h (4 Bft) 98,11 %
15.09.2016 08:04 16,4 C 85 % 1010,6 hPa 0,0 l/m 16,5 km/h (3 Bft) NO 53 0 min 0,000 mm 0,0 UV-I 105 W/m 13,9 C 12,5 C 20,9 km/h (4 Bft) 97,87 %
15.09.2016 08:06 16,4 C 85 % 1010,6 hPa 0,0 l/m 13,0 km/h (3 Bft) O-NO 62 0 min 0,000 mm 0,0 UV-I 113 W/m 13,9 C 13,5 C 19,3 km/h (3 Bft) 95,74 %
15.09.2016 08:08 16,5 C 85 % 1010,6 hPa 0,0 l/m 15,7 km/h (3 Bft) O 92 0 min 0,000 mm 0,0 UV-I 121 W/m 14,0 C 12,8 C 24,1 km/h (4 Bft) 97,87 %
15.09.2016 08:10 16,6 C 85 % 1010,5 hPa 0,0 l/m 18,5 km/h (3 Bft) O 89 0 min 0,000 mm 0,0 UV-I 129 W/m 14,1 C 12,2 C 29,0 km/h (5 Bft) 95,74 %
15.09.2016 08:12 16,6 C 84 % 1010,5 hPa 0,0 l/m 17,6 km/h (3 Bft) O-NO 63 2 min 0,000 mm 0,0 UV-I 138 W/m 13,9 C 12,4 C 27,4 km/h (4 Bft) 97,87 %
15.09.2016 08:14 16,7 C 84 % 1010,5 hPa 0,0 l/m 15,1 km/h (3 Bft) O-NO 76 2 min 0,000 mm 0,0 UV-I 144 W/m 14,0 C 13,2 C 22,5 km/h (4 Bft) 97,37 %
15.09.2016 08:16 16,7 C 84 % 1010,5 hPa 0,0 l/m 14,8 km/h (3 Bft) NO 52 2 min 0,000 mm 0,0 UV-I 154 W/m 14,0 C 13,3 C 22,5 km/h (4 Bft) 97,87 %
15.09.2016 08:18 16,8 C 84 % 1010,4 hPa 0,0 l/m 14,7 km/h (3 Bft) O-NO 65 2 min 0,000 mm 0,0 UV-I 160 W/m 14,1 C 13,5 C 22,5 km/h (4 Bft) 98,00 %
15.09.2016 08:20 16,8 C 84 % 1010,5 hPa 0,0 l/m 15,9 km/h (3 Bft) O-NO 58 2 min 0,000 mm 0,0 UV-I 169 W/m 14,1 C 13,1 C 25,7 km/h (4 Bft) 95,74 %
15.09.2016 08:22 16,8 C 84 % 1010,5 hPa 0,0 l/m 15,9 km/h (3 Bft) O 83 2 min 0,000 mm 0,0 UV-I 177 W/m 14,1 C 13,1 C 22,5 km/h (4 Bft) 95,74 %
15.09.2016 08:24 16,9 C 84 % 1010,5 hPa 0,0 l/m 16,7 km/h (3 Bft) NO 49 2 min 0,000 mm 0,0 UV-I 185 W/m 14,2 C 13,0 C 24,1 km/h (4 Bft) 97,87 %
15.09.2016 08:26 16,9 C 84 % 1010,5 hPa 0,0 l/m 11,9 km/h (2 Bft) NO 51 2 min 0,000 mm 0,0 UV-I 192 W/m 14,2 C 14,5 C 17,7 km/h (3 Bft) 100,00 %
15.09.2016 08:28 17,0 C 84 % 1010,5 hPa 0,0 l/m 11,0 km/h (2 Bft) NO 53 2 min 0,000 mm 0,1 UV-I 199 W/m 14,3 C 14,9 C 17,7 km/h (3 Bft) 100,00 %
15.09.2016 08:30 17,1 C 83 % 1010,4 hPa 0,0 l/m 13,7 km/h (3 Bft) O-NO 59 2 min 0,000 mm 0,5 UV-I 206 W/m 14,2 C 14,1 C 20,9 km/h (4 Bft) 97,87 %
15.09.2016 08:32 17,1 C 83 % 1010,5 hPa 0,0 l/m 17,9 km/h (3 Bft) NO 49 2 min 0,000 mm 0,5 UV-I 213 W/m 14,2 C 13,0 C 27,4 km/h (4 Bft) 97,87 %
15.09.2016 08:34 17,1 C 83 % 1010,5 hPa 0,0 l/m 18,0 km/h (3 Bft) NO 49 2 min 0,000 mm 0,5 UV-I 217 W/m 14,2 C 12,9 C 24,1 km/h (4 Bft) 95,92 %
15.09.2016 08:36 17,1 C 82 % 1010,5 hPa 0,0 l/m 16,7 km/h (3 Bft) NO 39 2 min 0,000 mm 0,5 UV-I 222 W/m 14,0 C 13,3 C 24,1 km/h (4 Bft) 100,00 %
15.09.2016 08:38 17,2 C 82 % 1010,5 hPa 0,0 l/m 14,0 km/h (3 Bft) O-NO 64 2 min 0,000 mm 0,5 UV-I 227 W/m 14,1 C 14,2 C 19,3 km/h (3 Bft) 100,00 %
15.09.2016 08:40 17,2 C 82 % 1010,5 hPa 0,0 l/m 18,5 km/h (3 Bft) O-NO 76 2 min 0,000 mm 0,6 UV-I 233 W/m 14,1 C 12,9 C 27,4 km/h (4 Bft) 97,87 %
15.09.2016 08:42 17,3 C 82 % 1010,5 hPa 0,0 l/m 14,0 km/h (3 Bft) NO 46 2 min 0,000 mm 0,6 UV-I 240 W/m 14,2 C 14,3 C 22,5 km/h (4 Bft) 100,00 %
15.09.2016 08:44 17,3 C 81 % 1010,5 hPa 0,0 l/m 19,8 km/h (3 Bft) NO 54 2 min 0,000 mm 0,6 UV-I 242 W/m 14,0 C 12,8 C 25,7 km/h (4 Bft) 100,00 %
15.09.2016 08:46 17,3 C 82 % 1010,5 hPa 0,0 l/m 16,6 km/h (3 Bft) NO 34 2 min 0,000 mm 0,6 UV-I 248 W/m 14,2 C 13,5 C 22,5 km/h (4 Bft) 100,00 %
15.09.2016 08:48 17,4 C 82 % 1010,5 hPa 0,0 l/m 18,0 km/h (3 Bft) NO 51 2 min 0,000 mm 0,6 UV-I 257 W/m 14,3 C 13,3 C 24,1 km/h (4 Bft) 100,00 %
15.09.2016 08:50 17,4 C 81 % 1010,5 hPa 0,0 l/m 20,2 km/h (4 Bft) NO 40 2 min 0,000 mm 0,7 UV-I 261 W/m 14,1 C 12,8 C 27,4 km/h (4 Bft) 97,87 %
15.09.2016 08:52 17,5 C 81 % 1010,6 hPa 0,0 l/m 19,6 km/h (3 Bft) O-NO 63 2 min 0,000 mm 0,7 UV-I 265 W/m 14,2 C 13,1 C 27,4 km/h (4 Bft) 97,87 %
15.09.2016 08:54 17,6 C 81 % 1010,6 hPa 0,0 l/m 18,5 km/h (3 Bft) O-NO 67 2 min 0,000 mm 0,7 UV-I 270 W/m 14,3 C 13,4 C 22,5 km/h (4 Bft) 100,00 %
15.09.2016 08:56 17,6 C 81 % 1010,6 hPa 0,0 l/m 16,0 km/h (3 Bft) O-NO 59 2 min 0,000 mm 0,7 UV-I 278 W/m 14,3 C 14,1 C 20,9 km/h (4 Bft) 100,00 %
15.09.2016 08:58 17,7 C 81 % 1010,5 hPa 0,0 l/m 13,8 km/h (3 Bft) O-NO 76 2 min 0,000 mm 0,8 UV-I 282 W/m 14,4 C 14,8 C 20,9 km/h (4 Bft) 98,00 %
15.09.2016 09:00 17,8 C 81 % 1010,6 hPa 0,0 l/m 14,8 km/h (3 Bft) NO 51 2 min 0,153 mm 0,8 UV-I 288 W/m 14,5 C 14,6 C 22,5 km/h (4 Bft) 97,87 %
15.09.2016 09:02 17,8 C 80 % 1010,6 hPa 0,0 l/m 14,0 km/h (3 Bft) O-NO 77 2 min 0,000 mm 0,8 UV-I 293 W/m 14,3 C 14,9 C 20,9 km/h (4 Bft) 100,00 %
15.09.2016 09:04 17,9 C 80 % 1010,6 hPa 0,0 l/m 12,0 km/h (2 Bft) O-NO 76 2 min 0,000 mm 0,8 UV-I 298 W/m 14,4 C 15,6 C 17,7 km/h (3 Bft) 97,87 %
15.09.2016 09:06 18,0 C 80 % 1010,6 hPa 0,0 l/m 14,0 km/h (3 Bft) O-NO 61 2 min 0,000 mm 0,9 UV-I 302 W/m 14,5 C 15,1 C 20,9 km/h (4 Bft) 100,00 %
15.09.2016 09:08 18,1 C 79 % 1010,5 hPa 0,0 l/m 16,0 km/h (3 Bft) NO 44 2 min 0,000 mm 0,9 UV-I 309 W/m 14,4 C 14,7 C 20,9 km/h (4 Bft) 100,00 %
15.09.2016 09:10 18,1 C 78 % 1010,5 hPa 0,0 l/m 20,0 km/h (4 Bft) O-NO 69 2 min 0,000 mm 0,9 UV-I 315 W/m 14,2 C 13,8 C 27,4 km/h (4 Bft) 100,00 %
15.09.2016 09:12 18,1 C 79 % 1010,6 hPa 0,0 l/m 17,1 km/h (3 Bft) N-NO 30 2 min 0,000 mm 0,9 UV-I 317 W/m 14,4 C 14,4 C 25,7 km/h (4 Bft) 97,92 %
15.09.2016 09:14 18,2 C 79 % 1010,6 hPa 0,0 l/m 13,3 km/h (3 Bft) O-NO 71 2 min 0,000 mm 1,0 UV-I 325 W/m 14,5 C 15,6 C 17,7 km/h (3 Bft) 97,87 %
15.09.2016 09:16 18,3 C 78 % 1010,6 hPa 0,0 l/m 15,8 km/h (3 Bft) O-NO 68 2 min 0,000 mm 1,0 UV-I 330 W/m 14,4 C 15,0 C 22,5 km/h (4 Bft) 95,74 %
15.09.2016 09:18 18,4 C 78 % 1010,6 hPa 0,0 l/m 14,9 km/h (3 Bft) NO 46 2 min 0,000 mm 1,0 UV-I 333 W/m 14,5 C 15,3 C 22,5 km/h (4 Bft) 97,87 %
15.09.2016 09:20 18,5 C 78 % 1010,6 hPa 0,0 l/m 16,1 km/h (3 Bft) O-NO 69 2 min 0,000 mm 1,1 UV-I 338 W/m 14,6 C 15,1 C 22,5 km/h (4 Bft) 97,87 %
15.09.2016 09:22 18,5 C 77 % 1010,6 hPa 0,0 l/m 20,0 km/h (4 Bft) O-NO 68 2 min 0,000 mm 1,1 UV-I 342 W/m 14,4 C 14,3 C 27,4 km/h (4 Bft) 98,00 %
15.09.2016 09:24 18,5 C 77 % 1010,6 hPa 0,0 l/m 19,1 km/h (3 Bft) O-NO 78 2 min 0,000 mm 1,1 UV-I 349 W/m 14,4 C 14,5 C 25,7 km/h (4 Bft) 100,00 %
15.09.2016 09:26 18,6 C 76 % 1010,6 hPa 0,0 l/m 17,8 km/h (3 Bft) O-NO 76 2 min 0,000 mm 1,2 UV-I 355 W/m 14,3 C 14,9 C 25,7 km/h (4 Bft) 97,14 %
15.09.2016 09:28 18,7 C 77 % 1010,5 hPa 0,0 l/m 14,9 km/h (3 Bft) NO 52 2 min 0,000 mm 1,2 UV-I 360 W/m 14,6 C 15,7 C 20,9 km/h (4 Bft) 100,00 %
15.09.2016 09:30 18,7 C 77 % 1010,6 hPa 0,0 l/m 15,8 km/h (3 Bft) O-NO 69 2 min 0,000 mm 1,2 UV-I 365 W/m 14,6 C 15,5 C 20,9 km/h (4 Bft) 97,87 %
15.09.2016 09:32 18,8 C 76 % 1010,5 hPa 0,0 l/m 16,0 km/h (3 Bft) NO 45 2 min 0,000 mm 1,2 UV-I 369 W/m 14,5 C 15,5 C 19,3 km/h (3 Bft) 100,00 %
15.09.2016 09:34 18,8 C 76 % 1010,5 hPa 0,0 l/m 14,6 km/h (3 Bft) NO 36 2 min 0,000 mm 1,3 UV-I 374 W/m 14,5 C 15,9 C 22,5 km/h (4 Bft) 100,00 %
15.09.2016 09:36 18,8 C 76 % 1010,5 hPa 0,0 l/m 13,1 km/h (3 Bft) NO 53 2 min 0,000 mm 1,3 UV-I 379 W/m 14,5 C 16,3 C 24,1 km/h (4 Bft) 100,00 %
15.09.2016 09:38 18,9 C 75 % 1010,5 hPa 0,0 l/m 19,0 km/h (3 Bft) O-NO 67 2 min 0,000 mm 1,3 UV-I 381 W/m 14,4 C 15,0 C 25,7 km/h (4 Bft) 100,00 %
15.09.2016 09:40 18,9 C 75 % 1010,6 hPa 0,0 l/m 19,0 km/h (3 Bft) NO 46 2 min 0,000 mm 1,3 UV-I 386 W/m 14,4 C 15,0 C 25,7 km/h (4 Bft) 100,00 %
15.09.2016 09:42 18,9 C 75 % 1010,6 hPa 0,0 l/m 13,4 km/h (3 Bft) O-NO 57 2 min 0,000 mm 1,4 UV-I 392 W/m 14,4 C 16,3 C 19,3 km/h (3 Bft) 97,87 %
15.09.2016 09:44 19,0 C 75 % 1010,5 hPa 0,0 l/m 15,9 km/h (3 Bft) N-NO 28 2 min 0,000 mm 1,4 UV-I 396 W/m 14,5 C 15,8 C 22,5 km/h (4 Bft) 100,00 %
15.09.2016 09:46 19,1 C 75 % 1010,6 hPa 0,0 l/m 14,3 km/h (3 Bft) O-NO 63 2 min 0,000 mm 1,4 UV-I 400 W/m 14,6 C 16,3 C 22,5 km/h (4 Bft) 97,87 %
15.09.2016 09:48 19,2 C 75 % 1010,6 hPa 0,0 l/m 13,4 km/h (3 Bft) O-NO 63 2 min 0,000 mm 1,5 UV-I 405 W/m 14,7 C 16,7 C 19,3 km/h (3 Bft) 97,87 %
15.09.2016 09:50 19,3 C 74 % 1010,6 hPa 0,0 l/m 15,8 km/h (3 Bft) O-NO 77 2 min 0,000 mm 1,5 UV-I 408 W/m 14,5 C 16,2 C 20,9 km/h (4 Bft) 97,87 %
15.09.2016 09:52 19,4 C 74 % 1010,6 hPa 0,0 l/m 14,8 km/h (3 Bft) O-NO 73 2 min 0,000 mm 1,6 UV-I 413 W/m 14,6 C 16,6 C 22,5 km/h (4 Bft) 95,83 %
15.09.2016 09:54 19,4 C 73 % 1010,6 hPa 0,0 l/m 18,4 km/h (3 Bft) NO 45 2 min 0,000 mm 1,6 UV-I 418 W/m 14,4 C 15,8 C 25,7 km/h (4 Bft) 97,87 %
15.09.2016 09:56 19,4 C 73 % 1010,6 hPa 0,0 l/m 16,8 km/h (3 Bft) O 83 2 min 0,000 mm 1,6 UV-I 422 W/m 14,4 C 16,1 C 20,9 km/h (4 Bft) 94,00 %
15.09.2016 09:58 19,4 C 73 % 1010,6 hPa 0,0 l/m 16,2 km/h (3 Bft) NO 38 2 min 0,000 mm 1,7 UV-I 430 W/m 14,4 C 16,2 C 20,9 km/h (4 Bft) 97,87 %
15.09.2016 10:00 19,6 C 73 % 1010,5 hPa 0,0 l/m 17,5 km/h (3 Bft) O-NO 67 2 min 0,254 mm 1,7 UV-I 435 W/m 14,6 C 16,2 C 25,7 km/h (4 Bft) 95,74 %
15.09.2016 10:02 19,7 C 73 % 1010,6 hPa 0,0 l/m 15,2 km/h (3 Bft) O-NO 72 2 min 0,000 mm 1,7 UV-I 441 W/m 14,7 C 16,8 C 20,9 km/h (4 Bft) 93,62 %
15.09.2016 10:04 19,8 C 73 % 1010,6 hPa 0,0 l/m 11,8 km/h (2 Bft) O-NO 59 2 min 0,000 mm 1,8 UV-I 444 W/m 14,8 C 17,9 C 19,3 km/h (3 Bft) 95,74 %
15.09.2016 10:06 19,8 C 72 % 1010,6 hPa 0,0 l/m 14,9 km/h (3 Bft) O-NO 60 2 min 0,000 mm 1,8 UV-I 449 W/m 14,6 C 17,0 C 19,3 km/h (3 Bft) 95,74 %
15.09.2016 10:08 19,8 C 72 % 1010,6 hPa 0,0 l/m 17,1 km/h (3 Bft) NO 42 2 min 0,000 mm 1,8 UV-I 454 W/m 14,6 C 16,5 C 22,5 km/h (4 Bft) 100,00 %
15.09.2016 10:10 19,9 C 72 % 1010,5 hPa 0,0 l/m 11,2 km/h (2 Bft) NO 40 2 min 0,000 mm 1,9 UV-I 461 W/m 14,7 C 18,2 C 19,3 km/h (3 Bft) 97,87 %
15.09.2016 10:12 20,1 C 71 % 1010,5 hPa 0,0 l/m 11,9 km/h (2 Bft) O-NO 62 2 min 0,000 mm 1,9 UV-I 467 W/m 14,7 C 18,2 C 17,7 km/h (3 Bft) 95,74 %
15.09.2016 10:14 20,2 C 71 % 1010,5 hPa 0,0 l/m 15,3 km/h (3 Bft) O-NO 67 2 min 0,000 mm 1,9 UV-I 470 W/m 14,8 C 17,4 C 19,3 km/h (3 Bft) 93,62 %
15.09.2016 10:16 20,3 C 71 % 1010,5 hPa 0,0 l/m 13,1 km/h (3 Bft) O-NO 74 2 min 0,000 mm 2,0 UV-I 475 W/m 14,9 C 18,1 C 19,3 km/h (3 Bft) 98,00 %
15.09.2016 10:18 20,3 C 70 % 1010,5 hPa 0,0 l/m 15,2 km/h (3 Bft) O-NO 69 2 min 0,000 mm 2,0 UV-I 480 W/m 14,6 C 17,6 C 20,9 km/h (4 Bft) 100,00 %
15.09.2016 10:20 20,4 C 72 % 1010,5 hPa 0,0 l/m 14,3 km/h (3 Bft) NO 48 2 min 0,000 mm 2,1 UV-I 485 W/m 15,2 C 17,9 C 19,3 km/h (3 Bft) 96,00 %
15.09.2016 10:22 20,5 C 70 % 1010,4 hPa 0,0 l/m 13,0 km/h (3 Bft) NO 48 2 min 0,000 mm 2,1 UV-I 489 W/m 14,8 C 18,3 C 17,7 km/h (3 Bft) 100,00 %
15.09.2016 10:24 20,6 C 70 % 1010,4 hPa 0,0 l/m 12,7 km/h (3 Bft) O-NO 67 2 min 0,000 mm 2,1 UV-I 495 W/m 14,9 C 18,5 C 17,7 km/h (3 Bft) 100,00 %
15.09.2016 10:26 20,7 C 70 % 1010,4 hPa 0,0 l/m 12,3 km/h (3 Bft) O-NO 57 2 min 0,000 mm 2,2 UV-I 498 W/m 15,0 C 18,8 C 17,7 km/h (3 Bft) 100,00 %
15.09.2016 10:28 20,8 C 70 % 1010,4 hPa 0,0 l/m 11,5 km/h (2 Bft) NO 36 2 min 0,000 mm 2,2 UV-I 503 W/m 15,1 C 19,1 C 17,7 km/h (3 Bft) 95,74 %
15.09.2016 10:30 20,9 C 69 % 1010,4 hPa 0,0 l/m 11,7 km/h (2 Bft) NO 49 2 min 0,000 mm 2,2 UV-I 508 W/m 15,0 C 19,1 C 16,1 km/h (3 Bft) 100,00 %
15.09.2016 10:32 20,9 C 69 % 1010,5 hPa 0,0 l/m 12,4 km/h (3 Bft) O 81 2 min 0,000 mm 2,2 UV-I 512 W/m 15,0 C 19,0 C 17,7 km/h (3 Bft) 100,00 %
15.09.2016 10:34 20,9 C 69 % 1010,4 hPa 0,0 l/m 14,3 km/h (3 Bft) NO 49 2 min 0,000 mm 2,3 UV-I 515 W/m 15,0 C 18,5 C 19,3 km/h (3 Bft) 97,87 %
15.09.2016 10:36 20,9 C 69 % 1010,4 hPa 0,0 l/m 12,1 km/h (2 Bft) NO 34 2 min 0,000 mm 2,3 UV-I 519 W/m 15,0 C 19,0 C 19,3 km/h (3 Bft) 97,87 %
15.09.2016 10:38 21,0 C 70 % 1010,4 hPa 0,0 l/m 10,2 km/h (2 Bft) N-NO 33 2 min 0,000 mm 2,4 UV-I 524 W/m 15,3 C 19,7 C 19,3 km/h (3 Bft) 100,00 %
15.09.2016 10:40 21,1 C 69 % 1010,4 hPa 0,0 l/m 12,1 km/h (2 Bft) O-NO 67 2 min 0,000 mm 2,4 UV-I 526 W/m 15,2 C 19,3 C 19,3 km/h (3 Bft) 100,00 %
15.09.2016 10:42 21,2 C 68 % 1010,5 hPa 0,0 l/m 14,5 km/h (3 Bft) NO 40 2 min 0,000 mm 2,4 UV-I 531 W/m 15,1 C 18,8 C 20,9 km/h (4 Bft) 97,87 %
15.09.2016 10:44 21,2 C 69 % 1010,5 hPa 0,0 l/m 9,6 km/h (2 Bft) NO 55 2 min 0,000 mm 2,5 UV-I 536 W/m 15,3 C 20,1 C 14,5 km/h (3 Bft) 100,00 %
15.09.2016 10:46 21,3 C 69 % 1010,5 hPa 0,0 l/m 9,7 km/h (2 Bft) NO 39 2 min 0,000 mm 2,5 UV-I 537 W/m 15,4 C 20,2 C 17,7 km/h (3 Bft) 100,00 %
15.09.2016 10:48 21,4 C 68 % 1010,5 hPa 0,0 l/m 10,0 km/h (2 Bft) NO 44 2 min 0,000 mm 2,5 UV-I 541 W/m 15,2 C 20,2 C 17,7 km/h (3 Bft) 100,00 %
15.09.2016 10:50 21,4 C 68 % 1010,5 hPa 0,0 l/m 10,3 km/h (2 Bft) NO 40 2 min 0,000 mm 2,6 UV-I 330 W/m 15,2 C 20,1 C 16,1 km/h (3 Bft) 100,00 %
15.09.2016 10:52 21,6 C 67 % 1010,5 hPa 0,0 l/m 11,9 km/h (2 Bft) O-NO 65 2 min 0,000 mm 2,6 UV-I 541 W/m 15,2 C 19,9 C 17,7 km/h (3 Bft) 100,00 %
15.09.2016 10:54 21,5 C 68 % 1010,5 hPa 0,0 l/m 13,1 km/h (3 Bft) O-NO 78 2 min 0,000 mm 2,6 UV-I 551 W/m 15,3 C 19,5 C 17,7 km/h (3 Bft) 100,00 %
15.09.2016 10:56 21,5 C 67 % 1010,5 hPa 0,0 l/m 10,8 km/h (2 Bft) NO 46 2 min 0,000 mm 2,7 UV-I 555 W/m 15,1 C 20,1 C 16,1 km/h (3 Bft) 97,87 %
15.09.2016 10:58 21,6 C 67 % 1010,5 hPa 0,0 l/m 14,3 km/h (3 Bft) O-NO 63 2 min 0,000 mm 2,7 UV-I 560 W/m 15,2 C 19,3 C 20,9 km/h (4 Bft) 100,00 %
15.09.2016 11:00 21,6 C 67 % 1010,4 hPa 0,0 l/m 15,2 km/h (3 Bft) NO 43 2 min 0,355 mm 2,7 UV-I 564 W/m 15,2 C 19,1 C 22,5 km/h (4 Bft) 100,00 %
15.09.2016 11:02 21,7 C 66 % 1010,4 hPa 0,0 l/m 12,5 km/h (3 Bft) O-NO 59 2 min 0,000 mm 2,8 UV-I 568 W/m 15,1 C 19,9 C 17,7 km/h (3 Bft) 100,00 %
15.09.2016 11:04 21,7 C 67 % 1010,4 hPa 0,0 l/m 10,9 km/h (2 Bft) NO 47 2 min 0,000 mm 2,8 UV-I 571 W/m 15,3 C 20,3 C 16,1 km/h (3 Bft) 100,00 %
15.09.2016 11:06 21,8 C 67 % 1010,3 hPa 0,0 l/m 15,6 km/h (3 Bft) NO 53 2 min 0,000 mm 2,8 UV-I 575 W/m 15,4 C 19,3 C 24,1 km/h (4 Bft) 100,00 %
15.09.2016 11:08 21,9 C 67 % 1010,3 hPa 0,0 l/m 13,2 km/h (3 Bft) O 80 2 min 0,000 mm 2,9 UV-I 577 W/m 15,5 C 19,9 C 19,3 km/h (3 Bft) 100,00 %
15.09.2016 11:10 22,1 C 66 % 1010,3 hPa 0,0 l/m 11,8 km/h (2 Bft) O-NO 71 2 min 0,000 mm 2,9 UV-I 580 W/m 15,4 C 20,5 C 20,9 km/h (4 Bft) 97,87 %
15.09.2016 11:12 22,1 C 65 % 1010,3 hPa 0,0 l/m 12,3 km/h (3 Bft) NO 41 2 min 0,000 mm 2,9 UV-I 583 W/m 15,2 C 20,4 C 22,5 km/h (4 Bft) 100,00 %
15.09.2016 11:14 22,1 C 65 % 1010,3 hPa 0,0 l/m 16,0 km/h (3 Bft) NO 41 2 min 0,000 mm 2,9 UV-I 586 W/m 15,2 C 19,6 C 24,1 km/h (4 Bft) 100,00 %
15.09.2016 11:16 22,1 C 65 % 1010,3 hPa 0,0 l/m 16,1 km/h (3 Bft) O-NO 63 2 min 0,000 mm 3,0 UV-I 591 W/m 15,2 C 19,6 C 22,5 km/h (4 Bft) 100,00 %
15.09.2016 11:18 22,1 C 67 % 1010,2 hPa 0,0 l/m 14,5 km/h (3 Bft) O-NO 66 2 min 0,000 mm 3,0 UV-I 592 W/m 15,7 C 19,9 C 17,7 km/h (3 Bft) 100,00 %
15.09.2016 11:20 22,2 C 64 % 1010,2 hPa 0,0 l/m 15,2 km/h (3 Bft) O-NO 63 2 min 0,000 mm 3,0 UV-I 596 W/m 15,1 C 19,9 C 24,1 km/h (4 Bft) 100,00 %
15.09.2016 11:22 22,2 C 65 % 1010,3 hPa 0,0 l/m 11,2 km/h (2 Bft) O 82 2 min 0,000 mm 3,1 UV-I 598 W/m 15,3 C 20,8 C 16,1 km/h (3 Bft) 97,87 %
15.09.2016 11:24 22,4 C 66 % 1010,3 hPa 0,0 l/m 13,1 km/h (3 Bft) O-NO 73 2 min 0,000 mm 3,1 UV-I 601 W/m 15,7 C 20,5 C 17,7 km/h (3 Bft) 98,00 %
15.09.2016 11:26 22,6 C 65 % 1010,2 hPa 0,0 l/m 9,1 km/h (2 Bft) N-NO 27 2 min 0,000 mm 3,1 UV-I 603 W/m 15,7 C 21,8 C 16,1 km/h (3 Bft) 100,00 %
15.09.2016 11:28 22,8 C 66 % 1010,2 hPa 0,0 l/m 8,6 km/h (2 Bft) O 88 2 min 0,000 mm 3,1 UV-I 606 W/m 16,1 C 22,1 C 16,1 km/h (3 Bft) 97,96 %
15.09.2016 11:30 22,8 C 64 % 1010,3 hPa 0,0 l/m 13,2 km/h (3 Bft) NO 48 2 min 0,000 mm 3,2 UV-I 609 W/m 15,6 C 21,0 C 19,3 km/h (3 Bft) 100,00 %
15.09.2016 11:32 22,8 C 65 % 1010,3 hPa 0,0 l/m 13,1 km/h (3 Bft) O-NO 65 2 min 0,000 mm 3,2 UV-I 610 W/m 15,9 C 21,0 C 20,9 km/h (4 Bft) 97,87 %
15.09.2016 11:34 22,7 C 65 % 1010,3 hPa 0,0 l/m 12,2 km/h (2 Bft) O-NO 63 2 min 0,000 mm 3,2 UV-I 613 W/m 15,8 C 21,1 C 17,7 km/h (3 Bft) 97,14 %
15.09.2016 11:36 22,7 C 66 % 1010,3 hPa 0,0 l/m 9,3 km/h (2 Bft) NO 49 2 min 0,000 mm 3,2 UV-I 615 W/m 16,0 C 21,8 C 14,5 km/h (3 Bft) 100,00 %
15.09.2016 11:38 22,8 C 64 % 1010,3 hPa 0,0 l/m 15,1 km/h (3 Bft) O-NO 70 2 min 0,000 mm 3,3 UV-I 617 W/m 15,6 C 20,6 C 19,3 km/h (3 Bft) 96,15 %
15.09.2016 11:40 22,8 C 64 % 1010,3 hPa 0,0 l/m 13,8 km/h (3 Bft) NO 46 2 min 0,000 mm 3,3 UV-I 620 W/m 15,6 C 20,9 C 19,3 km/h (3 Bft) 97,87 %
15.09.2016 11:42 22,8 C 63 % 1010,3 hPa 0,0 l/m 16,2 km/h (3 Bft) O-NO 66 2 min 0,000 mm 3,3 UV-I 621 W/m 15,4 C 20,4 C 20,9 km/h (4 Bft) 97,87 %
15.09.2016 11:44 22,8 C 64 % 1010,3 hPa 0,0 l/m 14,7 km/h (3 Bft) NO 55 2 min 0,000 mm 3,3 UV-I 625 W/m 15,6 C 20,7 C 19,3 km/h (3 Bft) 97,87 %
15.09.2016 11:46 22,8 C 64 % 1010,3 hPa 0,0 l/m 13,0 km/h (3 Bft) O-NO 70 2 min 0,000 mm 3,3 UV-I 627 W/m 15,6 C 21,0 C 17,7 km/h (3 Bft) 97,87 %
15.09.2016 11:48 22,8 C 65 % 1010,3 hPa 0,0 l/m 14,5 km/h (3 Bft) NO 46 2 min 0,000 mm 3,4 UV-I 627 W/m 15,9 C 20,7 C 19,3 km/h (3 Bft) 95,83 %
15.09.2016 11:50 22,9 C 65 % 1010,3 hPa 0,0 l/m 13,5 km/h (3 Bft) O 89 2 min 0,000 mm 3,4 UV-I 630 W/m 16,0 C 21,1 C 19,3 km/h (3 Bft) 97,87 %
15.09.2016 11:52 23,1 C 64 % 1010,4 hPa 0,0 l/m 11,9 km/h (2 Bft) NO 54 2 min 0,000 mm 3,4 UV-I 633 W/m 15,9 C 21,6 C 17,7 km/h (3 Bft) 96,00 %
15.09.2016 11:54 23,2 C 62 % 1010,4 hPa 0,0 l/m 13,0 km/h (3 Bft) O-NO 58 2 min 0,000 mm 3,4 UV-I 635 W/m 15,5 C 21,5 C 17,7 km/h (3 Bft) 97,87 %
15.09.2016 11:56 23,2 C 63 % 1010,4 hPa 0,0 l/m 12,3 km/h (3 Bft) O 80 2 min 0,000 mm 3,5 UV-I 636 W/m 15,8 C 21,7 C 19,3 km/h (3 Bft) 97,87 %
15.09.2016 11:58 23,2 C 63 % 1010,3 hPa 0,0 l/m 10,7 km/h (2 Bft) O 96 2 min 0,000 mm 3,5 UV-I 638 W/m 15,8 C 22,0 C 16,1 km/h (3 Bft) 97,87 %
15.09.2016 12:00 23,2 C 64 % 1010,3 hPa 0,0 l/m 10,5 km/h (2 Bft) O 90 2 min 0,432 mm 3,5 UV-I 641 W/m 16,0 C 22,1 C 16,1 km/h (3 Bft) 95,74 %
15.09.2016 12:02 23,3 C 64 % 1010,2 hPa 0,0 l/m 9,8 km/h (2 Bft) O 80 2 min 0,000 mm 3,5 UV-I 643 W/m 16,1 C 22,3 C 16,1 km/h (3 Bft) 95,74 %
15.09.2016 12:04 23,7 C 65 % 1010,2 hPa 0,0 l/m 11,7 km/h (2 Bft) NO 53 2 min 0,000 mm 3,6 UV-I 644 W/m 16,7 C 22,4 C 19,3 km/h (3 Bft) 95,74 %
15.09.2016 12:06 23,7 C 61 % 1010,2 hPa 0,0 l/m 11,2 km/h (2 Bft) NO 52 2 min 0,000 mm 3,6 UV-I 647 W/m 15,7 C 22,5 C 16,1 km/h (3 Bft) 95,74 %
15.09.2016 12:08 23,7 C 62 % 1010,2 hPa 0,0 l/m 6,9 km/h (2 Bft) NO 36 2 min 0,000 mm 3,6 UV-I 645 W/m 16,0 C 23,6 C 11,3 km/h (2 Bft) 97,87 %
15.09.2016 12:10 23,9 C 65 % 1010,2 hPa 0,0 l/m 11,9 km/h (2 Bft) NO 53 2 min 0,000 mm 3,6 UV-I 650 W/m 16,9 C 22,5 C 17,7 km/h (3 Bft) 95,74 %
15.09.2016 12:12 24,0 C 62 % 1010,2 hPa 0,0 l/m 12,2 km/h (2 Bft) O-NO 76 2 min 0,000 mm 3,6 UV-I 650 W/m 16,3 C 22,6 C 17,7 km/h (3 Bft) 100,00 %
15.09.2016 12:14 23,9 C 63 % 1010,1 hPa 0,0 l/m 6,4 km/h (2 Bft) O 80 2 min 0,000 mm 3,6 UV-I 651 W/m 16,4 C 23,9 C 12,9 km/h (3 Bft) 97,87 %
15.09.2016 12:16 24,0 C 62 % 1010,2 hPa 0,0 l/m 11,3 km/h (2 Bft) NO 48 2 min 0,000 mm 3,7 UV-I 652 W/m 16,3 C 22,8 C 17,7 km/h (3 Bft) 100,00 %
15.09.2016 12:18 24,1 C 63 % 1010,1 hPa 0,0 l/m 9,6 km/h (2 Bft) N-NW 341 2 min 0,000 mm 3,7 UV-I 653 W/m 16,6 C 23,3 C 14,5 km/h (3 Bft) 100,00 %
15.09.2016 12:20 24,3 C 61 % 1010,2 hPa 0,0 l/m 11,7 km/h (2 Bft) NO 38 2 min 0,000 mm 3,7 UV-I 654 W/m 16,3 C 23,0 C 19,3 km/h (3 Bft) 100,00 %
15.09.2016 12:22 24,3 C 61 % 1010,1 hPa 0,0 l/m 10,8 km/h (2 Bft) NO 45 2 min 0,000 mm 3,7 UV-I 656 W/m 16,3 C 23,2 C 16,1 km/h (3 Bft) 100,00 %
15.09.2016 12:24 24,2 C 61 % 1010,1 hPa 0,0 l/m 11,7 km/h (2 Bft) O-NO 62 2 min 0,000 mm 3,7 UV-I 657 W/m 16,2 C 22,9 C 17,7 km/h (3 Bft) 98,00 %
15.09.2016 12:26 24,1 C 64 % 1010,1 hPa 0,0 l/m 13,4 km/h (3 Bft) NO 46 2 min 0,000 mm 3,7 UV-I 657 W/m 16,9 C 22,5 C 17,7 km/h (3 Bft) 100,00 %
15.09.2016 12:28 24,2 C 62 % 1010,1 hPa 0,0 l/m 11,8 km/h (2 Bft) O-NO 59 2 min 0,000 mm 3,7 UV-I 657 W/m 16,4 C 22,9 C 16,1 km/h (3 Bft) 97,92 %
15.09.2016 12:30 24,2 C 61 % 1010,1 hPa 0,0 l/m 10,1 km/h (2 Bft) O-NO 71 2 min 0,000 mm 3,7 UV-I 658 W/m 16,2 C 23,3 C 16,1 km/h (3 Bft) 100,00 %
15.09.2016 12:32 24,2 C 61 % 1010,1 hPa 0,0 l/m 10,1 km/h (2 Bft) O-NO 59 2 min 0,000 mm 3,7 UV-I 661 W/m 16,2 C 23,3 C 19,3 km/h (3 Bft) 100,00 %
15.09.2016 12:34 24,3 C 62 % 1010,1 hPa 0,0 l/m 11,3 km/h (2 Bft) O-NO 78 2 min 0,000 mm 3,7 UV-I 661 W/m 16,5 C 23,1 C 19,3 km/h (3 Bft) 100,00 %
15.09.2016 12:36 24,3 C 61 % 1010,0 hPa 0,0 l/m 10,8 km/h (2 Bft) NO 42 2 min 0,000 mm 3,8 UV-I 663 W/m 16,3 C 23,2 C 20,9 km/h (4 Bft) 100,00 %
15.09.2016 12:38 24,4 C 62 % 1010,0 hPa 0,0 l/m 10,3 km/h (2 Bft) N-NO 26 2 min 0,000 mm 3,8 UV-I 662 W/m 16,6 C 23,4 C 14,5 km/h (3 Bft) 93,62 %
15.09.2016 12:40 24,5 C 61 % 1010,0 hPa 0,0 l/m 14,2 km/h (3 Bft) NO 39 2 min 0,000 mm 3,8 UV-I 663 W/m 16,5 C 22,8 C 19,3 km/h (3 Bft) 100,00 %
15.09.2016 12:42 24,7 C 60 % 1010,0 hPa 0,0 l/m 12,2 km/h (2 Bft) O-NO 59 2 min 0,000 mm 3,8 UV-I 662 W/m 16,4 C 23,4 C 16,1 km/h (3 Bft) 100,00 %
15.09.2016 12:44 24,6 C 60 % 1010,1 hPa 0,0 l/m 10,4 km/h (2 Bft) NO 37 2 min 0,000 mm 3,8 UV-I 663 W/m 16,3 C 23,6 C 17,7 km/h (3 Bft) 100,00 %
15.09.2016 12:46 24,7 C 59 % 1010,1 hPa 0,0 l/m 13,5 km/h (3 Bft) NO 37 2 min 0,000 mm 3,8 UV-I 666 W/m 16,1 C 23,2 C 19,3 km/h (3 Bft) 100,00 %
15.09.2016 12:48 24,8 C 61 % 1010,0 hPa 0,0 l/m 13,6 km/h (3 Bft) N-NO 21 2 min 0,000 mm 3,8 UV-I 666 W/m 16,8 C 23,3 C 19,3 km/h (3 Bft) 100,00 %
15.09.2016 12:50 24,9 C 61 % 1010,0 hPa 0,0 l/m 12,5 km/h (3 Bft) N-NO 22 2 min 0,000 mm 3,8 UV-I 663 W/m 16,8 C 23,6 C 17,7 km/h (3 Bft) 100,00 %
15.09.2016 12:52 25,0 C 59 % 1010,0 hPa 0,0 l/m 12,1 km/h (2 Bft) O 79 2 min 0,000 mm 3,8 UV-I 663 W/m 16,4 C 23,8 C 17,7 km/h (3 Bft) 96,00 %
15.09.2016 12:54 25,0 C 60 % 1010,0 hPa 0,0 l/m 13,0 km/h (3 Bft) O-NO 69 2 min 0,000 mm 3,8 UV-I 669 W/m 16,7 C 23,6 C 17,7 km/h (3 Bft) 93,62 %
15.09.2016 12:56 25,0 C 60 % 1009,9 hPa 0,0 l/m 13,5 km/h (3 Bft) NO 47 2 min 0,000 mm 3,8 UV-I 667 W/m 16,7 C 23,5 C 20,9 km/h (4 Bft) 100,00 %
15.09.2016 12:58 25,1 C 60 % 1010,0 hPa 0,0 l/m 12,7 km/h (3 Bft) NO 37 2 min 0,000 mm 3,8 UV-I 667 W/m 16,8 C 23,8 C 19,3 km/h (3 Bft) 97,87 %
15.09.2016 13:00 25,1 C 59 % 1009,9 hPa 0,0 l/m 11,1 km/h (2 Bft) N-NO 17 2 min 0,483 mm 3,8 UV-I 667 W/m 16,5 C 24,1 C 17,7 km/h (3 Bft) 100,00 %
15.09.2016 13:02 25,2 C 59 % 1010,0 hPa 0,0 l/m 11,1 km/h (2 Bft) NO 49 2 min 0,000 mm 3,8 UV-I 665 W/m 16,6 C 24,2 C 17,7 km/h (3 Bft) 100,00 %
15.09.2016 13:04 25,2 C 60 % 1010,0 hPa 0,0 l/m 12,6 km/h (3 Bft) N-NO 33 2 min 0,000 mm 3,8 UV-I 665 W/m 16,9 C 23,9 C 19,3 km/h (3 Bft) 97,87 %
15.09.2016 13:06 25,2 C 60 % 1009,9 hPa 0,0 l/m 10,8 km/h (2 Bft) NO 53 2 min 0,000 mm 3,8 UV-I 661 W/m 16,9 C 24,2 C 19,3 km/h (3 Bft) 100,00 %
15.09.2016 13:08 25,3 C 60 % 1009,9 hPa 0,0 l/m 15,1 km/h (3 Bft) NO 40 2 min 0,000 mm 3,8 UV-I 661 W/m 17,0 C 23,7 C 20,9 km/h (4 Bft) 96,00 %
15.09.2016 13:10 25,4 C 58 % 1009,9 hPa 0,0 l/m 11,0 km/h (2 Bft) NO 55 2 min 0,000 mm 3,8 UV-I 658 W/m 16,5 C 24,4 C 17,7 km/h (3 Bft) 100,00 %
15.09.2016 13:12 25,4 C 57 % 1009,9 hPa 0,0 l/m 12,9 km/h (3 Bft) NO 54 2 min 0,000 mm 3,8 UV-I 667 W/m 16,2 C 24,1 C 20,9 km/h (4 Bft) 100,00 %
15.09.2016 13:14 25,3 C 58 % 1009,9 hPa 0,0 l/m 10,5 km/h (2 Bft) NO 54 2 min 0,000 mm 3,8 UV-I 666 W/m 16,4 C 24,4 C 17,7 km/h (3 Bft) 100,00 %
15.09.2016 13:16 25,4 C 60 % 1009,9 hPa 0,0 l/m 12,5 km/h (3 Bft) NO 44 2 min 0,000 mm 3,8 UV-I 664 W/m 17,1 C 24,2 C 20,9 km/h (4 Bft) 100,00 %
15.09.2016 13:18 25,5 C 59 % 1009,9 hPa 0,0 l/m 11,1 km/h (2 Bft) O-NO 57 2 min 0,000 mm 3,8 UV-I 663 W/m 16,9 C 24,5 C 16,1 km/h (3 Bft) 100,00 %
15.09.2016 13:20 25,7 C 59 % 1009,9 hPa 0,0 l/m 14,1 km/h (3 Bft) NO 45 2 min 0,000 mm 3,8 UV-I 662 W/m 17,1 C 24,3 C 20,9 km/h (4 Bft) 100,00 %
15.09.2016 13:22 25,6 C 58 % 1009,9 hPa 0,0 l/m 9,3 km/h (2 Bft) N-NO 26 2 min 0,000 mm 3,8 UV-I 663 W/m 16,7 C 25,0 C 16,1 km/h (3 Bft) 100,00 %
15.09.2016 13:24 25,7 C 57 % 1009,9 hPa 0,0 l/m 12,1 km/h (2 Bft) NO 37 2 min 0,000 mm 3,8 UV-I 662 W/m 16,5 C 24,6 C 17,7 km/h (3 Bft) 100,00 %
15.09.2016 13:26 25,8 C 58 % 1009,9 hPa 0,0 l/m 10,0 km/h (2 Bft) N-NO 28 2 min 0,000 mm 3,8 UV-I 663 W/m 16,9 C 25,0 C 17,7 km/h (3 Bft) 97,87 %
15.09.2016 13:28 26,0 C 57 % 1009,9 hPa 0,0 l/m 12,3 km/h (3 Bft) NO 36 2 min 0,000 mm 3,8 UV-I 661 W/m 16,8 C 24,9 C 20,9 km/h (4 Bft) 100,00 %
15.09.2016 13:30 25,9 C 58 % 1009,9 hPa 0,0 l/m 13,0 km/h (3 Bft) N-NO 13 2 min 0,000 mm 3,7 UV-I 658 W/m 17,0 C 24,7 C 20,9 km/h (4 Bft) 97,87 %
15.09.2016 13:32 26,1 C 56 % 1009,8 hPa 0,0 l/m 9,4 km/h (2 Bft) NO 48 2 min 0,000 mm 3,7 UV-I 657 W/m 16,6 C 25,5 C 17,7 km/h (3 Bft) 100,00 %
15.09.2016 13:34 26,1 C 56 % 1009,9 hPa 0,0 l/m 14,1 km/h (3 Bft) O-NO 61 2 min 0,000 mm 3,7 UV-I 659 W/m 16,6 C 24,8 C 19,3 km/h (3 Bft) 94,74 %
15.09.2016 13:36 26,1 C 55 % 1009,9 hPa 0,0 l/m 13,4 km/h (3 Bft) O-NO 78 2 min 0,000 mm 3,7 UV-I 658 W/m 16,3 C 24,9 C 20,9 km/h (4 Bft) 95,74 %
15.09.2016 13:38 25,9 C 56 % 1009,9 hPa 0,0 l/m 10,6 km/h (2 Bft) O-SO 109 2 min 0,000 mm 3,7 UV-I 657 W/m 16,4 C 25,1 C 17,7 km/h (3 Bft) 95,74 %
15.09.2016 13:40 26,0 C 57 % 1009,9 hPa 0,0 l/m 10,4 km/h (2 Bft) NO 47 2 min 0,000 mm 3,7 UV-I 656 W/m 16,8 C 25,2 C 17,7 km/h (3 Bft) 93,62 %
15.09.2016 13:42 26,1 C 55 % 1010,0 hPa 0,0 l/m 9,7 km/h (2 Bft) O-NO 74 2 min 0,000 mm 3,6 UV-I 655 W/m 16,3 C 25,4 C 19,3 km/h (3 Bft) 97,87 %
15.09.2016 13:44 26,1 C 55 % 1009,9 hPa 0,0 l/m 11,9 km/h (2 Bft) NO 54 2 min 0,000 mm 3,6 UV-I 652 W/m 16,3 C 25,1 C 17,7 km/h (3 Bft) 95,83 %
15.09.2016 13:46 26,1 C 55 % 1010,0 hPa 0,0 l/m 12,6 km/h (3 Bft) O-NO 66 2 min 0,000 mm 3,6 UV-I 649 W/m 16,3 C 25,0 C 17,7 km/h (3 Bft) 97,87 %
15.09.2016 13:48 26,2 C 55 % 1010,0 hPa 0,0 l/m 11,1 km/h (2 Bft) NO 45 2 min 0,000 mm 3,6 UV-I 649 W/m 16,4 C 25,3 C 16,1 km/h (3 Bft) 95,74 %
15.09.2016 13:50 26,1 C 55 % 1009,9 hPa 0,0 l/m 7,6 km/h (2 Bft) NO 37 2 min 0,000 mm 3,6 UV-I 647 W/m 16,3 C 25,8 C 14,5 km/h (3 Bft) 98,00 %
15.09.2016 13:52 26,2 C 56 % 1009,9 hPa 0,0 l/m 9,1 km/h (2 Bft) N-NO 29 2 min 0,000 mm 3,5 UV-I 644 W/m 16,7 C 25,6 C 14,5 km/h (3 Bft) 97,87 %
15.09.2016 13:54 26,2 C 56 % 1009,9 hPa 0,0 l/m 12,8 km/h (3 Bft) NO 42 2 min 0,000 mm 3,5 UV-I 642 W/m 16,7 C 25,1 C 17,7 km/h (3 Bft) 93,62 %
15.09.2016 13:56 26,2 C 57 % 1009,9 hPa 0,0 l/m 8,9 km/h (2 Bft) NO 52 2 min 0,000 mm 3,5 UV-I 641 W/m 17,0 C 25,7 C 17,7 km/h (3 Bft) 97,87 %
15.09.2016 13:58 26,3 C 55 % 1009,9 hPa 0,0 l/m 14,9 km/h (3 Bft) O-NO 65 2 min 0,000 mm 3,5 UV-I 638 W/m 16,5 C 24,9 C 19,3 km/h (3 Bft) 98,00 %
15.09.2016 14:00 26,3 C 54 % 1009,9 hPa 0,0 l/m 11,4 km/h (2 Bft) O 84 2 min 0,000 mm 3,4 UV-I 636 W/m 16,2 C 25,4 C 17,7 km/h (3 Bft) 97,14 %
15.09.2016 14:02 26,3 C 56 % 1009,9 hPa 0,0 l/m 7,4 km/h (2 Bft) NO 35 2 min 0,482 mm 3,4 UV-I 635 W/m 16,8 C 26,1 C 14,5 km/h (3 Bft) 95,74 %
15.09.2016 14:04 26,4 C 55 % 1009,9 hPa 0,0 l/m 8,8 km/h (2 Bft) O-NO 64 2 min 0,000 mm 3,4 UV-I 631 W/m 16,6 C 25,9 C 14,5 km/h (3 Bft) 96,00 %
15.09.2016 14:06 26,4 C 54 % 1009,9 hPa 0,0 l/m 10,4 km/h (2 Bft) O-NO 60 2 min 0,000 mm 3,4 UV-I 632 W/m 16,3 C 25,6 C 16,1 km/h (3 Bft) 97,87 %
15.09.2016 14:08 26,4 C 54 % 1009,8 hPa 0,0 l/m 7,9 km/h (2 Bft) O 85 2 min 0,000 mm 3,3 UV-I 628 W/m 16,3 C 26,1 C 12,9 km/h (3 Bft) 100,00 %
15.09.2016 14:10 26,6 C 56 % 1009,9 hPa 0,0 l/m 8,9 km/h (2 Bft) O-NO 57 2 min 0,000 mm 3,3 UV-I 626 W/m 17,1 C 26,1 C 16,1 km/h (3 Bft) 95,74 %
15.09.2016 14:12 26,7 C 55 % 1009,8 hPa 0,0 l/m 8,4 km/h (2 Bft) N-NO 29 2 min 0,000 mm 3,3 UV-I 624 W/m 16,9 C 26,3 C 14,5 km/h (3 Bft) 97,87 %
15.09.2016 14:14 26,8 C 55 % 1009,7 hPa 0,0 l/m 8,9 km/h (2 Bft) O-NO 66 2 min 0,000 mm 3,3 UV-I 622 W/m 17,0 C 26,3 C 14,5 km/h (3 Bft) 95,74 %
15.09.2016 14:16 26,8 C 55 % 1009,7 hPa 0,0 l/m 7,4 km/h (2 Bft) NO 48 2 min 0,000 mm 3,3 UV-I 621 W/m 17,0 C 26,6 C 9,7 km/h (2 Bft) 97,87 %
15.09.2016 14:18 26,9 C 57 % 1009,7 hPa 0,0 l/m 8,5 km/h (2 Bft) NO 34 2 min 0,000 mm 3,2 UV-I 617 W/m 17,6 C 26,5 C 14,5 km/h (3 Bft) 97,87 %
15.09.2016 14:20 27,2 C 55 % 1009,7 hPa 0,0 l/m 12,4 km/h (3 Bft) O-NO 67 2 min 0,000 mm 3,2 UV-I 612 W/m 17,4 C 26,3 C 17,7 km/h (3 Bft) 100,00 %
15.09.2016 14:22 27,1 C 53 % 1009,7 hPa 0,0 l/m 11,8 km/h (2 Bft) O-NO 76 2 min 0,000 mm 3,1 UV-I 610 W/m 16,7 C 26,2 C 19,3 km/h (3 Bft) 100,00 %
15.09.2016 14:24 26,9 C 55 % 1009,6 hPa 0,0 l/m 11,2 km/h (2 Bft) NO 46 2 min 0,000 mm 3,1 UV-I 610 W/m 17,1 C 26,1 C 14,5 km/h (3 Bft) 100,00 %
15.09.2016 14:26 26,9 C 54 % 1009,6 hPa 0,0 l/m 8,6 km/h (2 Bft) NO 53 2 min 0,000 mm 3,1 UV-I 611 W/m 16,8 C 26,5 C 12,9 km/h (3 Bft) 97,87 %
15.09.2016 14:28 27,1 C 55 % 1009,5 hPa 0,0 l/m 13,8 km/h (3 Bft) NO 40 2 min 0,000 mm 3,1 UV-I 608 W/m 17,3 C 26,0 C 19,3 km/h (3 Bft) 97,87 %
15.09.2016 14:30 27,1 C 54 % 1009,6 hPa 0,0 l/m 14,5 km/h (3 Bft) NO 42 2 min 0,000 mm 3,1 UV-I 606 W/m 17,0 C 25,9 C 20,9 km/h (4 Bft) 100,00 %
15.09.2016 14:32 27,1 C 55 % 1009,6 hPa 0,0 l/m 10,9 km/h (2 Bft) NO 36 2 min 0,000 mm 3,1 UV-I 600 W/m 17,3 C 26,4 C 17,7 km/h (3 Bft) 98,00 %
15.09.2016 14:34 27,1 C 53 % 1009,5 hPa 0,0 l/m 12,7 km/h (3 Bft) NO 37 2 min 0,000 mm 3,0 UV-I 596 W/m 16,7 C 26,1 C 17,7 km/h (3 Bft) 98,00 %
15.09.2016 14:36 27,0 C 53 % 1009,5 hPa 0,0 l/m 12,8 km/h (3 Bft) NO 46 2 min 0,000 mm 3,0 UV-I 593 W/m 16,6 C 26,0 C 19,3 km/h (3 Bft) 100,00 %
15.09.2016 14:38 26,9 C 56 % 1009,5 hPa 0,0 l/m 10,2 km/h (2 Bft) O-NO 61 2 min 0,000 mm 3,0 UV-I 590 W/m 17,4 C 26,2 C 17,7 km/h (3 Bft) 100,00 %
15.09.2016 14:40 27,1 C 54 % 1009,5 hPa 0,0 l/m 12,8 km/h (3 Bft) NO 38 2 min 0,000 mm 2,9 UV-I 588 W/m 17,0 C 26,1 C 19,3 km/h (3 Bft) 100,00 %
15.09.2016 14:42 27,1 C 54 % 1009,5 hPa 0,0 l/m 11,5 km/h (2 Bft) NO 39 2 min 0,000 mm 2,9 UV-I 589 W/m 17,0 C 26,3 C 17,7 km/h (3 Bft) 100,00 %
15.09.2016 14:44 27,2 C 53 % 1009,5 hPa 0,0 l/m 13,5 km/h (3 Bft) NO 45 2 min 0,000 mm 2,9 UV-I 586 W/m 16,8 C 26,1 C 19,3 km/h (3 Bft) 100,00 %
15.09.2016 14:46 27,2 C 53 % 1009,4 hPa 0,0 l/m 10,7 km/h (2 Bft) N-NO 27 2 min 0,000 mm 2,9 UV-I 582 W/m 16,8 C 26,5 C 19,3 km/h (3 Bft) 100,00 %
15.09.2016 14:48 27,3 C 54 % 1009,4 hPa 0,0 l/m 14,6 km/h (3 Bft) NO 36 2 min 0,000 mm 2,8 UV-I 575 W/m 17,2 C 26,1 C 20,9 km/h (4 Bft) 100,00 %
15.09.2016 14:50 27,3 C 55 % 1009,3 hPa 0,0 l/m 11,9 km/h (2 Bft) NO 36 2 min 0,000 mm 2,8 UV-I 568 W/m 17,4 C 26,4 C 17,7 km/h (3 Bft) 100,00 %
15.09.2016 14:52 27,3 C 53 % 1009,3 hPa 0,0 l/m 10,4 km/h (2 Bft) NO 42 2 min 0,000 mm 2,8 UV-I 569 W/m 16,9 C 26,6 C 17,7 km/h (3 Bft) 97,87 %
15.09.2016 14:54 27,3 C 52 % 1009,3 hPa 0,0 l/m 15,8 km/h (3 Bft) N-NO 30 2 min 0,000 mm 2,7 UV-I 567 W/m 16,6 C 26,0 C 20,9 km/h (4 Bft) 100,00 %
15.09.2016 14:56 27,2 C 53 % 1009,4 hPa 0,0 l/m 13,9 km/h (3 Bft) O-NO 66 2 min 0,000 mm 2,7 UV-I 566 W/m 16,8 C 26,1 C 17,7 km/h (3 Bft) 100,00 %
15.09.2016 14:58 27,2 C 52 % 1009,3 hPa 0,0 l/m 13,5 km/h (3 Bft) NO 37 2 min 0,000 mm 2,7 UV-I 564 W/m 16,5 C 26,1 C 20,9 km/h (4 Bft) 100,00 %
15.09.2016 15:00 27,2 C 53 % 1009,3 hPa 0,0 l/m 13,7 km/h (3 Bft) O-NO 64 2 min 0,000 mm 2,6 UV-I 564 W/m 16,8 C 26,1 C 19,3 km/h (3 Bft) 100,00 %
15.09.2016 15:02 27,2 C 53 % 1009,2 hPa 0,0 l/m 9,8 km/h (2 Bft) O-NO 74 2 min 0,458 mm 2,6 UV-I 562 W/m 16,8 C 26,6 C 16,1 km/h (3 Bft) 98,04 %
15.09.2016 15:04 27,2 C 54 % 1009,2 hPa 0,0 l/m 12,7 km/h (3 Bft) NO 44 2 min 0,000 mm 2,6 UV-I 554 W/m 17,1 C 26,2 C 17,7 km/h (3 Bft) 97,92 %
15.09.2016 15:06 27,3 C 53 % 1009,3 hPa 0,0 l/m 11,7 km/h (2 Bft) N-NO 21 2 min 0,000 mm 2,5 UV-I 550 W/m 16,9 C 26,5 C 17,7 km/h (3 Bft) 100,00 %
15.09.2016 15:08 27,3 C 53 % 1009,3 hPa 0,0 l/m 9,9 km/h (2 Bft) O-NO 76 2 min 0,000 mm 2,5 UV-I 544 W/m 16,9 C 26,7 C 16,1 km/h (3 Bft) 95,74 %
15.09.2016 15:10 27,4 C 54 % 1009,3 hPa 0,0 l/m 11,7 km/h (2 Bft) N-NO 23 2 min 0,000 mm 2,4 UV-I 539 W/m 17,3 C 26,6 C 17,7 km/h (3 Bft) 100,00 %
15.09.2016 15:12 27,4 C 53 % 1009,2 hPa 0,0 l/m 9,1 km/h (2 Bft) NO 49 2 min 0,000 mm 2,4 UV-I 538 W/m 17,0 C 26,9 C 14,5 km/h (3 Bft) 97,87 %
15.09.2016 15:14 27,6 C 55 % 1009,3 hPa 0,0 l/m 12,4 km/h (3 Bft) NO 48 2 min 0,000 mm 2,4 UV-I 532 W/m 17,7 C 26,7 C 19,3 km/h (3 Bft) 100,00 %
15.09.2016 15:16 27,7 C 55 % 1009,3 hPa 0,0 l/m 9,8 km/h (2 Bft) NO 36 2 min 0,000 mm 2,4 UV-I 524 W/m 17,8 C 27,2 C 14,5 km/h (3 Bft) 100,00 %
15.09.2016 15:18 27,7 C 53 % 1009,3 hPa 0,0 l/m 9,0 km/h (2 Bft) O-NO 71 2 min 0,000 mm 2,3 UV-I 525 W/m 17,2 C 27,3 C 14,5 km/h (3 Bft) 97,87 %
15.09.2016 15:20 27,8 C 54 % 1009,3 hPa 0,0 l/m 7,5 km/h (2 Bft) NO 48 2 min 0,000 mm 2,3 UV-I 522 W/m 17,6 C 27,6 C 11,3 km/h (2 Bft) 100,00 %
15.09.2016 15:22 27,8 C 51 % 1009,2 hPa 0,0 l/m 6,8 km/h (2 Bft) NO 37 2 min 0,000 mm 2,2 UV-I 515 W/m 16,7 C 27,7 C 12,9 km/h (3 Bft) 100,00 %
15.09.2016 15:24 27,8 C 53 % 1009,2 hPa 0,0 l/m 10,2 km/h (2 Bft) O-NO 61 2 min 0,000 mm 2,2 UV-I 511 W/m 17,3 C 27,2 C 17,7 km/h (3 Bft) 100,00 %
15.09.2016 15:26 27,8 C 53 % 1009,2 hPa 0,0 l/m 6,0 km/h (2 Bft) N 5 2 min 0,000 mm 2,2 UV-I 513 W/m 17,3 C 27,8 C 9,7 km/h (2 Bft) 97,87 %
15.09.2016 15:28 27,8 C 52 % 1009,3 hPa 0,0 l/m 9,0 km/h (2 Bft) N-NO 24 2 min 0,000 mm 2,2 UV-I 509 W/m 17,0 C 27,4 C 16,1 km/h (3 Bft) 100,00 %
15.09.2016 15:30 27,7 C 53 % 1009,2 hPa 0,0 l/m 8,0 km/h (2 Bft) O-NO 69 2 min 0,000 mm 2,1 UV-I 504 W/m 17,2 C 27,4 C 16,1 km/h (3 Bft) 100,00 %
15.09.2016 15:32 27,6 C 53 % 1009,2 hPa 0,0 l/m 7,9 km/h (2 Bft) O-NO 76 2 min 0,000 mm 2,1 UV-I 501 W/m 17,1 C 27,3 C 14,5 km/h (3 Bft) 100,00 %
15.09.2016 15:34 27,7 C 53 % 1009,2 hPa 0,0 l/m 10,8 km/h (2 Bft) NO 35 2 min 0,000 mm 2,1 UV-I 495 W/m 17,2 C 27,0 C 19,3 km/h (3 Bft) 100,00 %
15.09.2016 15:36 27,8 C 51 % 1009,2 hPa 0,0 l/m 10,3 km/h (2 Bft) O-NO 61 2 min 0,000 mm 2,0 UV-I 486 W/m 16,7 C 27,2 C 16,1 km/h (3 Bft) 100,00 %
15.09.2016 15:38 27,7 C 50 % 1009,3 hPa 0,0 l/m 15,4 km/h (3 Bft) O-NO 75 2 min 0,000 mm 2,0 UV-I 486 W/m 16,3 C 26,5 C 20,9 km/h (4 Bft) 95,74 %
15.09.2016 15:40 27,6 C 51 % 1009,3 hPa 0,0 l/m 13,1 km/h (3 Bft) NO 36 2 min 0,000 mm 2,0 UV-I 485 W/m 16,5 C 26,7 C 19,3 km/h (3 Bft) 95,83 %
15.09.2016 15:42 27,6 C 52 % 1009,2 hPa 0,0 l/m 10,9 km/h (2 Bft) O-NO 59 2 min 0,000 mm 1,9 UV-I 482 W/m 16,8 C 26,9 C 14,5 km/h (3 Bft) 95,83 %
15.09.2016 15:44 27,6 C 52 % 1009,3 hPa 0,0 l/m 12,3 km/h (3 Bft) NO 54 2 min 0,000 mm 1,9 UV-I 476 W/m 16,8 C 26,7 C 17,7 km/h (3 Bft) 97,87 %
15.09.2016 15:46 27,6 C 52 % 1009,3 hPa 0,0 l/m 11,2 km/h (2 Bft) O-NO 68 2 min 0,000 mm 1,8 UV-I 474 W/m 16,8 C 26,9 C 16,1 km/h (3 Bft) 98,00 %
15.09.2016 15:48 27,6 C 52 % 1009,3 hPa 0,0 l/m 13,1 km/h (3 Bft) O-NO 65 2 min 0,000 mm 1,8 UV-I 467 W/m 16,8 C 26,7 C 19,3 km/h (3 Bft) 97,87 %
15.09.2016 15:50 27,7 C 52 % 1009,3 hPa 0,0 l/m 13,1 km/h (3 Bft) O-NO 66 2 min 0,000 mm 1,8 UV-I 462 W/m 16,9 C 26,8 C 19,3 km/h (3 Bft) 95,74 %
15.09.2016 15:52 27,7 C 50 % 1009,2 hPa 0,0 l/m 12,5 km/h (3 Bft) O 92 2 min 0,000 mm 1,8 UV-I 461 W/m 16,3 C 26,8 C 17,7 km/h (3 Bft) 97,37 %
15.09.2016 15:54 27,6 C 51 % 1009,2 hPa 0,0 l/m 11,4 km/h (2 Bft) O-NO 69 2 min 0,000 mm 1,7 UV-I 456 W/m 16,5 C 26,9 C 16,1 km/h (3 Bft) 93,62 %
15.09.2016 15:56 27,6 C 51 % 1009,1 hPa 0,0 l/m 11,3 km/h (2 Bft) O-NO 71 2 min 0,000 mm 1,7 UV-I 453 W/m 16,5 C 26,9 C 16,1 km/h (3 Bft) 96,00 %
15.09.2016 15:58 27,7 C 52 % 1009,1 hPa 0,0 l/m 10,8 km/h (2 Bft) O-NO 67 2 min 0,000 mm 1,6 UV-I 445 W/m 16,9 C 27,0 C 14,5 km/h (3 Bft) 97,87 %
15.09.2016 16:00 27,7 C 52 % 1009,2 hPa 0,0 l/m 9,3 km/h (2 Bft) O-NO 62 2 min 0,406 mm 1,6 UV-I 446 W/m 16,9 C 27,2 C 14,5 km/h (3 Bft) 96,15 %
15.09.2016 16:02 27,8 C 52 % 1009,1 hPa 0,0 l/m 12,1 km/h (2 Bft) NO 55 2 min 0,000 mm 1,6 UV-I 442 W/m 17,0 C 27,0 C 19,3 km/h (3 Bft) 97,87 %
15.09.2016 16:04 27,8 C 51 % 1009,2 hPa 0,0 l/m 13,9 km/h (3 Bft) O-NO 57 2 min 0,000 mm 1,6 UV-I 438 W/m 16,7 C 26,8 C 19,3 km/h (3 Bft) 94,44 %
15.09.2016 16:06 27,8 C 52 % 1009,1 hPa 0,0 l/m 11,5 km/h (2 Bft) N 5 2 min 0,000 mm 1,5 UV-I 433 W/m 17,0 C 27,1 C 17,7 km/h (3 Bft) 97,87 %
15.09.2016 16:08 27,9 C 53 % 1009,1 hPa 0,0 l/m 10,2 km/h (2 Bft) NO 38 2 min 0,000 mm 1,5 UV-I 430 W/m 17,4 C 27,3 C 17,7 km/h (3 Bft) 95,74 %
15.09.2016 16:10 27,8 C 51 % 1009,1 hPa 0,0 l/m 13,4 km/h (3 Bft) NO 40 2 min 0,000 mm 1,5 UV-I 425 W/m 16,7 C 26,9 C 19,3 km/h (3 Bft) 95,92 %
15.09.2016 16:12 27,8 C 52 % 1009,1 hPa 0,0 l/m 14,2 km/h (3 Bft) NO 53 2 min 0,000 mm 1,4 UV-I 421 W/m 17,0 C 26,8 C 19,3 km/h (3 Bft) 100,00 %
15.09.2016 16:14 27,7 C 52 % 1009,1 hPa 0,0 l/m 11,5 km/h (2 Bft) NO 53 2 min 0,000 mm 1,4 UV-I 418 W/m 16,9 C 27,0 C 17,7 km/h (3 Bft) 100,00 %
15.09.2016 16:16 27,7 C 53 % 1009,1 hPa 0,0 l/m 12,4 km/h (3 Bft) N-NO 30 2 min 0,000 mm 1,4 UV-I 414 W/m 17,2 C 26,9 C 22,5 km/h (4 Bft) 97,87 %
15.09.2016 16:18 27,6 C 52 % 1009,1 hPa 0,0 l/m 15,4 km/h (3 Bft) O-NO 59 2 min 0,000 mm 1,3 UV-I 398 W/m 16,8 C 26,4 C 20,9 km/h (4 Bft) 100,00 %
15.09.2016 16:20 27,6 C 52 % 1009,0 hPa 0,0 l/m 10,9 km/h (2 Bft) O-NO 63 2 min 0,000 mm 1,3 UV-I 387 W/m 16,8 C 26,9 C 17,7 km/h (3 Bft) 100,00 %
15.09.2016 16:22 27,7 C 52 % 1009,0 hPa 0,0 l/m 10,8 km/h (2 Bft) O-NO 57 2 min 0,000 mm 1,3 UV-I 382 W/m 16,9 C 27,0 C 16,1 km/h (3 Bft) 97,87 %
15.09.2016 16:24 27,7 C 51 % 1009,0 hPa 0,0 l/m 13,3 km/h (3 Bft) O-NO 57 2 min 0,000 mm 1,2 UV-I 364 W/m 16,6 C 26,8 C 19,3 km/h (3 Bft) 97,87 %
15.09.2016 16:26 27,6 C 52 % 1009,0 hPa 0,0 l/m 11,8 km/h (2 Bft) O-NO 65 2 min 0,000 mm 1,2 UV-I 350 W/m 16,8 C 26,8 C 17,7 km/h (3 Bft) 100,00 %
15.09.2016 16:28 27,6 C 53 % 1009,0 hPa 0,0 l/m 9,2 km/h (2 Bft) N-NO 26 2 min 0,000 mm 1,1 UV-I 333 W/m 17,1 C 27,1 C 14,5 km/h (3 Bft) 97,87 %
15.09.2016 16:30 27,6 C 52 % 1009,0 hPa 0,0 l/m 11,7 km/h (2 Bft) NO 52 2 min 0,000 mm 1,1 UV-I 325 W/m 16,8 C 26,8 C 17,7 km/h (3 Bft) 100,00 %
15.09.2016 16:32 27,4 C 53 % 1009,0 hPa 0,0 l/m 13,4 km/h (3 Bft) N-NO 28 2 min 0,000 mm 1,1 UV-I 339 W/m 17,0 C 26,4 C 17,7 km/h (3 Bft) 100,00 %
15.09.2016 16:34 27,4 C 52 % 1008,9 hPa 0,0 l/m 11,1 km/h (2 Bft) O-NO 59 2 min 0,000 mm 1,1 UV-I 341 W/m 16,7 C 26,7 C 19,3 km/h (3 Bft) 100,00 %
15.09.2016 16:36 27,5 C 52 % 1008,9 hPa 0,0 l/m 9,9 km/h (2 Bft) NO 38 2 min 0,000 mm 1,1 UV-I 341 W/m 16,7 C 26,9 C 16,1 km/h (3 Bft) 100,00 %
15.09.2016 16:38 27,5 C 52 % 1008,9 hPa 0,0 l/m 15,2 km/h (3 Bft) NO 40 2 min 0,000 mm 1,0 UV-I 345 W/m 16,7 C 26,3 C 20,9 km/h (4 Bft) 100,00 %
15.09.2016 16:40 27,5 C 52 % 1008,9 hPa 0,0 l/m 10,4 km/h (2 Bft) NO 46 2 min 0,000 mm 1,0 UV-I 332 W/m 16,7 C 26,9 C 16,1 km/h (3 Bft) 95,74 %
15.09.2016 16:42 27,6 C 53 % 1008,9 hPa 0,0 l/m 10,7 km/h (2 Bft) NO 42 2 min 0,000 mm 1,0 UV-I 339 W/m 17,1 C 26,9 C 17,7 km/h (3 Bft) 100,00 %
15.09.2016 16:44 27,7 C 52 % 1008,9 hPa 0,0 l/m 7,9 km/h (2 Bft) O-NO 65 2 min 0,000 mm 1,0 UV-I 343 W/m 16,9 C 27,5 C 12,9 km/h (3 Bft) 100,00 %
15.09.2016 16:46 27,7 C 54 % 1008,9 hPa 0,0 l/m 7,4 km/h (2 Bft) O-NO 77 2 min 0,000 mm 0,9 UV-I 327 W/m 17,5 C 27,5 C 12,9 km/h (3 Bft) 100,00 %
15.09.2016 16:48 27,7 C 53 % 1008,9 hPa 0,0 l/m 12,0 km/h (2 Bft) NO 37 2 min 0,000 mm 0,9 UV-I 322 W/m 17,2 C 26,9 C 17,7 km/h (3 Bft) 100,00 %
15.09.2016 16:50 27,7 C 52 % 1008,9 hPa 0,0 l/m 11,0 km/h (2 Bft) O-NO 67 2 min 0,000 mm 0,9 UV-I 309 W/m 16,9 C 27,0 C 16,1 km/h (3 Bft) 97,87 %
15.09.2016 16:52 27,7 C 52 % 1008,9 hPa 0,0 l/m 8,5 km/h (2 Bft) NO 36 2 min 0,000 mm 0,9 UV-I 292 W/m 16,9 C 27,4 C 14,5 km/h (3 Bft) 100,00 %
15.09.2016 16:54 27,6 C 53 % 1008,9 hPa 0,0 l/m 13,8 km/h (3 Bft) NO 34 2 min 0,000 mm 0,8 UV-I 286 W/m 17,1 C 26,6 C 19,3 km/h (3 Bft) 100,00 %
15.09.2016 16:56 27,5 C 53 % 1008,9 hPa 0,0 l/m 11,4 km/h (2 Bft) NO 36 2 min 0,000 mm 0,8 UV-I 288 W/m 17,0 C 26,7 C 17,7 km/h (3 Bft) 100,00 %
15.09.2016 16:58 27,5 C 53 % 1008,9 hPa 0,0 l/m 7,0 km/h (2 Bft) NO 47 2 min 0,000 mm 0,8 UV-I 290 W/m 17,0 C 27,4 C 12,9 km/h (3 Bft) 100,00 %
15.09.2016 17:00 27,6 C 52 % 1008,9 hPa 0,0 l/m 7,4 km/h (2 Bft) O-NO 71 2 min 0,000 mm 0,8 UV-I 290 W/m 16,8 C 27,4 C 14,5 km/h (3 Bft) 100,00 %
15.09.2016 17:02 27,5 C 52 % 1008,9 hPa 0,0 l/m 11,7 km/h (2 Bft) O-NO 57 2 min 0,330 mm 0,7 UV-I 294 W/m 16,7 C 26,7 C 19,3 km/h (3 Bft) 98,00 %
15.09.2016 17:04 27,5 C 52 % 1008,9 hPa 0,0 l/m 12,0 km/h (2 Bft) O-NO 67 2 min 0,000 mm 0,7 UV-I 291 W/m 16,7 C 26,7 C 14,5 km/h (3 Bft) 95,74 %
15.09.2016 17:06 27,6 C 52 % 1008,9 hPa 0,0 l/m 9,1 km/h (2 Bft) O-NO 76 2 min 0,000 mm 0,7 UV-I 284 W/m 16,8 C 27,2 C 12,9 km/h (3 Bft) 100,00 %
15.09.2016 17:08 27,6 C 53 % 1008,9 hPa 0,0 l/m 9,0 km/h (2 Bft) O 81 2 min 0,000 mm 0,7 UV-I 271 W/m 17,1 C 27,2 C 16,1 km/h (3 Bft) 97,87 %
15.09.2016 17:10 27,6 C 51 % 1008,9 hPa 0,0 l/m 11,5 km/h (2 Bft) O-NO 60 2 min 0,000 mm 0,6 UV-I 264 W/m 16,5 C 26,8 C 17,7 km/h (3 Bft) 95,74 %
15.09.2016 17:12 27,6 C 51 % 1008,8 hPa 0,0 l/m 14,2 km/h (3 Bft) NO 46 2 min 0,000 mm 0,6 UV-I 255 W/m 16,5 C 26,5 C 19,3 km/h (3 Bft) 100,00 %
15.09.2016 17:14 27,5 C 51 % 1008,8 hPa 0,0 l/m 12,9 km/h (3 Bft) NO 45 2 min 0,000 mm 0,6 UV-I 250 W/m 16,4 C 26,6 C 17,7 km/h (3 Bft) 100,00 %
15.09.2016 17:16 27,4 C 52 % 1008,8 hPa 0,0 l/m 12,6 km/h (3 Bft) NO 39 2 min 0,000 mm 0,6 UV-I 250 W/m 16,7 C 26,5 C 17,7 km/h (3 Bft) 97,87 %
15.09.2016 17:18 27,4 C 51 % 1008,8 hPa 0,0 l/m 10,4 km/h (2 Bft) N 11 2 min 0,000 mm 0,6 UV-I 245 W/m 16,3 C 26,8 C 16,1 km/h (3 Bft) 97,87 %
15.09.2016 17:20 27,4 C 51 % 1008,8 hPa 0,0 l/m 12,4 km/h (3 Bft) O-NO 61 2 min 0,000 mm 0,5 UV-I 212 W/m 16,3 C 26,5 C 19,3 km/h (3 Bft) 97,87 %
15.09.2016 17:22 27,3 C 51 % 1008,8 hPa 0,0 l/m 11,1 km/h (2 Bft) NO 53 2 min 0,000 mm 0,5 UV-I 190 W/m 16,3 C 26,6 C 17,7 km/h (3 Bft) 97,87 %
15.09.2016 17:24 27,3 C 52 % 1008,8 hPa 0,0 l/m 8,1 km/h (2 Bft) O-NO 60 2 min 0,000 mm 0,5 UV-I 220 W/m 16,6 C 27,0 C 12,9 km/h (3 Bft) 100,00 %
15.09.2016 17:26 27,3 C 52 % 1008,8 hPa 0,0 l/m 11,9 km/h (2 Bft) NO 55 2 min 0,000 mm 0,5 UV-I 222 W/m 16,6 C 26,4 C 19,3 km/h (3 Bft) 97,87 %
15.09.2016 17:28 27,3 C 52 % 1008,8 hPa 0,0 l/m 9,2 km/h (2 Bft) NO 42 2 min 0,000 mm 0,4 UV-I 218 W/m 16,6 C 26,8 C 14,5 km/h (3 Bft) 100,00 %
15.09.2016 17:30 27,3 C 52 % 1008,8 hPa 0,0 l/m 9,3 km/h (2 Bft) NO 54 2 min 0,000 mm 0,0 UV-I 200 W/m 16,6 C 26,8 C 16,1 km/h (3 Bft) 100,00 %
15.09.2016 17:32 27,3 C 52 % 1008,8 hPa 0,0 l/m 7,8 km/h (2 Bft) O-NO 59 2 min 0,000 mm 0,0 UV-I 194 W/m 16,6 C 27,0 C 12,9 km/h (3 Bft) 100,00 %
15.09.2016 17:34 27,2 C 53 % 1008,8 hPa 0,0 l/m 8,0 km/h (2 Bft) O-NO 71 0 min 0,000 mm 0,0 UV-I 149 W/m 16,8 C 26,9 C 17,7 km/h (3 Bft) 97,87 %
15.09.2016 17:36 27,1 C 52 % 1008,8 hPa 0,0 l/m 9,2 km/h (2 Bft) O-NO 63 0 min 0,000 mm 0,0 UV-I 143 W/m 16,4 C 26,6 C 14,5 km/h (3 Bft) 95,74 %
15.09.2016 17:38 27,1 C 53 % 1008,8 hPa 0,0 l/m 9,3 km/h (2 Bft) NO 41 2 min 0,000 mm 0,0 UV-I 153 W/m 16,7 C 26,6 C 16,1 km/h (3 Bft) 95,74 %
15.09.2016 17:40 26,9 C 53 % 1008,8 hPa 0,0 l/m 9,8 km/h (2 Bft) NO 50 0 min 0,000 mm 0,0 UV-I 127 W/m 16,5 C 26,3 C 16,1 km/h (3 Bft) 100,00 %
15.09.2016 17:42 26,9 C 53 % 1008,8 hPa 0,0 l/m 7,8 km/h (2 Bft) O-NO 63 0 min 0,000 mm 0,0 UV-I 109 W/m 16,5 C 26,6 C 12,9 km/h (3 Bft) 96,00 %
15.09.2016 17:44 26,9 C 53 % 1008,8 hPa 0,0 l/m 6,9 km/h (2 Bft) NO 51 0 min 0,000 mm 0,0 UV-I 125 W/m 16,5 C 26,8 C 11,3 km/h (2 Bft) 97,87 %
15.09.2016 17:46 26,8 C 54 % 1008,8 hPa 0,0 l/m 6,6 km/h (2 Bft) O-NO 57 2 min 0,000 mm 0,0 UV-I 134 W/m 16,7 C 26,8 C 9,7 km/h (2 Bft) 97,87 %
15.09.2016 17:48 26,7 C 54 % 1008,8 hPa 0,0 l/m 8,1 km/h (2 Bft) O-NO 66 2 min 0,000 mm 0,0 UV-I 134 W/m 16,6 C 26,4 C 11,3 km/h (2 Bft) 97,87 %
15.09.2016 17:50 26,6 C 55 % 1008,8 hPa 0,0 l/m 7,7 km/h (2 Bft) O-NO 69 2 min 0,000 mm 0,0 UV-I 132 W/m 16,8 C 26,3 C 11,3 km/h (2 Bft) 96,00 %
15.09.2016 17:52 26,6 C 55 % 1008,8 hPa 0,0 l/m 9,2 km/h (2 Bft) NO 43 2 min 0,000 mm 0,0 UV-I 128 W/m 16,8 C 26,1 C 12,9 km/h (3 Bft) 98,00 %
15.09.2016 17:54 26,6 C 55 % 1008,8 hPa 0,0 l/m 6,8 km/h (2 Bft) NO 45 0 min 0,000 mm 0,0 UV-I 109 W/m 16,8 C 26,5 C 9,7 km/h (2 Bft) 97,87 %
15.09.2016 17:56 26,5 C 55 % 1008,8 hPa 0,0 l/m 5,6 km/h (1 Bft) O-NO 60 0 min 0,000 mm 0,0 UV-I 105 W/m 16,7 C 26,5 C 8,0 km/h (2 Bft) 92,00 %
15.09.2016 17:58 26,4 C 56 % 1008,8 hPa 0,0 l/m 5,2 km/h (1 Bft) O-NO 57 0 min 0,000 mm 0,0 UV-I 96 W/m 16,9 C 26,4 C 8,0 km/h (2 Bft) 97,87 %
15.09.2016 18:00 26,3 C 56 % 1008,8 hPa 0,0 l/m 4,9 km/h (1 Bft) O-NO 76 0 min 0,203 mm 0,0 UV-I 87 W/m 16,8 C 26,3 C 8,0 km/h (2 Bft) 93,62 %
15.09.2016 18:02 26,3 C 56 % 1008,8 hPa 0,0 l/m 4,4 km/h (1 Bft) O-NO 60 0 min 0,000 mm 0,0 UV-I 81 W/m 16,8 C 26,3 C 6,4 km/h (2 Bft) 97,87 %
15.09.2016 18:04 26,1 C 57 % 1008,8 hPa 0,0 l/m 4,9 km/h (1 Bft) NO 55 0 min 0,000 mm 0,0 UV-I 70 W/m 16,9 C 26,1 C 8,0 km/h (2 Bft) 97,14 %
15.09.2016 18:06 26,1 C 57 % 1008,8 hPa 0,0 l/m 5,7 km/h (1 Bft) O-NO 70 0 min 0,000 mm 0,0 UV-I 60 W/m 16,9 C 26,1 C 8,0 km/h (2 Bft) 97,87 %
15.09.2016 18:08 25,9 C 56 % 1008,8 hPa 0,0 l/m 6,8 km/h (2 Bft) O-NO 59 0 min 0,000 mm 0,0 UV-I 53 W/m 16,4 C 25,8 C 11,3 km/h (2 Bft) 100,00 %
15.09.2016 18:10 25,9 C 56 % 1008,8 hPa 0,0 l/m 6,1 km/h (2 Bft) O-NO 62 0 min 0,000 mm 0,0 UV-I 52 W/m 16,4 C 25,9 C 9,7 km/h (2 Bft) 100,00 %
15.09.2016 18:12 25,8 C 57 % 1008,8 hPa 0,0 l/m 6,7 km/h (2 Bft) NO 50 0 min 0,000 mm 0,0 UV-I 54 W/m 16,6 C 25,7 C 8,0 km/h (2 Bft) 100,00 %
15.09.2016 18:14 25,8 C 57 % 1008,7 hPa 0,0 l/m 4,5 km/h (1 Bft) O-NO 75 0 min 0,000 mm 0,0 UV-I 60 W/m 16,6 C 25,8 C 6,4 km/h (2 Bft) 100,00 %
15.09.2016 18:16 25,7 C 58 % 1008,8 hPa 0,0 l/m 5,4 km/h (1 Bft) O-NO 66 0 min 0,000 mm 0,0 UV-I 53 W/m 16,8 C 25,7 C 8,0 km/h (2 Bft) 100,00 %
15.09.2016 18:18 25,6 C 58 % 1008,8 hPa 0,0 l/m 4,9 km/h (1 Bft) O 82 0 min 0,000 mm 0,0 UV-I 48 W/m 16,7 C 25,6 C 6,4 km/h (2 Bft) 97,22 %
15.09.2016 18:20 25,4 C 59 % 1008,8 hPa 0,0 l/m 5,3 km/h (1 Bft) O 86 0 min 0,000 mm 0,0 UV-I 41 W/m 16,8 C 25,4 C 8,0 km/h (2 Bft) 100,00 %
15.09.2016 18:22 25,3 C 60 % 1008,8 hPa 0,0 l/m 4,9 km/h (1 Bft) O-NO 78 0 min 0,000 mm 0,0 UV-I 41 W/m 17,0 C 25,3 C 6,4 km/h (2 Bft) 97,87 %
15.09.2016 18:24 25,2 C 59 % 1008,9 hPa 0,0 l/m 4,5 km/h (1 Bft) O-NO 74 0 min 0,000 mm 0,0 UV-I 42 W/m 16,6 C 25,2 C 6,4 km/h (2 Bft) 100,00 %
15.09.2016 18:26 25,2 C 60 % 1008,8 hPa 0,0 l/m 4,2 km/h (1 Bft) O-NO 65 0 min 0,000 mm 0,0 UV-I 40 W/m 16,9 C 25,2 C 6,4 km/h (2 Bft) 100,00 %
15.09.2016 18:28 25,1 C 61 % 1008,7 hPa 0,0 l/m 3,6 km/h (1 Bft) O-NO 63 0 min 0,000 mm 0,0 UV-I 37 W/m 17,0 C 25,1 C 4,8 km/h (1 Bft) 97,87 %
15.09.2016 18:30 24,9 C 61 % 1008,8 hPa 0,0 l/m 3,5 km/h (1 Bft) O-NO 62 0 min 0,000 mm 0,0 UV-I 32 W/m 16,8 C 24,9 C 6,4 km/h (2 Bft) 95,74 %
15.09.2016 18:32 24,8 C 61 % 1008,8 hPa 0,0 l/m 3,0 km/h (1 Bft) O-NO 62 0 min 0,000 mm 0,0 UV-I 29 W/m 16,8 C 24,8 C 4,8 km/h (1 Bft) 97,14 %
15.09.2016 18:34 24,7 C 62 % 1008,7 hPa 0,0 l/m 4,7 km/h (1 Bft) O-NO 63 0 min 0,000 mm 0,0 UV-I 27 W/m 16,9 C 24,7 C 6,4 km/h (2 Bft) 100,00 %
15.09.2016 18:36 24,7 C 62 % 1008,8 hPa 0,0 l/m 4,0 km/h (1 Bft) O-NO 64 0 min 0,000 mm 0,0 UV-I 25 W/m 16,9 C 24,7 C 6,4 km/h (2 Bft) 97,87 %
15.09.2016 18:38 24,6 C 63 % 1008,7 hPa 0,0 l/m 4,3 km/h (1 Bft) O-NO 67 0 min 0,000 mm 0,0 UV-I 24 W/m 17,1 C 24,6 C 6,4 km/h (2 Bft) 100,00 %
15.09.2016 18:40 24,4 C 64 % 1008,8 hPa 0,0 l/m 3,7 km/h (1 Bft) O-NO 67 0 min 0,000 mm 0,0 UV-I 22 W/m 17,1 C 24,4 C 6,4 km/h (2 Bft) 95,74 %
15.09.2016 18:42 24,2 C 65 % 1008,7 hPa 0,0 l/m 4,2 km/h (1 Bft) O 100 0 min 0,000 mm 0,0 UV-I 21 W/m 17,2 C 24,2 C 6,4 km/h (2 Bft) 97,87 %
15.09.2016 18:44 24,0 C 65 % 1008,8 hPa 0,0 l/m 4,5 km/h (1 Bft) O 79 0 min 0,000 mm 0,0 UV-I 19 W/m 17,0 C 24,0 C 8,0 km/h (2 Bft) 100,00 %
15.09.2016 18:46 23,9 C 65 % 1008,7 hPa 0,0 l/m 4,3 km/h (1 Bft) O-NO 74 0 min 0,000 mm 0,0 UV-I 19 W/m 16,9 C 23,9 C 6,4 km/h (2 Bft) 96,00 %
15.09.2016 18:48 23,8 C 65 % 1008,7 hPa 0,0 l/m 3,3 km/h (1 Bft) O-NO 74 0 min 0,000 mm 0,0 UV-I 18 W/m 16,8 C 23,8 C 4,8 km/h (1 Bft) 100,00 %
15.09.2016 18:50 23,8 C 65 % 1008,8 hPa 0,0 l/m 3,1 km/h (1 Bft) O-NO 74 0 min 0,000 mm 0,0 UV-I 17 W/m 16,8 C 23,8 C 4,8 km/h (1 Bft) 100,00 %
15.09.2016 18:52 23,8 C 65 % 1008,7 hPa 0,0 l/m 2,7 km/h (1 Bft) O-NO 73 0 min 0,000 mm 0,0 UV-I 16 W/m 16,8 C 23,8 C 4,8 km/h (1 Bft) 100,00 %
15.09.2016 18:54 23,8 C 65 % 1008,8 hPa 0,0 l/m 3,3 km/h (1 Bft) O-NO 73 0 min 0,000 mm 0,0 UV-I 16 W/m 16,8 C 23,8 C 4,8 km/h (1 Bft) 97,44 %
15.09.2016 18:56 23,7 C 66 % 1008,8 hPa 0,0 l/m 2,2 km/h (1 Bft) O-NO 73 0 min 0,000 mm 0,0 UV-I 14 W/m 17,0 C 23,7 C 3,2 km/h (1 Bft) 98,00 %
15.09.2016 18:58 23,5 C 66 % 1008,7 hPa 0,0 l/m 3,2 km/h (1 Bft) O-NO 73 0 min 0,000 mm 0,0 UV-I 13 W/m 16,8 C 23,5 C 4,8 km/h (1 Bft) 100,00 %
15.09.2016 19:00 23,4 C 67 % 1008,7 hPa 0,0 l/m 3,0 km/h (1 Bft) O-NO 73 0 min 0,051 mm 0,0 UV-I 12 W/m 16,9 C 23,4 C 4,8 km/h (1 Bft) 100,00 %
15.09.2016 19:02 23,4 C 67 % 1008,7 hPa 0,0 l/m 3,4 km/h (1 Bft) O-NO 69 0 min 0,000 mm 0,0 UV-I 11 W/m 16,9 C 23,4 C 6,4 km/h (2 Bft) 100,00 %
15.09.2016 19:04 23,3 C 68 % 1008,7 hPa 0,0 l/m 4,7 km/h (1 Bft) O-NO 72 0 min 0,000 mm 0,0 UV-I 10 W/m 17,1 C 23,3 C 6,4 km/h (2 Bft) 100,00 %
15.09.2016 19:06 23,2 C 68 % 1008,7 hPa 0,0 l/m 4,3 km/h (1 Bft) O 89 0 min 0,000 mm 0,0 UV-I 9 W/m 17,0 C 23,2 C 6,4 km/h (2 Bft) 97,96 %
15.09.2016 19:08 23,1 C 69 % 1008,6 hPa 0,0 l/m 4,0 km/h (1 Bft) O 83 0 min 0,000 mm 0,0 UV-I 7 W/m 17,1 C 23,1 C 6,4 km/h (2 Bft) 100,00 %
15.09.2016 19:10 22,9 C 69 % 1008,7 hPa 0,0 l/m 3,4 km/h (1 Bft) O 92 0 min 0,000 mm 0,0 UV-I 6 W/m 16,9 C 22,9 C 6,4 km/h (2 Bft) 97,87 %
15.09.2016 19:12 22,8 C 69 % 1008,6 hPa 0,0 l/m 3,4 km/h (1 Bft) O-NO 78 0 min 0,000 mm 0,0 UV-I 5 W/m 16,8 C 22,8 C 4,8 km/h (1 Bft) 100,00 %
15.09.2016 19:14 22,8 C 69 % 1008,7 hPa 0,0 l/m 3,2 km/h (1 Bft) O-NO 78 0 min 0,000 mm 0,0 UV-I 3 W/m 16,8 C 22,8 C 4,8 km/h (1 Bft) 100,00 %
15.09.2016 19:16 22,8 C 68 % 1008,7 hPa 0,0 l/m 2,3 km/h (1 Bft) O-NO 78 0 min 0,000 mm 0,0 UV-I 0 W/m 16,6 C 22,8 C 3,2 km/h (1 Bft) 100,00 %
15.09.2016 19:18 22,8 C 68 % 1008,6 hPa 0,0 l/m 3,4 km/h (1 Bft) O-NO 69 0 min 0,000 mm 0,0 UV-I 0 W/m 16,6 C 22,8 C 6,4 km/h (2 Bft) 97,87 %
15.09.2016 19:20 22,8 C 68 % 1008,6 hPa 0,0 l/m 3,2 km/h (1 Bft) O-NO 69 0 min 0,000 mm 0,0 UV-I 0 W/m 16,6 C 22,8 C 4,8 km/h (1 Bft) 97,87 %
15.09.2016 19:22 22,8 C 68 % 1008,6 hPa 0,0 l/m 2,6 km/h (1 Bft) O-NO 69 0 min 0,000 mm 0,0 UV-I 0 W/m 16,6 C 22,8 C 4,8 km/h (1 Bft) 100,00 %
15.09.2016 19:24 22,8 C 68 % 1008,7 hPa 0,0 l/m 3,6 km/h (1 Bft) O-NO 69 0 min 0,000 mm 0,0 UV-I 0 W/m 16,6 C 22,8 C 6,4 km/h (2 Bft) 100,00 %
15.09.2016 19:26 22,8 C 69 % 1008,7 hPa 0,0 l/m 2,6 km/h (1 Bft) O-NO 69 0 min 0,000 mm 0,0 UV-I 0 W/m 16,8 C 22,8 C 4,8 km/h (1 Bft) 100,00 %
15.09.2016 19:28 22,7 C 69 % 1008,6 hPa 0,0 l/m 3,3 km/h (1 Bft) O-NO 69 0 min 0,000 mm 0,0 UV-I 0 W/m 16,7 C 22,7 C 4,8 km/h (1 Bft) 100,00 %
15.09.2016 19:30 22,5 C 70 % 1008,7 hPa 0,0 l/m 3,4 km/h (1 Bft) O-NO 69 0 min 0,000 mm 0,0 UV-I 0 W/m 16,7 C 22,5 C 4,8 km/h (1 Bft) 98,00 %
15.09.2016 19:32 22,2 C 71 % 1008,6 hPa 0,0 l/m 3,0 km/h (1 Bft) O-NO 69 0 min 0,000 mm 0,0 UV-I 0 W/m 16,7 C 22,2 C 4,8 km/h (1 Bft) 97,87 %
15.09.2016 19:34 22,1 C 72 % 1008,6 hPa 0,0 l/m 3,2 km/h (1 Bft) O-NO 73 0 min 0,000 mm 0,0 UV-I 0 W/m 16,8 C 22,1 C 4,8 km/h (1 Bft) 95,74 %
15.09.2016 19:36 21,9 C 72 % 1008,6 hPa 0,0 l/m 2,5 km/h (1 Bft) O-NO 73 0 min 0,000 mm 0,0 UV-I 0 W/m 16,6 C 21,9 C 3,2 km/h (1 Bft) 95,74 %
15.09.2016 19:38 22,0 C 71 % 1008,7 hPa 0,0 l/m 2,4 km/h (1 Bft) O-NO 73 0 min 0,000 mm 0,0 UV-I 0 W/m 16,5 C 22,0 C 4,8 km/h (1 Bft) 92,31 %
15.09.2016 19:40 22,1 C 71 % 1008,6 hPa 0,0 l/m 2,8 km/h (1 Bft) O-NO 73 0 min 0,000 mm 0,0 UV-I 0 W/m 16,6 C 22,1 C 4,8 km/h (1 Bft) 95,74 %
15.09.2016 19:42 22,1 C 71 % 1008,6 hPa 0,0 l/m 2,8 km/h (1 Bft) O-NO 73 0 min 0,000 mm 0,0 UV-I 0 W/m 16,6 C 22,1 C 4,8 km/h (1 Bft) 95,74 %
15.09.2016 19:44 22,1 C 71 % 1008,6 hPa 0,0 l/m 3,0 km/h (1 Bft) O-NO 73 0 min 0,000 mm 0,0 UV-I 0 W/m 16,6 C 22,1 C 4,8 km/h (1 Bft) 97,87 %
15.09.2016 19:46 22,1 C 71 % 1008,7 hPa 0,0 l/m 2,5 km/h (1 Bft) O-NO 73 0 min 0,000 mm 0,0 UV-I 0 W/m 16,6 C 22,1 C 3,2 km/h (1 Bft) 97,87 %
15.09.2016 19:48 22,1 C 71 % 1008,7 hPa 0,0 l/m 3,1 km/h (1 Bft) O-NO 73 0 min 0,000 mm 0,0 UV-I 0 W/m 16,6 C 22,1 C 4,8 km/h (1 Bft) 95,74 %
15.09.2016 19:50 22,1 C 70 % 1008,6 hPa 0,0 l/m 3,2 km/h (1 Bft) O-NO 73 0 min 0,000 mm 0,0 UV-I 0 W/m 16,4 C 22,1 C 4,8 km/h (1 Bft) 95,74 %
15.09.2016 19:52 22,1 C 70 % 1008,7 hPa 0,0 l/m 3,8 km/h (1 Bft) O-NO 73 0 min 0,000 mm 0,0 UV-I 0 W/m 16,4 C 22,1 C 4,8 km/h (1 Bft) 96,00 %
15.09.2016 19:54 21,9 C 71 % 1008,7 hPa 0,0 l/m 3,6 km/h (1 Bft) O-NO 73 0 min 0,000 mm 0,0 UV-I 0 W/m 16,4 C 21,9 C 4,8 km/h (1 Bft) 95,92 %
15.09.2016 19:56 21,8 C 71 % 1008,7 hPa 0,0 l/m 3,4 km/h (1 Bft) O-NO 73 0 min 0,000 mm 0,0 UV-I 0 W/m 16,3 C 21,8 C 4,8 km/h (1 Bft) 95,74 %
15.09.2016 19:58 21,7 C 72 % 1008,6 hPa 0,0 l/m 4,1 km/h (1 Bft) O-NO 74 0 min 0,000 mm 0,0 UV-I 0 W/m 16,4 C 21,7 C 6,4 km/h (2 Bft) 96,00 %
15.09.2016 20:00 21,6 C 72 % 1008,7 hPa 0,0 l/m 4,5 km/h (1 Bft) O-NO 74 0 min 0,000 mm 0,0 UV-I 0 W/m 16,3 C 21,6 C 6,4 km/h (2 Bft) 97,14 %
15.09.2016 20:02 21,6 C 72 % 1008,6 hPa 0,0 l/m 4,8 km/h (1 Bft) O-NO 71 0 min 0,026 mm 0,0 UV-I 0 W/m 16,3 C 21,6 C 6,4 km/h (2 Bft) 97,87 %
15.09.2016 20:04 21,5 C 72 % 1008,6 hPa 0,0 l/m 4,8 km/h (1 Bft) O-NO 69 0 min 0,000 mm 0,0 UV-I 0 W/m 16,2 C 21,5 C 6,4 km/h (2 Bft) 100,00 %
15.09.2016 20:06 21,5 C 72 % 1008,6 hPa 0,0 l/m 4,3 km/h (1 Bft) O-NO 70 0 min 0,000 mm 0,0 UV-I 0 W/m 16,2 C 21,5 C 6,4 km/h (2 Bft) 96,00 %
15.09.2016 20:08 21,6 C 72 % 1008,7 hPa 0,0 l/m 5,2 km/h (1 Bft) O-NO 73 0 min 0,000 mm 0,0 UV-I 0 W/m 16,3 C 21,6 C 6,4 km/h (2 Bft) 95,74 %
15.09.2016 20:10 21,6 C 72 % 1008,7 hPa 0,0 l/m 5,0 km/h (1 Bft) O-NO 73 0 min 0,000 mm 0,0 UV-I 0 W/m 16,3 C 21,6 C 6,4 km/h (2 Bft) 100,00 %
15.09.2016 20:12 21,6 C 72 % 1008,7 hPa 0,0 l/m 5,7 km/h (1 Bft) O 81 0 min 0,000 mm 0,0 UV-I 0 W/m 16,3 C 21,6 C 8,0 km/h (2 Bft) 100,00 %
15.09.2016 20:14 21,6 C 72 % 1008,7 hPa 0,0 l/m 5,4 km/h (1 Bft) O-NO 71 0 min 0,000 mm 0,0 UV-I 0 W/m 16,3 C 21,6 C 6,4 km/h (2 Bft) 95,74 %
15.09.2016 20:16 21,7 C 71 % 1008,7 hPa 0,0 l/m 4,2 km/h (1 Bft) O-NO 69 0 min 0,000 mm 0,0 UV-I 0 W/m 16,2 C 21,7 C 6,4 km/h (2 Bft) 100,00 %
15.09.2016 20:18 21,8 C 71 % 1008,7 hPa 0,0 l/m 5,1 km/h (1 Bft) O-NO 57 0 min 0,000 mm 0,0 UV-I 0 W/m 16,3 C 21,8 C 6,4 km/h (2 Bft) 100,00 %
15.09.2016 20:20 21,8 C 71 % 1008,7 hPa 0,0 l/m 4,0 km/h (1 Bft) O-NO 57 0 min 0,000 mm 0,0 UV-I 0 W/m 16,3 C 21,8 C 6,4 km/h (2 Bft) 98,00 %
15.09.2016 20:22 21,8 C 71 % 1008,7 hPa 0,0 l/m 4,0 km/h (1 Bft) O-NO 67 0 min 0,000 mm 0,0 UV-I 0 W/m 16,3 C 21,8 C 6,4 km/h (2 Bft) 97,87 %
15.09.2016 20:24 21,6 C 72 % 1008,7 hPa 0,0 l/m 4,8 km/h (1 Bft) O-NO 70 0 min 0,000 mm 0,0 UV-I 0 W/m 16,3 C 21,6 C 6,4 km/h (2 Bft) 95,74 %
15.09.2016 20:26 21,6 C 72 % 1008,7 hPa 0,0 l/m 4,9 km/h (1 Bft) O-NO 69 0 min 0,000 mm 0,0 UV-I 0 W/m 16,3 C 21,6 C 6,4 km/h (2 Bft) 97,87 %
15.09.2016 20:28 21,5 C 72 % 1008,7 hPa 0,0 l/m 5,3 km/h (1 Bft) O-NO 69 0 min 0,000 mm 0,0 UV-I 0 W/m 16,2 C 21,5 C 6,4 km/h (2 Bft) 95,74 %
15.09.2016 20:30 21,5 C 72 % 1008,7 hPa 0,0 l/m 5,7 km/h (1 Bft) O 81 0 min 0,000 mm 0,0 UV-I 0 W/m 16,2 C 21,5 C 8,0 km/h (2 Bft) 95,74 %
15.09.2016 20:32 21,4 C 72 % 1008,8 hPa 0,0 l/m 6,1 km/h (2 Bft) O 84 0 min 0,000 mm 0,0 UV-I 0 W/m 16,1 C 21,4 C 8,0 km/h (2 Bft) 97,87 %
15.09.2016 20:34 21,5 C 72 % 1008,8 hPa 0,0 l/m 5,7 km/h (1 Bft) O 98 0 min 0,000 mm 0,0 UV-I 0 W/m 16,2 C 21,5 C 9,7 km/h (2 Bft) 97,37 %
15.09.2016 20:36 21,6 C 71 % 1008,8 hPa 0,0 l/m 6,4 km/h (2 Bft) O 87 0 min 0,000 mm 0,0 UV-I 0 W/m 16,1 C 21,6 C 12,9 km/h (3 Bft) 100,00 %
15.09.2016 20:38 21,7 C 71 % 1008,8 hPa 0,0 l/m 6,0 km/h (2 Bft) O-NO 77 0 min 0,000 mm 0,0 UV-I 0 W/m 16,2 C 21,7 C 9,7 km/h (2 Bft) 97,87 %
15.09.2016 20:40 21,7 C 71 % 1008,8 hPa 0,0 l/m 5,7 km/h (1 Bft) O 101 0 min 0,000 mm 0,0 UV-I 0 W/m 16,2 C 21,7 C 9,7 km/h (2 Bft) 100,00 %
15.09.2016 20:42 21,6 C 71 % 1008,8 hPa 0,0 l/m 6,5 km/h (2 Bft) O 99 0 min 0,000 mm 0,0 UV-I 0 W/m 16,1 C 21,6 C 11,3 km/h (2 Bft) 97,87 %
15.09.2016 20:44 21,6 C 71 % 1008,8 hPa 0,0 l/m 7,6 km/h (2 Bft) O-NO 75 0 min 0,000 mm 0,0 UV-I 0 W/m 16,1 C 21,2 C 14,5 km/h (3 Bft) 100,00 %
15.09.2016 20:46 21,7 C 70 % 1008,8 hPa 0,0 l/m 7,8 km/h (2 Bft) O-NO 78 0 min 0,000 mm 0,0 UV-I 0 W/m 16,0 C 21,2 C 11,3 km/h (2 Bft) 100,00 %
15.09.2016 20:48 21,8 C 70 % 1008,8 hPa 0,0 l/m 6,6 km/h (2 Bft) O-NO 71 0 min 0,000 mm 0,0 UV-I 0 W/m 16,1 C 21,7 C 8,0 km/h (2 Bft) 100,00 %
15.09.2016 20:50 21,8 C 70 % 1008,7 hPa 0,0 l/m 6,3 km/h (2 Bft) O-NO 71 0 min 0,000 mm 0,0 UV-I 0 W/m 16,1 C 21,8 C 8,0 km/h (2 Bft) 100,00 %
15.09.2016 20:52 21,8 C 70 % 1008,8 hPa 0,0 l/m 5,0 km/h (1 Bft) O-NO 71 0 min 0,000 mm 0,0 UV-I 0 W/m 16,1 C 21,8 C 6,4 km/h (2 Bft) 100,00 %
15.09.2016 20:54 21,8 C 70 % 1008,8 hPa 0,0 l/m 5,1 km/h (1 Bft) O-NO 70 0 min 0,000 mm 0,0 UV-I 0 W/m 16,1 C 21,8 C 8,0 km/h (2 Bft) 100,00 %
15.09.2016 20:56 21,8 C 70 % 1008,7 hPa 0,0 l/m 5,7 km/h (1 Bft) NO 55 0 min 0,000 mm 0,0 UV-I 0 W/m 16,1 C 21,8 C 8,0 km/h (2 Bft) 100,00 %
15.09.2016 20:58 21,8 C 71 % 1008,7 hPa 0,0 l/m 6,3 km/h (2 Bft) NO 56 0 min 0,000 mm 0,0 UV-I 0 W/m 16,3 C 21,8 C 8,0 km/h (2 Bft) 100,00 %
15.09.2016 21:00 21,7 C 71 % 1008,7 hPa 0,0 l/m 6,9 km/h (2 Bft) NO 44 0 min 0,025 mm 0,0 UV-I 0 W/m 16,2 C 21,5 C 9,7 km/h (2 Bft) 100,00 %
15.09.2016 21:02 21,6 C 71 % 1008,7 hPa 0,0 l/m 6,4 km/h (2 Bft) O-NO 71 0 min 0,000 mm 0,0 UV-I 0 W/m 16,1 C 21,6 C 8,0 km/h (2 Bft) 100,00 %
15.09.2016 21:04 21,4 C 72 % 1008,7 hPa 0,0 l/m 6,8 km/h (2 Bft) O-NO 58 0 min 0,000 mm 0,0 UV-I 0 W/m 16,1 C 21,3 C 9,7 km/h (2 Bft) 95,74 %
15.09.2016 21:06 21,4 C 72 % 1008,7 hPa 0,0 l/m 5,6 km/h (1 Bft) O-NO 71 0 min 0,000 mm 0,0 UV-I 0 W/m 16,1 C 21,4 C 11,3 km/h (2 Bft) 95,74 %
15.09.2016 21:08 21,3 C 72 % 1008,7 hPa 0,0 l/m 5,5 km/h (1 Bft) O-NO 58 0 min 0,000 mm 0,0 UV-I 0 W/m 16,0 C 21,3 C 8,0 km/h (2 Bft) 100,00 %
15.09.2016 21:10 21,3 C 72 % 1008,7 hPa 0,0 l/m 5,3 km/h (1 Bft) O-NO 66 0 min 0,000 mm 0,0 UV-I 0 W/m 16,0 C 21,3 C 8,0 km/h (2 Bft) 100,00 %
15.09.2016 21:12 21,3 C 72 % 1008,7 hPa 0,0 l/m 6,0 km/h (2 Bft) O-NO 65 0 min 0,000 mm 0,0 UV-I 0 W/m 16,0 C 21,3 C 8,0 km/h (2 Bft) 100,00 %
15.09.2016 21:14 21,2 C 72 % 1008,7 hPa 0,0 l/m 5,9 km/h (2 Bft) O-NO 63 0 min 0,000 mm 0,0 UV-I 0 W/m 15,9 C 21,2 C 9,7 km/h (2 Bft) 97,87 %
15.09.2016 21:16 21,2 C 72 % 1008,8 hPa 0,0 l/m 4,9 km/h (1 Bft) O-NO 74 0 min 0,000 mm 0,0 UV-I 0 W/m 15,9 C 21,2 C 6,4 km/h (2 Bft) 100,00 %
15.09.2016 21:18 21,2 C 72 % 1008,8 hPa 0,0 l/m 5,2 km/h (1 Bft) O-NO 72 0 min 0,000 mm 0,0 UV-I 0 W/m 15,9 C 21,2 C 6,4 km/h (2 Bft) 97,87 %
15.09.2016 21:20 21,2 C 72 % 1008,8 hPa 0,0 l/m 3,9 km/h (1 Bft) O 82 0 min 0,000 mm 0,0 UV-I 0 W/m 15,9 C 21,2 C 6,4 km/h (2 Bft) 100,00 %
15.09.2016 21:22 21,2 C 72 % 1008,8 hPa 0,0 l/m 0,8 km/h (0 Bft) O 82 0 min 0,000 mm 0,0 UV-I 0 W/m 15,9 C 21,2 C 3,2 km/h (1 Bft) 100,00 %
15.09.2016 21:24 21,2 C 72 % 1008,9 hPa 0,0 l/m 0,2 km/h (0 Bft) O 82 0 min 0,000 mm 0,0 UV-I 0 W/m 15,9 C 21,2 C 1,6 km/h (1 Bft) 100,00 %
15.09.2016 21:26 21,0 C 74 % 1008,8 hPa 0,0 l/m 0,0 km/h (0 Bft) O 82 0 min 0,000 mm 0,0 UV-I 0 W/m 16,2 C 21,0 C 1,6 km/h (1 Bft) 100,00 %
15.09.2016 21:28 20,7 C 75 % 1008,8 hPa 0,0 l/m 0,7 km/h (0 Bft) O 82 0 min 0,000 mm 0,0 UV-I 0 W/m 16,1 C 20,7 C 3,2 km/h (1 Bft) 100,00 %
15.09.2016 21:30 20,6 C 76 % 1008,9 hPa 0,0 l/m 1,4 km/h (1 Bft) O 82 0 min 0,000 mm 0,0 UV-I 0 W/m 16,2 C 20,6 C 3,2 km/h (1 Bft) 100,00 %
15.09.2016 21:32 20,4 C 76 % 1008,9 hPa 0,0 l/m 0,2 km/h (0 Bft) O 82 0 min 0,000 mm 0,0 UV-I 0 W/m 16,0 C 20,4 C 1,6 km/h (1 Bft) 95,83 %
15.09.2016 21:34 20,3 C 76 % 1008,8 hPa 0,0 l/m 0,0 km/h (0 Bft) O 82 0 min 0,000 mm 0,0 UV-I 0 W/m 15,9 C 20,3 C 0,0 km/h (0 Bft) 97,87 %
15.09.2016 21:36 20,2 C 77 % 1008,8 hPa 0,0 l/m 0,0 km/h (0 Bft) O 82 0 min 0,000 mm 0,0 UV-I 0 W/m 16,0 C 20,2 C 0,0 km/h (0 Bft) 97,87 %
15.09.2016 21:38 20,2 C 77 % 1008,9 hPa 0,0 l/m 0,5 km/h (0 Bft) O 82 0 min 0,000 mm 0,0 UV-I 0 W/m 16,0 C 20,2 C 1,6 km/h (1 Bft) 95,74 %
15.09.2016 21:40 20,1 C 77 % 1008,9 hPa 0,0 l/m 1,4 km/h (1 Bft) O 82 0 min 0,000 mm 0,0 UV-I 0 W/m 15,9 C 20,1 C 3,2 km/h (1 Bft) 97,87 %
15.09.2016 21:42 20,1 C 77 % 1008,9 hPa 0,0 l/m 2,3 km/h (1 Bft) O 82 0 min 0,000 mm 0,0 UV-I 0 W/m 15,9 C 20,1 C 3,2 km/h (1 Bft) 95,74 %
15.09.2016 21:44 20,1 C 77 % 1008,9 hPa 0,0 l/m 2,5 km/h (1 Bft) O 82 0 min 0,000 mm 0,0 UV-I 0 W/m 15,9 C 20,1 C 4,8 km/h (1 Bft) 97,87 %
15.09.2016 21:46 19,9 C 78 % 1008,9 hPa 0,0 l/m 2,5 km/h (1 Bft) O 82 0 min 0,000 mm 0,0 UV-I 0 W/m 15,9 C 19,9 C 3,2 km/h (1 Bft) 97,87 %
15.09.2016 21:48 19,7 C 79 % 1008,9 hPa 0,0 l/m 2,3 km/h (1 Bft) O 82 0 min 0,000 mm 0,0 UV-I 0 W/m 16,0 C 19,7 C 3,2 km/h (1 Bft) 95,74 %
15.09.2016 21:50 19,5 C 79 % 1008,9 hPa 0,0 l/m 1,6 km/h (1 Bft) O 82 0 min 0,000 mm 0,0 UV-I 0 W/m 15,8 C 19,5 C 3,2 km/h (1 Bft) 97,87 %
15.09.2016 21:52 19,4 C 80 % 1008,9 hPa 0,0 l/m 1,0 km/h (0 Bft) O 82 0 min 0,000 mm 0,0 UV-I 0 W/m 15,9 C 19,4 C 1,6 km/h (1 Bft) 97,87 %
15.09.2016 21:54 19,4 C 80 % 1008,9 hPa 0,0 l/m 0,3 km/h (0 Bft) O 82 0 min 0,000 mm 0,0 UV-I 0 W/m 15,9 C 19,4 C 1,6 km/h (1 Bft) 97,87 %
15.09.2016 21:56 19,3 C 80 % 1008,9 hPa 0,0 l/m 0,0 km/h (0 Bft) O 82 0 min 0,000 mm 0,0 UV-I 0 W/m 15,8 C 19,3 C 1,6 km/h (1 Bft) 95,74 %
15.09.2016 21:58 19,2 C 81 % 1009,0 hPa 0,0 l/m 0,7 km/h (0 Bft) O 82 0 min 0,000 mm 0,0 UV-I 0 W/m 15,9 C 19,2 C 3,2 km/h (1 Bft) 91,49 %
15.09.2016 22:00 18,9 C 82 % 1009,0 hPa 0,0 l/m 0,4 km/h (0 Bft) O 82 0 min 0,000 mm 0,0 UV-I 0 W/m 15,8 C 18,9 C 1,6 km/h (1 Bft) 97,87 %
15.09.2016 22:02 18,9 C 83 % 1009,0 hPa 0,0 l/m 1,0 km/h (0 Bft) O 82 0 min 0,025 mm 0,0 UV-I 0 W/m 15,9 C 18,9 C 1,6 km/h (1 Bft) 93,62 %
15.09.2016 22:04 18,9 C 82 % 1009,0 hPa 0,0 l/m 0,3 km/h (0 Bft) O 82 0 min 0,000 mm 0,0 UV-I 0 W/m 15,8 C 18,9 C 1,6 km/h (1 Bft) 97,37 %
15.09.2016 22:06 19,0 C 82 % 1009,0 hPa 0,0 l/m 0,1 km/h (0 Bft) O 82 0 min 0,000 mm 0,0 UV-I 0 W/m 15,9 C 19,0 C 1,6 km/h (1 Bft) 95,74 %
15.09.2016 22:08 18,9 C 82 % 1009,0 hPa 0,0 l/m 0,0 km/h (0 Bft) O 82 0 min 0,000 mm 0,0 UV-I 0 W/m 15,8 C 18,9 C 0,0 km/h (0 Bft) 100,00 %
15.09.2016 22:10 18,9 C 82 % 1009,1 hPa 0,0 l/m 1,3 km/h (1 Bft) O 82 0 min 0,000 mm 0,0 UV-I 0 W/m 15,8 C 18,9 C 3,2 km/h (1 Bft) 97,87 %
15.09.2016 22:12 18,9 C 83 % 1009,1 hPa 0,0 l/m 3,0 km/h (1 Bft) O 88 0 min 0,000 mm 0,0 UV-I 0 W/m 15,9 C 18,9 C 3,2 km/h (1 Bft) 100,00 %
15.09.2016 22:14 18,8 C 83 % 1009,1 hPa 0,0 l/m 1,5 km/h (1 Bft) O 88 0 min 0,000 mm 0,0 UV-I 0 W/m 15,8 C 18,8 C 3,2 km/h (1 Bft) 100,00 %
15.09.2016 22:16 18,7 C 83 % 1009,1 hPa 0,0 l/m 0,2 km/h (0 Bft) O 88 0 min 0,000 mm 0,0 UV-I 0 W/m 15,8 C 18,7 C 1,6 km/h (1 Bft) 100,00 %
15.09.2016 22:18 18,6 C 83 % 1009,1 hPa 0,0 l/m 0,0 km/h (0 Bft) O 88 0 min 0,000 mm 0,0 UV-I 0 W/m 15,7 C 18,6 C 0,0 km/h (0 Bft) 97,87 %
15.09.2016 22:20 18,6 C 84 % 1009,2 hPa 0,0 l/m 1,7 km/h (1 Bft) O-SO 111 0 min 0,000 mm 0,0 UV-I 0 W/m 15,8 C 18,6 C 3,2 km/h (1 Bft) 97,87 %
15.09.2016 22:22 18,5 C 84 % 1009,2 hPa 0,0 l/m 3,0 km/h (1 Bft) O-SO 111 0 min 0,000 mm 0,0 UV-I 0 W/m 15,7 C 18,5 C 4,8 km/h (1 Bft) 100,00 %
15.09.2016 22:24 18,4 C 84 % 1009,2 hPa 0,0 l/m 2,8 km/h (1 Bft) O-SO 111 0 min 0,000 mm 0,0 UV-I 0 W/m 15,6 C 18,4 C 4,8 km/h (1 Bft) 100,00 %
15.09.2016 22:26 18,3 C 85 % 1009,3 hPa 0,0 l/m 1,7 km/h (1 Bft) O-SO 111 0 min 0,000 mm 0,0 UV-I 0 W/m 15,7 C 18,3 C 3,2 km/h (1 Bft) 97,87 %
15.09.2016 22:28 18,3 C 85 % 1009,3 hPa 0,0 l/m 0,8 km/h (0 Bft) O-SO 111 0 min 0,000 mm 0,0 UV-I 0 W/m 15,7 C 18,3 C 1,6 km/h (1 Bft) 100,00 %
15.09.2016 22:30 18,3 C 84 % 1009,2 hPa 0,0 l/m 0,5 km/h (0 Bft) O-SO 111 0 min 0,000 mm 0,0 UV-I 0 W/m 15,5 C 18,3 C 1,6 km/h (1 Bft) 97,87 %
15.09.2016 22:32 18,2 C 85 % 1009,3 hPa 0,0 l/m 0,0 km/h (0 Bft) O-SO 111 0 min 0,000 mm 0,0 UV-I 0 W/m 15,6 C 18,2 C 1,6 km/h (1 Bft) 97,87 %
15.09.2016 22:34 18,1 C 85 % 1009,3 hPa 0,0 l/m 1,6 km/h (1 Bft) O-SO 111 0 min 0,000 mm 0,0 UV-I 0 W/m 15,5 C 18,1 C 3,2 km/h (1 Bft) 100,00 %
15.09.2016 22:36 18,2 C 86 % 1009,3 hPa 0,0 l/m 3,9 km/h (1 Bft) S-SW 194 0 min 0,000 mm 0,0 UV-I 0 W/m 15,8 C 18,2 C 6,4 km/h (2 Bft) 100,00 %
15.09.2016 22:38 18,1 C 86 % 1009,4 hPa 0,0 l/m 5,0 km/h (1 Bft) S 184 0 min 0,000 mm 0,0 UV-I 0 W/m 15,7 C 18,1 C 6,4 km/h (2 Bft) 95,74 %
15.09.2016 22:40 18,1 C 86 % 1009,3 hPa 0,0 l/m 2,5 km/h (1 Bft) S 184 0 min 0,000 mm 0,0 UV-I 0 W/m 15,7 C 18,1 C 4,8 km/h (1 Bft) 100,00 %
15.09.2016 22:42 18,1 C 86 % 1009,3 hPa 0,0 l/m 1,3 km/h (1 Bft) S 184 0 min 0,000 mm 0,0 UV-I 0 W/m 15,7 C 18,1 C 3,2 km/h (1 Bft) 100,00 %
15.09.2016 22:44 18,1 C 86 % 1009,3 hPa 0,0 l/m 1,3 km/h (1 Bft) S 184 0 min 0,000 mm 0,0 UV-I 0 W/m 15,7 C 18,1 C 3,2 km/h (1 Bft) 100,00 %
15.09.2016 22:46 18,1 C 86 % 1009,4 hPa 0,0 l/m 0,2 km/h (0 Bft) S 184 0 min 0,000 mm 0,0 UV-I 0 W/m 15,7 C 18,1 C 1,6 km/h (1 Bft) 100,00 %
15.09.2016 22:48 18,1 C 86 % 1009,3 hPa 0,0 l/m 0,0 km/h (0 Bft) S 184 0 min 0,000 mm 0,0 UV-I 0 W/m 15,7 C 18,1 C 1,6 km/h (1 Bft) 97,87 %
15.09.2016 22:50 18,2 C 86 % 1009,4 hPa 0,0 l/m 0,0 km/h (0 Bft) S 184 0 min 0,000 mm 0,0 UV-I 0 W/m 15,8 C 18,2 C 0,0 km/h (0 Bft) 100,00 %
15.09.2016 22:52 18,3 C 86 % 1009,4 hPa 0,0 l/m 0,0 km/h (0 Bft) S 184 0 min 0,000 mm 0,0 UV-I 0 W/m 15,9 C 18,3 C 0,0 km/h (0 Bft) 100,00 %
15.09.2016 22:54 18,3 C 85 % 1009,4 hPa 0,0 l/m 0,7 km/h (0 Bft) S 184 0 min 0,000 mm 0,0 UV-I 0 W/m 15,7 C 18,3 C 3,2 km/h (1 Bft) 100,00 %
15.09.2016 22:56 18,2 C 86 % 1009,4 hPa 0,0 l/m 0,1 km/h (0 Bft) S 184 0 min 0,000 mm 0,0 UV-I 0 W/m 15,8 C 18,2 C 1,6 km/h (1 Bft) 100,00 %
15.09.2016 22:58 18,1 C 86 % 1009,4 hPa 0,0 l/m 0,0 km/h (0 Bft) S 184 0 min 0,000 mm 0,0 UV-I 0 W/m 15,7 C 18,1 C 0,0 km/h (0 Bft) 100,00 %
15.09.2016 23:00 18,0 C 86 % 1009,4 hPa 0,0 l/m 0,0 km/h (0 Bft) S 184 0 min 0,000 mm 0,0 UV-I 0 W/m 15,6 C 18,0 C 0,0 km/h (0 Bft) 95,74 %
15.09.2016 23:02 17,9 C 86 % 1009,4 hPa 0,0 l/m 0,0 km/h (0 Bft) S 184 0 min 0,000 mm 0,0 UV-I 0 W/m 15,5 C 17,9 C 0,0 km/h (0 Bft) 100,00 %
15.09.2016 23:04 17,9 C 87 % 1009,4 hPa 0,0 l/m 0,4 km/h (0 Bft) S 184 0 min 0,000 mm 0,0 UV-I 0 W/m 15,7 C 17,9 C 1,6 km/h (1 Bft) 100,00 %
15.09.2016 23:06 17,9 C 87 % 1009,4 hPa 0,0 l/m 0,3 km/h (0 Bft) S 184 0 min 0,000 mm 0,0 UV-I 0 W/m 15,7 C 17,9 C 1,6 km/h (1 Bft) 95,74 %
15.09.2016 23:08 17,8 C 87 % 1009,5 hPa 0,0 l/m 0,5 km/h (0 Bft) S 184 0 min 0,000 mm 0,0 UV-I 0 W/m 15,6 C 17,8 C 3,2 km/h (1 Bft) 100,00 %
15.09.2016 23:10 17,7 C 87 % 1009,4 hPa 0,0 l/m 2,0 km/h (1 Bft) S 184 0 min 0,000 mm 0,0 UV-I 0 W/m 15,5 C 17,7 C 3,2 km/h (1 Bft) 97,96 %
15.09.2016 23:12 17,8 C 87 % 1009,5 hPa 0,0 l/m 1,1 km/h (1 Bft) S 184 0 min 0,000 mm 0,0 UV-I 0 W/m 15,6 C 17,8 C 1,6 km/h (1 Bft) 97,87 %
15.09.2016 23:14 17,8 C 87 % 1009,5 hPa 0,0 l/m 1,1 km/h (1 Bft) S 191 0 min 0,000 mm 0,0 UV-I 0 W/m 15,6 C 17,8 C 4,8 km/h (1 Bft) 97,87 %
15.09.2016 23:16 17,9 C 87 % 1009,6 hPa 0,0 l/m 4,7 km/h (1 Bft) S-SW 193 0 min 0,000 mm 0,0 UV-I 0 W/m 15,7 C 17,9 C 6,4 km/h (2 Bft) 100,00 %
15.09.2016 23:18 17,8 C 87 % 1009,6 hPa 0,0 l/m 3,7 km/h (1 Bft) S-SW 193 0 min 0,000 mm 0,0 UV-I 0 W/m 15,6 C 17,8 C 4,8 km/h (1 Bft) 100,00 %
15.09.2016 23:20 17,7 C 87 % 1009,5 hPa 0,0 l/m 3,4 km/h (1 Bft) S-SW 193 0 min 0,000 mm 0,0 UV-I 0 W/m 15,5 C 17,7 C 4,8 km/h (1 Bft) 97,87 %
15.09.2016 23:22 17,6 C 88 % 1009,5 hPa 0,0 l/m 1,1 km/h (1 Bft) S-SW 193 0 min 0,000 mm 0,0 UV-I 0 W/m 15,6 C 17,6 C 3,2 km/h (1 Bft) 100,00 %
15.09.2016 23:24 17,5 C 88 % 1009,5 hPa 0,0 l/m 0,3 km/h (0 Bft) S-SW 193 0 min 0,000 mm 0,0 UV-I 0 W/m 15,5 C 17,5 C 1,6 km/h (1 Bft) 93,62 %
15.09.2016 23:26 17,4 C 88 % 1009,6 hPa 0,0 l/m 0,1 km/h (0 Bft) S-SW 193 0 min 0,000 mm 0,0 UV-I 0 W/m 15,4 C 17,4 C 1,6 km/h (1 Bft) 97,87 %
15.09.2016 23:28 17,3 C 89 % 1009,6 hPa 0,0 l/m 1,2 km/h (1 Bft) S-SW 193 0 min 0,000 mm 0,0 UV-I 0 W/m 15,5 C 17,3 C 3,2 km/h (1 Bft) 100,00 %
15.09.2016 23:30 17,4 C 89 % 1009,5 hPa 0,0 l/m 1,1 km/h (1 Bft) S-SW 193 0 min 0,000 mm 0,0 UV-I 0 W/m 15,6 C 17,4 C 1,6 km/h (1 Bft) 97,87 %
15.09.2016 23:32 17,4 C 89 % 1009,5 hPa 0,0 l/m 1,5 km/h (1 Bft) S-SW 193 0 min 0,000 mm 0,0 UV-I 0 W/m 15,6 C 17,4 C 3,2 km/h (1 Bft) 97,87 %
15.09.2016 23:34 17,6 C 89 % 1009,5 hPa 0,0 l/m 0,2 km/h (0 Bft) S-SW 193 0 min 0,000 mm 0,0 UV-I 0 W/m 15,8 C 17,6 C 1,6 km/h (1 Bft) 95,83 %
15.09.2016 23:36 17,8 C 88 % 1009,5 hPa 0,0 l/m 0,0 km/h (0 Bft) S-SW 193 0 min 0,000 mm 0,0 UV-I 0 W/m 15,8 C 17,8 C 0,0 km/h (0 Bft) 97,37 %
15.09.2016 23:38 17,9 C 87 % 1009,6 hPa 0,0 l/m 0,3 km/h (0 Bft) S-SW 193 0 min 0,000 mm 0,0 UV-I 0 W/m 15,7 C 17,9 C 1,6 km/h (1 Bft) 93,62 %
15.09.2016 23:40 17,9 C 87 % 1009,6 hPa 0,0 l/m 0,5 km/h (0 Bft) S-SW 193 0 min 0,000 mm 0,0 UV-I 0 W/m 15,7 C 17,9 C 1,6 km/h (1 Bft) 97,87 %
15.09.2016 23:42 17,8 C 87 % 1009,5 hPa 0,0 l/m 1,5 km/h (1 Bft) S-SW 193 0 min 0,000 mm 0,0 UV-I 0 W/m 15,6 C 17,8 C 3,2 km/h (1 Bft) 97,87 %
15.09.2016 23:44 17,7 C 86 % 1009,5 hPa 0,0 l/m 3,0 km/h (1 Bft) S-SW 193 0 min 0,000 mm 0,0 UV-I 0 W/m 15,3 C 17,7 C 4,8 km/h (1 Bft) 95,74 %
15.09.2016 23:46 17,5 C 87 % 1009,5 hPa 0,0 l/m 3,7 km/h (1 Bft) S-SW 192 0 min 0,000 mm 0,0 UV-I 0 W/m 15,3 C 17,5 C 4,8 km/h (1 Bft) 97,87 %
15.09.2016 23:48 17,4 C 88 % 1009,6 hPa 0,0 l/m 2,2 km/h (1 Bft) S-SW 192 0 min 0,000 mm 0,0 UV-I 0 W/m 15,4 C 17,4 C 3,2 km/h (1 Bft) 98,00 %
15.09.2016 23:50 17,4 C 89 % 1009,5 hPa 0,0 l/m 0,6 km/h (0 Bft) S-SW 192 0 min 0,000 mm 0,0 UV-I 0 W/m 15,6 C 17,4 C 3,2 km/h (1 Bft) 97,87 %
15.09.2016 23:52 17,4 C 89 % 1009,5 hPa 0,0 l/m 0,0 km/h (0 Bft) S-SW 192 0 min 0,000 mm 0,0 UV-I 0 W/m 15,6 C 17,4 C 1,6 km/h (1 Bft) 97,87 %
15.09.2016 23:54 17,5 C 89 % 1009,6 hPa 0,0 l/m 0,0 km/h (0 Bft) S-SW 192 0 min 0,000 mm 0,0 UV-I 0 W/m 15,7 C 17,5 C 0,0 km/h (0 Bft) 97,87 %
15.09.2016 23:56 17,5 C 88 % 1009,6 hPa 0,0 l/m 0,0 km/h (0 Bft) S-SW 192 0 min 0,000 mm 0,0 UV-I 0 W/m 15,5 C 17,5 C 0,0 km/h (0 Bft) 97,87 %
15.09.2016 23:58 17,4 C 88 % 1009,6 hPa 0,0 l/m 0,0 km/h (0 Bft) S-SW 192 0 min 0,000 mm 0,0 UV-I 0 W/m 15,4 C 17,4 C 0,0 km/h (0 Bft) 96,00 %
_ Min-Zeit 07:00 15:38 19:08 - 21:26 - - - - - - 06:54 07:36 21:34 00:20
Minimum _ 15,7 C 50 % 1008,6 hPa - 0,0 km/h (0 Bft) - - - - - - 13,6 C 11,6 C 0,0 km/h (0 Bft) 91,49 %
_ Max-Zeit 16:08 23:28 00:02 00:00 05:16 - - 06:52 13:00 12:36 12:54 15:16 15:26 03:32 00:32
Maximum _ 27,9 C 89 % 1012,0 hPa 0,0 l/m 21,2 km/h
O-NO (4 Bft)
- - 2 min 0,483 mm 3,8 UV-I 669 W/m 17,8 C 27,8 C 33,8 km/h
O-NO (5 Bft)
100,00 %
Durchschnitt _ 20,8 C 72 % 1010,0 hPa #0,0 l/m 10,3 km/h (2 Bft) O-NO - #9:34 h #3,962 mm 2,3 UV-I 375 W/m 15,3 C 19,3 C 15,4 km/h (3 Bft) 98,35 %